[[{"header":{"parameterUnit":"m.s-1","parameterCategory":1,"la1":30.6,"la2":29.2853,"lo1":-89.7004,"lo2":-87.6739,"dy":0.0162,"dx":0.0183,"nx":112,"ny":82,"refTime":"2024-05-11T06:00:00:Z","depth":0,"parameterNumber":2,"parameterNumberName":"U-component_of_WINDS"},"data":[0.0,0.0,0.0,0.0,0.0,0.0,0.0,0.0,0.0,0.0,0.0,0.0,0.0,0.0,0.0,0.0,0.0,0.0,0.0,0.0,0.0,0.0,0.0,0.0,0.0,0.0,0.0,0.0,0.0,0.0,0.0,0.0,0.0,0.0,0.0,0.0,0.0,0.0,0.0,0.0,0.0,0.0,0.0,0.0,0.0,0.0,0.0,0.0,0.0,0.0,0.0,0.0,0.0,0.0,0.0,0.0,0.0,0.0,0.0,0.0,0.0,0.0,0.0,0.0,0.0,0.0,0.0,0.0,0.0,0.0,0.0,0.0,0.0,0.0,0.0,0.0,0.0,0.0,0.0,0.0,0.0,0.0,0.0,0.0,0.0,0.0,0.0,0.0,0.0,0.0,-2.9924,-3.3844,-3.8722,-4.0982,-3.9084,-3.7693,-3.3791,-2.6477,0.0,0.0,0.0,0.0,0.0,0.0,0.0,0.0,0.0,0.0,0.0,0.0,0.0,0.0,0.0,0.0,0.0,0.0,0.0,0.0,0.0,0.0,0.0,0.0,0.0,0.0,0.0,0.0,0.0,0.0,0.0,0.0,0.0,0.0,0.0,0.0,0.0,0.0,0.0,0.0,0.0,0.0,0.0,0.0,0.0,0.0,0.0,0.0,0.0,0.0,0.0,0.0,0.0,0.0,0.0,0.0,0.0,0.0,0.0,0.0,0.0,0.0,0.0,0.0,0.0,0.0,0.0,0.0,0.0,0.0,0.0,0.0,0.0,0.0,0.0,0.0,0.0,0.0,0.0,0.0,0.0,0.0,0.0,0.0,0.0,0.0,0.0,0.0,0.0,0.0,0.0,0.0,0.0,0.0,0.0,0.0,0.0,0.0,0.0,0.0,0.0,0.0,0.0,0.0,-3.031,-3.6926,-3.9433,-4.0226,-3.9142,-3.5803,-3.1863,-2.7363,0.0,0.0,0.0,0.0,0.0,0.0,0.0,0.0,0.0,0.0,0.0,0.0,0.0,0.0,0.0,0.0,0.0,0.0,0.0,0.0,0.0,0.0,0.0,0.0,0.0,0.0,0.0,0.0,0.0,0.0,0.0,0.0,0.0,0.0,0.0,0.0,0.0,0.0,0.0,0.0,0.0,0.0,0.0,0.0,0.0,0.0,0.0,0.0,0.0,0.0,0.0,0.0,0.0,0.0,0.0,0.0,0.0,0.0,0.0,0.0,0.0,0.0,0.0,0.0,0.0,0.0,0.0,0.0,0.0,0.0,0.0,0.0,0.0,0.0,0.0,0.0,0.0,0.0,0.0,0.0,0.0,0.0,0.0,0.0,0.0,0.0,0.0,0.0,0.0,0.0,0.0,0.0,0.0,0.0,0.0,0.0,0.0,0.0,0.0,0.0,0.0,0.0,0.0,-2.9594,-3.2766,-3.7853,-3.926,-3.9516,-3.868,-3.4892,-3.0895,-2.7048,-2.5274,0.0,0.0,0.0,0.0,0.0,0.0,0.0,0.0,0.0,0.0,0.0,0.0,0.0,0.0,0.0,0.0,0.0,0.0,0.0,0.0,0.0,0.0,0.0,0.0,0.0,0.0,0.0,0.0,0.0,0.0,0.0,0.0,0.0,0.0,0.0,0.0,0.0,0.0,0.0,0.0,0.0,0.0,0.0,0.0,0.0,0.0,0.0,0.0,0.0,0.0,0.0,0.0,0.0,0.0,0.0,0.0,0.0,0.0,0.0,0.0,0.0,0.0,0.0,0.0,0.0,0.0,0.0,0.0,0.0,0.0,0.0,0.0,0.0,0.0,0.0,0.0,0.0,0.0,0.0,0.0,0.0,0.0,0.0,0.0,0.0,0.0,0.0,0.0,0.0,0.0,0.0,0.0,0.0,0.0,0.0,0.0,0.0,0.0,0.0,0.0,0.0,0.0,-3.2677,-3.4981,-3.7644,-3.8542,-3.859,-3.7858,-3.3739,-2.9811,-2.6562,-2.3368,0.0,0.0,0.0,0.0,0.0,0.0,0.0,0.0,0.0,0.0,0.0,0.0,0.0,0.0,0.0,0.0,0.0,0.0,0.0,0.0,0.0,0.0,0.0,0.0,0.0,0.0,0.0,0.0,0.0,0.0,0.0,0.0,0.0,0.0,0.0,0.0,0.0,0.0,0.0,0.0,0.0,0.0,0.0,0.0,0.0,0.0,0.0,0.0,0.0,0.0,0.0,0.0,0.0,0.0,0.0,0.0,0.0,0.0,0.0,0.0,0.0,0.0,0.0,0.0,0.0,0.0,0.0,0.0,0.0,0.0,0.0,0.0,0.0,0.0,0.0,0.0,0.0,0.0,0.0,0.0,0.0,0.0,0.0,0.0,0.0,0.0,0.0,0.0,0.0,0.0,0.0,0.0,0.0,0.0,0.0,0.0,0.0,0.0,0.0,0.0,0.0,0.0,-3.2647,-3.5699,-3.6537,-3.7195,-3.7315,-3.6686,-3.1604,-2.782,-2.6313,-2.2055,0.0,0.0,0.0,0.0,0.0,0.0,0.0,0.0,0.0,0.0,0.0,0.0,0.0,0.0,0.0,0.0,0.0,0.0,0.0,0.0,0.0,0.0,0.0,0.0,0.0,0.0,0.0,0.0,0.0,0.0,0.0,0.0,0.0,0.0,0.0,0.0,0.0,0.0,0.0,0.0,0.0,0.0,0.0,0.0,0.0,0.0,0.0,0.0,0.0,0.0,0.0,0.0,0.0,0.0,0.0,0.0,0.0,0.0,0.0,0.0,0.0,0.0,0.0,0.0,0.0,0.0,0.0,0.0,0.0,0.0,0.0,0.0,0.0,0.0,0.0,0.0,0.0,0.0,0.0,0.0,0.0,0.0,0.0,0.0,0.0,0.0,0.0,0.0,0.0,0.0,0.0,0.0,0.0,0.0,0.0,0.0,0.0,0.0,0.0,0.0,0.0,0.0,-3.1038,-3.4192,-3.5599,-3.6713,-3.6985,-3.5968,-3.0925,-2.7147,-2.5556,0.0,0.0,0.0,0.0,0.0,0.0,0.0,0.0,0.0,0.0,0.0,0.0,0.0,0.0,0.0,0.0,0.0,0.0,0.0,0.0,0.0,0.0,0.0,0.0,0.0,0.0,0.0,0.0,0.0,0.0,0.0,0.0,0.0,0.0,0.0,0.0,0.0,0.0,0.0,0.0,0.0,0.0,0.0,0.0,0.0,0.0,0.0,0.0,0.0,0.0,0.0,0.0,0.0,0.0,0.0,0.0,0.0,0.0,0.0,0.0,0.0,0.0,0.0,0.0,0.0,0.0,0.0,0.0,0.0,0.0,0.0,0.0,0.0,0.0,0.0,0.0,0.0,0.0,0.0,0.0,0.0,0.0,0.0,0.0,0.0,0.0,0.0,0.0,0.0,0.0,0.0,0.0,0.0,0.0,0.0,0.0,0.0,0.0,0.0,0.0,0.0,0.0,-2.6638,-3.0223,-3.3033,-3.4496,-3.57,-3.5893,-3.4629,-2.9696,-2.6147,-2.4899,0.0,0.0,0.0,0.0,0.0,0.0,0.0,0.0,0.0,0.0,0.0,0.0,0.0,0.0,0.0,0.0,0.0,0.0,0.0,0.0,0.0,0.0,0.0,0.0,0.0,0.0,0.0,0.0,0.0,0.0,0.0,0.0,0.0,0.0,0.0,0.0,0.0,0.0,0.0,0.0,0.0,0.0,0.0,0.0,0.0,0.0,0.0,0.0,0.0,0.0,0.0,0.0,0.0,0.0,0.0,0.0,0.0,0.0,0.0,0.0,0.0,0.0,0.0,0.0,0.0,0.0,0.0,0.0,0.0,0.0,0.0,0.0,0.0,0.0,0.0,0.0,0.0,0.0,0.0,0.0,0.0,0.0,0.0,0.0,0.0,0.0,0.0,0.0,0.0,0.0,0.0,0.0,0.0,0.0,0.0,0.0,0.0,0.0,0.0,0.0,0.0,0.0,-2.7395,-3.0439,-3.2573,-3.3122,-3.3811,-3.3705,-3.2501,-2.7645,-2.4607,0.0,0.0,0.0,0.0,0.0,0.0,0.0,0.0,0.0,0.0,0.0,0.0,0.0,0.0,0.0,0.0,0.0,0.0,0.0,0.0,0.0,0.0,0.0,0.0,0.0,0.0,0.0,0.0,0.0,0.0,0.0,0.0,0.0,0.0,0.0,0.0,0.0,0.0,0.0,0.0,0.0,0.0,0.0,0.0,0.0,0.0,0.0,0.0,0.0,0.0,0.0,0.0,0.0,0.0,0.0,0.0,0.0,0.0,0.0,0.0,0.0,0.0,0.0,0.0,0.0,0.0,0.0,0.0,0.0,0.0,0.0,0.0,0.0,0.0,0.0,0.0,0.0,0.0,0.0,0.0,0.0,0.0,0.0,0.0,0.0,0.0,0.0,0.0,0.0,0.0,0.0,0.0,0.0,0.0,0.0,0.0,0.0,0.0,0.0,0.0,0.0,0.0,0.0,-2.6115,-2.9459,-3.1873,-3.2379,-3.3489,-3.3537,-3.1842,-2.7547,-2.4532,-2.3605,0.0,0.0,0.0,0.0,0.0,0.0,0.0,0.0,0.0,0.0,0.0,0.0,0.0,0.0,0.0,0.0,0.0,0.0,0.0,0.0,0.0,0.0,0.0,0.0,0.0,0.0,0.0,0.0,0.0,0.0,0.0,0.0,0.0,0.0,0.0,0.0,0.0,0.0,0.0,0.0,0.0,0.0,0.0,0.0,0.0,0.0,0.0,0.0,0.0,0.0,0.0,0.0,0.0,0.0,0.0,0.0,0.0,0.0,0.0,0.0,0.0,0.0,0.0,0.0,0.0,0.0,0.0,0.0,0.0,0.0,0.0,0.0,0.0,0.0,0.0,0.0,0.0,0.0,0.0,0.0,0.0,0.0,0.0,0.0,0.0,0.0,0.0,0.0,0.0,0.0,0.0,0.0,0.0,0.0,0.0,0.0,0.0,0.0,0.0,0.0,0.0,0.0,-2.561,-2.8598,-3.0851,-3.1583,-3.2426,-3.228,-3.0713,-2.7151,-2.4384,-2.2964,0.0,0.0,0.0,0.0,0.0,0.0,0.0,0.0,0.0,0.0,0.0,0.0,0.0,0.0,0.0,0.0,0.0,0.0,0.0,0.0,0.0,0.0,0.0,0.0,0.0,0.0,0.0,0.0,0.0,0.0,0.0,0.0,0.0,0.0,0.0,0.0,0.0,0.0,0.0,0.0,0.0,0.0,0.0,0.0,0.0,0.0,0.0,0.0,0.0,0.0,0.0,0.0,0.0,0.0,0.0,0.0,0.0,0.0,0.0,0.0,0.0,0.0,0.0,0.0,0.0,0.0,0.0,0.0,0.0,0.0,0.0,0.0,0.0,0.0,0.0,0.0,0.0,0.0,0.0,0.0,0.0,0.0,0.0,0.0,0.0,0.0,0.0,0.0,0.0,0.0,0.0,0.0,0.0,0.0,0.0,0.0,0.0,0.0,0.0,0.0,0.0,0.0,-2.5636,-2.7837,-2.9755,-3.0869,-3.0973,-3.0566,-2.9415,-2.6719,-2.4311,-2.2506,0.0,0.0,0.0,0.0,0.0,0.0,0.0,0.0,0.0,0.0,0.0,0.0,0.0,0.0,0.0,0.0,0.0,0.0,0.0,0.0,0.0,0.0,0.0,0.0,0.0,0.0,0.0,0.0,0.0,0.0,0.0,0.0,0.0,0.0,0.0,0.0,0.0,0.0,0.0,0.0,0.0,0.0,0.0,0.0,0.0,0.0,0.0,0.0,0.0,0.0,0.0,0.0,0.0,0.0,0.0,0.0,0.0,0.0,0.0,0.0,-2.2224,0.0,0.0,0.0,0.0,0.0,0.0,0.0,0.0,0.0,0.0,0.0,0.0,0.0,0.0,0.0,0.0,0.0,0.0,0.0,0.0,0.0,0.0,0.0,0.0,0.0,0.0,0.0,0.0,0.0,0.0,0.0,0.0,0.0,0.0,0.0,0.0,0.0,0.0,0.0,0.0,0.0,-2.5636,-2.7837,-2.9755,-3.0869,-3.0973,-3.0566,-2.9415,-2.7027,-2.47,-2.2531,-2.01,0.0,0.0,0.0,0.0,0.0,0.0,0.0,0.0,0.0,0.0,0.0,0.0,0.0,0.0,0.0,0.0,0.0,0.0,0.0,0.0,0.0,0.0,0.0,0.0,0.0,0.0,0.0,0.0,0.0,0.0,0.0,0.0,0.0,0.0,0.0,0.0,0.0,0.0,0.0,0.0,0.0,0.0,0.0,0.0,0.0,0.0,0.0,0.0,0.0,0.0,0.0,0.0,0.0,0.0,0.0,0.0,0.0,0.0,0.0,0.0,-2.5191,0.0,0.0,0.0,0.0,0.0,0.0,0.0,0.0,0.0,0.0,0.0,0.0,0.0,0.0,0.0,0.0,0.0,0.0,0.0,0.0,0.0,0.0,0.0,0.0,0.0,0.0,0.0,0.0,0.0,0.0,0.0,0.0,0.0,0.0,0.0,0.0,0.0,0.0,0.0,0.0,-2.6059,-2.802,-2.9614,-3.0477,-3.0581,-3.0111,-2.8935,-2.7236,-2.538,-2.3341,-2.1041,0.0,0.0,0.0,0.0,0.0,0.0,0.0,0.0,0.0,0.0,0.0,0.0,0.0,0.0,0.0,0.0,0.0,0.0,0.0,0.0,0.0,0.0,0.0,0.0,0.0,0.0,0.0,0.0,0.0,0.0,0.0,0.0,0.0,0.0,0.0,0.0,0.0,0.0,0.0,0.0,0.0,0.0,0.0,0.0,0.0,0.0,0.0,0.0,0.0,0.0,0.0,0.0,0.0,-3.475,-3.5572,-3.6849,-3.5368,-3.5366,-3.6397,-3.3315,-3.0475,-2.8025,-2.8842,0.0,0.0,0.0,0.0,0.0,0.0,0.0,0.0,0.0,0.0,0.0,0.0,0.0,0.0,0.0,0.0,0.0,0.0,0.0,0.0,0.0,0.0,0.0,0.0,-2.9652,-2.929,0.0,0.0,0.0,0.0,0.0,0.0,0.0,0.0,0.0,0.0,0.0,0.0,-2.651,-2.8132,-2.9431,-3.0153,-3.0074,-2.9588,-2.8656,-2.7497,-2.6059,-2.42,-2.2244,-2.0465,0.0,0.0,0.0,0.0,0.0,0.0,0.0,0.0,0.0,0.0,0.0,0.0,0.0,0.0,0.0,0.0,0.0,0.0,0.0,0.0,0.0,0.0,0.0,0.0,0.0,0.0,0.0,0.0,0.0,0.0,0.0,0.0,-2.6427,-2.6583,0.0,0.0,0.0,0.0,0.0,0.0,0.0,0.0,0.0,0.0,0.0,0.0,0.0,-3.5084,-3.5748,-3.7781,-3.9364,-4.0361,-4.1329,-4.2358,-4.3264,-4.1181,-3.9924,-3.9338,-4.0208,0.0,-3.4086,-3.1272,0.0,0.0,0.0,0.0,0.0,0.0,0.0,0.0,0.0,0.0,0.0,0.0,0.0,0.0,0.0,0.0,0.0,0.0,0.0,0.0,0.0,0.0,-3.1811,-3.0802,-3.1083,-3.112,0.0,-2.7739,-2.596,-2.4125,-2.308,0.0,0.0,0.0,0.0,0.0,0.0,0.0,-2.6562,-2.7766,-2.9153,-3.0712,-2.998,-2.9327,-2.9205,-2.8098,-2.6446,-2.4227,-2.3341,-2.1694,-1.9002,-1.8845,0.0,0.0,0.0,0.0,0.0,0.0,0.0,0.0,0.0,0.0,0.0,0.0,0.0,0.0,0.0,0.0,0.0,0.0,0.0,0.0,0.0,0.0,0.0,0.0,0.0,0.0,0.0,0.0,0.0,-2.8186,-2.9019,-2.7568,-2.8421,-2.8036,0.0,0.0,0.0,0.0,0.0,0.0,0.0,0.0,0.0,-3.6107,-3.6953,-3.7501,-3.791,-3.9066,-4.0607,-4.2441,-4.2927,-4.4117,-4.5818,-4.3727,-4.2791,-4.2833,-4.327,-4.1646,-3.8618,-3.6431,-3.3448,-3.0095,0.0,0.0,0.0,0.0,-2.8756,-2.9451,-2.9793,-3.0659,0.0,-3.025,0.0,0.0,0.0,0.0,0.0,0.0,0.0,0.0,0.0,0.0,0.0,-3.3349,-3.354,-3.3555,-3.2662,-3.1201,-2.9248,0.0,-2.5615,-2.4962,-2.4024,0.0,0.0,0.0,0.0,-2.5541,-2.6974,-2.7863,-2.8673,-2.9467,-2.91,-2.8647,-2.8333,-2.7777,-2.6654,-2.4726,-2.4047,-2.2557,-2.002,-1.9577,-1.9002,0.0,0.0,0.0,0.0,0.0,0.0,0.0,0.0,0.0,0.0,0.0,0.0,0.0,0.0,0.0,0.0,0.0,0.0,0.0,0.0,0.0,0.0,0.0,0.0,0.0,0.0,0.0,0.0,-3.0515,-3.0957,-2.8643,-3.0453,-3.0367,0.0,0.0,0.0,0.0,0.0,0.0,-3.5786,-3.7013,-3.8065,-3.8953,-3.9614,-4.0019,-4.0241,-4.0468,-4.1664,-4.3889,-4.3889,-4.5091,-4.7256,-4.5977,-4.5337,-4.5231,-4.5366,-4.3814,-4.1114,-4.0578,-3.6967,-3.1828,-3.2343,-3.1523,-3.0155,-3.0761,-3.1451,-3.2168,-3.2341,-3.3173,-3.3766,-3.1642,0.0,-3.0769,-2.7935,0.0,0.0,0.0,0.0,-3.0634,-3.2803,-3.3796,-3.445,-3.5286,-3.5495,-3.5338,-3.4763,-3.3613,-3.181,0.0,-2.7907,-2.7288,-2.5876,0.0,0.0,0.0,0.0,-2.6086,-2.7333,-2.802,-2.8472,-2.8595,-2.8333,-2.7994,-2.7542,-2.7359,-2.6582,-2.4887,-2.436,-2.308,-2.0804,-2.0124,-1.9342,-1.8323,0.0,0.0,0.0,0.0,0.0,0.0,0.0,0.0,0.0,0.0,0.0,0.0,0.0,0.0,0.0,0.0,0.0,0.0,0.0,0.0,0.0,0.0,0.0,0.0,0.0,0.0,0.0,0.0,0.0,-3.0618,-3.3302,0.0,0.0,0.0,0.0,-3.3796,-3.5126,-3.6912,-3.9108,-3.9779,-4.1016,-4.3235,-4.2924,-4.3172,-4.4029,-4.3615,-4.4217,-4.5784,-4.5784,-4.6595,-4.8243,-4.9109,-4.7933,-4.5427,-4.728,-4.5394,-4.0997,-4.1757,-4.0148,-3.7078,-3.5814,-3.524,-3.5094,-3.462,-3.4241,-3.3838,-3.276,-3.2443,-3.2558,-3.2904,-3.2771,-3.2317,-3.1374,-3.0466,0.0,0.0,-3.2476,-3.2934,-3.4711,-3.5574,-3.5992,-3.6044,-3.607,-3.5913,-3.5365,-3.3901,-3.215,0.0,-2.9118,-2.815,-2.7464,0.0,-2.5903,-2.6536,-2.7053,-2.7385,-2.749,-2.802,-2.8629,-2.9205,-2.8229,-2.7516,-2.749,-2.7027,-2.5981,-2.4256,-2.4096,-2.308,-2.0804,-2.0124,-1.9499,-1.8872,-1.8349,0.0,0.0,0.0,0.0,0.0,0.0,0.0,0.0,0.0,0.0,0.0,0.0,0.0,0.0,0.0,0.0,0.0,0.0,0.0,0.0,0.0,0.0,0.0,0.0,0.0,0.0,0.0,0.0,-3.6588,-3.851,0.0,-3.5376,-3.6183,-3.7094,-3.755,-3.9123,-4.08,-4.2518,-4.3035,-4.3801,-4.4919,-4.4505,-4.4277,-4.4298,-4.4132,-4.4626,-4.5915,-4.6949,-4.7754,-4.8335,-4.8655,-4.7539,-4.534,-4.5662,-4.374,-4.0542,-4.2038,-4.0964,-3.8286,-3.7294,-3.6801,-3.6601,-3.5951,-3.6108,-3.6504,-3.5271,-3.5577,-3.638,-3.5308,-3.3732,-3.2257,-3.216,-3.195,-3.198,-3.3047,-3.3843,-3.4685,-3.6044,-3.6541,-3.6776,-3.7168,-3.6671,-3.6044,-3.5861,-3.4737,-3.3509,-3.2542,-3.0817,-2.9457,-2.9213,-2.8229,-2.768,-2.8289,-2.8203,-2.8229,-2.8595,-2.849,-2.8499,-2.8708,-2.7994,-2.7359,-2.7,-2.6452,-2.5249,-2.3158,-2.3027,-2.1956,-1.963,-1.9342,-1.895,-1.8401,-1.7826,-1.7878,0.0,0.0,0.0,0.0,0.0,0.0,0.0,0.0,0.0,0.0,0.0,0.0,0.0,0.0,0.0,0.0,0.0,0.0,0.0,0.0,0.0,0.0,0.0,0.0,0.0,-3.6687,-3.9359,-3.9912,-4.203,-4.2269,-3.9371,-4.0489,-4.1369,-4.1607,-4.3159,-4.4546,-4.5623,-4.5685,-4.5892,-4.6347,-4.5623,-4.5084,-4.4774,-4.4463,-4.467,-4.5374,-4.6299,-4.6728,-4.6728,-4.7243,-4.6388,-4.4482,-4.4475,-4.3007,-4.0713,-4.141,-4.0978,-3.9642,-3.8738,-3.8217,-3.7881,-3.7682,-3.7885,-3.8137,-3.712,-3.7326,-3.7735,-3.6039,-3.4405,-3.3171,-3.3236,-3.338,-3.3695,-3.4584,-3.5311,-3.6096,-3.7063,-3.7299,-3.7351,-3.756,-3.6828,-3.6044,-3.5861,-3.492,-3.4005,-3.3666,-3.2176,-3.091,-3.0701,-2.9745,-2.9118,-2.951,-2.9222,-2.9039,-2.9284,-2.897,-2.8629,-2.842,-2.7863,-2.7177,-2.6452,-2.6216,-2.504,-2.2557,-2.24,-2.1433,-1.929,-1.9211,-1.9054,-1.8689,-1.8087,-1.8061,-1.8636,0.0,0.0,0.0,0.0,0.0,0.0,0.0,0.0,0.0,0.0,0.0,0.0,0.0,0.0,0.0,0.0,0.0,0.0,0.0,0.0,0.0,0.0,0.0,-3.4258,-3.815,-4.0841,-4.051,-4.3615,-4.4919,-4.2737,-4.4857,-4.6244,-4.5809,-4.6989,-4.792,-4.8376,-4.7568,-4.7279,-4.7693,-4.6409,-4.5726,-4.5705,-4.4795,-4.4319,-4.4298,-4.3898,-4.3615,-4.3691,-4.5213,-4.4784,-4.2965,-4.4061,-4.3392,-4.1441,-4.0096,-4.0319,-4.1393,-4.0203,-3.9565,-3.9216,-3.9817,-3.9411,-3.8407,-3.8035,-3.7139,-3.6069,-3.5034,-3.4988,-3.5178,-3.4867,-3.49,-3.534,-3.6651,-3.7037,-3.7168,-3.7743,-3.79,-3.7743,-3.7168,-3.6541,-3.594,-3.5443,-3.4424,-3.3613,-3.3613,-3.3117,-3.2515,-3.1902,-3.0884,-3.0153,-3.0127,-3.0127,0.0,-2.9405,-2.9336,-2.91,-2.849,-2.7915,-2.7072,-2.5923,-2.6321,-2.5437,-2.2557,-2.2349,-2.1564,-1.9839,-1.9786,-1.9786,-1.9786,-1.9211,-1.8662,-1.814,0.0,0.0,0.0,0.0,0.0,0.0,0.0,0.0,0.0,0.0,0.0,0.0,0.0,0.0,0.0,0.0,0.0,0.0,0.0,0.0,0.0,-3.5852,-3.8502,-3.8523,-4.1317,-4.3925,-4.5457,-4.7113,-4.7755,-4.6782,-4.7672,-4.8127,-4.7672,-4.8293,-4.8748,-4.8873,-4.8314,-4.8065,-4.8189,-4.7196,-4.6513,-4.6161,-4.525,-4.4629,-4.4298,-4.4996,-4.4687,-4.3691,-4.5213,-4.4784,-4.289,-4.2952,-4.223,-4.0986,-3.9951,-3.9536,-3.9572,-3.9496,-3.9831,-4.0181,-3.9567,-3.7965,-3.614,-3.6893,-3.5945,-3.445,-3.5294,-3.575,-3.5966,-3.6118,-3.6599,-3.7154,-3.7547,-3.7665,-3.7691,-3.7874,-3.7586,-3.7325,-3.7586,-3.6567,-3.5574,-3.5835,-3.4972,-3.4162,-3.4162,-3.3378,-3.2515,-3.1902,-3.1536,-3.1197,-3.0817,-3.0738,0.0,-3.0529,-2.9833,-2.9379,-2.9614,-2.8752,-2.768,-2.653,-2.5855,-2.4416,-2.193,-2.0963,-2.01,-1.9185,-1.9159,-1.9159,-1.9159,-1.8976,-1.9054,0.0,0.0,0.0,0.0,0.0,0.0,0.0,0.0,0.0,0.0,0.0,0.0,0.0,0.0,0.0,0.0,0.0,0.0,0.0,0.0,0.0,0.0,-3.9558,-4.2249,-4.3221,-4.4877,-4.6575,-4.8086,-4.908,-4.9535,-4.9245,-4.9473,-4.9452,-4.8997,-4.9204,-4.9266,-4.908,-4.8624,-4.8376,-4.8376,-4.7506,-4.6906,-4.6637,-4.5747,-4.5043,-4.4588,-4.499,-4.4673,-4.3615,-4.4558,-4.4123,0.0,-4.2373,-4.1804,-4.08,-3.9909,-3.9323,0.0,0.0,0.0,0.0,0.0,-3.7824,-3.6518,-3.6825,-3.608,-3.5032,-3.5244,-3.5703,-3.6035,-3.5746,-3.627,-3.6922,-3.6922,-3.718,-3.732,-3.7015,-3.7154,-3.7222,-3.6703,-3.6096,-3.5566,-3.5313,-3.4812,-3.4397,-3.4397,-3.3875,0.0,-3.2333,-3.181,-3.1365,-3.1026,-3.0973,-3.0973,-3.0973,-3.0189,-2.9666,-2.9771,-2.8935,-2.7949,-2.6798,-2.6091,0.0,0.0,0.0,-2.0858,-2.0022,-1.976,0.0,0.0,0.0,-1.9577,-1.942,0.0,0.0,0.0,-1.942,-1.9708,0.0,0.0,0.0,0.0,0.0,0.0,0.0,0.0,0.0,0.0,0.0,0.0,0.0,0.0,0.0,0.0,-4.3118,-4.5436,-4.761,-4.8355,-4.879,-4.91,-4.9887,-5.0425,-5.0425,-5.0425,-5.0259,-4.9866,-4.9783,-4.9663,-4.9162,0.0,0.0,0.0,0.0,-4.7113,-4.7113,-4.6119,-4.5395,-4.4981,-4.4463,-4.4008,-4.3615,-4.3553,-4.3077,-4.2322,-4.2281,-4.169,-4.08,-3.9909,-3.9544,-3.961,-3.9776,-3.9259,-3.8472,-3.8156,-3.804,-3.7882,-3.6929,0.0,0.0,-3.4853,-3.4902,-3.5357,-3.4504,-3.4742,-3.5329,-3.5451,-3.5951,-3.6304,-3.5738,-3.6543,-3.7068,-3.5238,-3.5305,-3.5425,-3.4331,-3.4204,-3.4272,-3.4272,-3.4304,-3.3979,-3.296,-3.1888,-3.113,-3.0999,-3.0973,-3.0973,-3.0973,-3.0477,-2.9918,-2.9545,0.0,0.0,-2.7007,-2.685,-2.5772,-2.3472,-2.3182,-2.2662,-2.1642,-2.1145,-2.0882,-2.0882,-2.0805,-2.0255,-1.9211,-1.9133,-1.9107,-1.9133,-2.0124,-2.0308,0.0,0.0,0.0,0.0,0.0,0.0,0.0,0.0,0.0,0.0,0.0,0.0,0.0,0.0,0.0,-4.2145,-4.5064,-4.7568,-4.9142,-5.0073,-5.0342,-4.9701,-5.0094,-5.0425,-5.0425,-5.0425,-5.0384,-5.0301,-4.997,-4.9721,-4.9704,-4.9183,-4.8935,-4.8935,-4.8045,-4.7568,-4.7568,-4.5933,-4.5084,-4.4981,0.0,0.0,-4.3594,-4.3221,-4.2766,-4.2322,-4.1928,-4.1379,-4.08,-3.9909,-3.9761,-3.9864,-3.8099,-3.7336,-3.7043,-3.6265,-3.5776,-3.5435,-3.4804,-3.4128,-3.3487,-3.3304,-3.3212,-3.3279,-3.3549,-3.3668,0.0,-3.4679,-3.475,-3.477,-3.5448,-3.5441,-3.5335,-3.5421,-3.4527,-3.3742,-3.3884,-3.3765,-3.3598,-3.3598,-3.3685,-3.3666,-3.3456,-3.2829,-3.2045,-3.113,-3.0973,-3.0973,-3.0973,-3.0477,-3.0231,-3.0607,-3.0137,-2.9327,-2.8185,-2.7628,-2.6367,-2.407,-2.3052,-2.2479,-2.2243,-2.2139,-2.2088,-2.2088,-2.159,-2.1224,-2.1015,-2.0569,-2.0334,-2.0334,-2.0074,-1.9917,0.0,0.0,0.0,0.0,0.0,0.0,0.0,0.0,0.0,0.0,0.0,-3.5728,-3.7777,0.0,-4.3346,-4.5623,-4.7713,-4.9224,-4.9701,-5.0529,-5.0777,-4.9866,-5.0549,-5.0922,-5.0466,-5.0632,-5.0756,-5.0756,-5.0135,-4.9849,-4.9849,-4.9307,-4.9059,-4.9059,-4.8169,-4.7693,-4.7693,-4.6119,-4.5229,-4.4981,-4.4298,-4.3842,-4.3594,-4.3139,-4.2683,-4.2302,-4.1772,-4.1296,-4.08,-3.9909,-3.926,-3.8698,-3.7332,-3.7232,-3.7657,-3.6721,-3.5804,-3.4983,-3.43,-3.3617,-3.3033,-3.2859,-3.2444,-3.2141,-3.2696,-3.2648,-3.2487,-3.3009,-3.329,-3.3469,-3.3578,-3.3928,-3.4174,-3.3726,-3.3338,-3.3002,-3.2652,-3.2493,-3.2377,-3.2152,-3.2639,-3.302,-3.274,-3.2702,-3.2411,-3.1548,-3.1156,-3.0973,-3.0973,-3.0738,-3.0555,-3.0555,-3.0257,-2.9735,-2.8908,-2.7758,-2.6478,-2.5036,-2.3861,-2.3393,-2.3681,-2.3106,-2.2792,-2.2792,-2.2244,-2.1956,-2.1956,-2.1668,-2.1564,-2.1564,-2.1224,-2.0806,0.0,0.0,0.0,0.0,0.0,0.0,0.0,-3.1919,-3.3037,-3.579,-3.7508,-3.9537,-4.2849,-4.4733,-4.6533,-4.8831,-4.997,-5.0425,-5.0073,-5.0653,-5.0736,-4.9742,-5.0756,-5.1232,-5.0487,-5.0756,-5.0984,-5.0984,-5.0218,-4.9849,-4.9849,-4.9307,-4.9017,-4.8935,-4.8127,-4.7651,-4.7568,-4.6223,-4.5354,-4.4981,-4.4443,-4.3925,-4.347,-4.2994,-4.2538,-4.2177,-4.1628,-4.1027,-4.0303,-3.9765,-3.8688,-3.7322,-3.6949,-3.7424,-3.8198,-3.727,-3.6298,-3.5273,-3.4279,-3.3637,-3.3161,-3.2644,-3.1918,-3.1307,-3.1773,-3.156,-3.1192,-3.1381,-3.1847,-3.2185,-3.1739,-3.2527,-3.3155,-3.1913,-3.2167,-3.2402,-3.1363,-3.1224,-3.1204,-3.0829,-3.1581,-3.213,-3.1687,-3.1905,-3.2077,-3.1824,-3.1339,-3.0973,-3.0973,-3.0973,-3.0817,-3.0309,-3.0257,-3.0059,-2.9483,-2.7975,-2.6765,-2.6158,-2.5171,-2.4779,-2.5149,-2.423,-2.3681,-2.355,-2.3134,-2.2794,-2.2558,-2.2558,-2.2506,-2.2401,-2.2505,-2.2008,-3.0222,-2.9228,-2.9415,-3.2106,-3.1981,-3.2685,0.0,-3.873,-3.8641,-4.1441,-4.3449,-4.4836,-4.5291,-4.7154,-4.8852,-4.9556,-5.0446,-5.1025,-5.0963,-5.1046,-5.0611,-4.9307,-4.999,-5.0529,-5.0425,-5.0466,-5.0487,-5.0487,-5.0032,-4.9849,-4.9849,-4.9307,-4.8873,-4.8459,-4.7962,-4.7506,-4.7113,-4.5747,-4.5043,-4.4981,-4.4112,-4.3449,-4.2973,-4.2538,-4.2156,-4.1607,-4.1151,-4.0013,-3.8543,-3.9247,-3.8481,-3.6867,-3.6825,-3.662,-3.6373,-3.579,-3.5541,-3.5231,-3.3906,-3.3161,-3.2664,-3.1816,-3.0917,-3.0265,-3.0722,-3.0276,-2.9764,-3.0627,-3.064,-3.0608,-3.1396,-3.171,-3.1812,-3.1629,-3.1337,-3.1114,-3.097,-3.0756,-3.0579,-3.0533,-3.081,-3.0974,-3.0927,-3.0589,-3.0646,-3.1642,-3.1339,-3.0973,-3.0973,-3.0973,-3.0947,-3.0895,-3.0895,-3.066,-3.0048,-2.8908,-2.7941,-2.7333,-2.6739,-2.619,-2.5715,-2.5558,-2.5301,-2.4809,-2.473,-2.4181,-2.3132,-2.3132,-2.2871,-2.2401,-2.2897,-2.2792,-3.2582,-3.2478,-3.2892,-3.4238,-3.5355,-3.6949,-4.0158,-4.1048,-4.1855,-4.407,-4.5975,-4.7403,-4.7962,-4.9266,-5.0404,-5.088,-5.1046,-5.1005,-5.0736,-5.0011,-4.9121,-4.8024,-4.7982,-4.8459,-4.9535,-5.0115,-5.0425,-5.0425,-5.0011,-4.9849,-4.9849,-4.9307,-4.8976,-4.879,-4.8065,-4.7486,-4.6969,-4.5685,-4.4857,-4.4588,-4.3925,-4.3366,-4.2911,-4.2456,-4.1731,-4.0758,-4.0303,-3.9371,-3.8212,-3.8605,-3.7984,-3.6742,-3.6204,-3.6039,-3.6059,-3.5583,-3.5252,-3.4921,-3.4072,-3.3141,-3.2256,-3.2209,-3.1174,-3.0139,-3.0864,-3.045,-2.9798,-3.0245,-3.0192,-3.0139,-3.0557,-3.0651,-3.0651,-3.0651,-3.0502,-3.0291,-3.0016,-2.9885,-2.9633,-2.9074,-2.9626,-3.0101,-2.9875,-2.9889,-3.0166,-3.0668,-3.0453,-3.0159,-2.9908,-3.0444,-3.0849,-3.0849,-3.0849,-3.054,-2.9796,-2.9548,-2.9099,-2.8421,-2.7926,-2.7583,-2.7314,-2.6687,-2.6216,-2.5986,-2.5332,-2.4756,-2.4259,-2.3916,-2.3629,-2.3393,-2.3629,-2.3602,-3.3844,-3.4631,-3.5562,-3.6204,-3.8336,-4.0593,-4.1752,-4.3077,-4.4546,-4.6264,-4.7651,-4.8852,-4.9763,-5.0487,-5.1067,-5.1543,-5.1439,-5.1087,-5.0508,-4.9245,-4.7982,-4.6968,-4.6246,-4.6492,-4.7817,-4.8976,-4.9659,-4.9659,-4.9597,-4.9576,-4.9576,-4.9121,-4.881,-4.8686,-4.792,-4.7237,-4.6678,-4.5561,-4.4753,-4.4298,-4.3698,-4.318,-4.2704,-4.2021,-4.1151,-4.0199,-3.9674,-3.8957,-3.8005,-3.8129,-3.7425,-3.6183,-3.5645,-3.5542,-3.5687,-3.5211,-3.4921,-3.4712,-3.3948,-3.2975,-3.1988,-3.1981,-3.1071,-3.0118,-3.0801,-3.0532,-2.9994,-2.9994,-2.9994,-2.9994,-2.9994,-2.9994,-2.9994,-2.9994,-2.9994,-2.9911,-2.9559,-2.9394,-2.9063,-2.8276,-2.8715,-2.9081,-2.8672,-2.8945,-2.9194,-2.9102,-2.9157,-2.9295,-2.9478,-3.0289,-3.0586,-2.9985,-3.033,-3.029,-2.9441,-2.9865,-2.9855,-2.9202,-2.8844,-2.8638,-2.8482,-2.7444,-2.6848,-2.6791,-2.574,-2.5169,-2.5075,-2.4532,-2.4246,-2.4272,-2.4116,-2.4067,-3.3285,-3.4383,-3.5956,-3.8125,-4.0468,-4.2642,-4.4463,-4.5933,-4.7299,-4.8686,-4.9017,-4.9328,-5.0239,-5.0425,-5.0591,-5.1046,-5.1501,-5.146,-5.0549,-4.9245,-4.7879,-4.6452,-4.5581,-4.5064,-4.5105,-4.672,-4.7755,-4.7755,-4.8583,-4.908,-4.908,-4.8645,-4.8189,-4.7734,-4.7279,-4.6637,-4.5726,-4.5229,-4.4753,-4.4298,-4.3387,-4.2704,-4.2302,-4.0903,-4.0261,-4.0199,-3.9674,-3.8771,-3.755,-3.8005,-3.6867,-3.492,-3.5273,-3.5169,-3.4795,-3.4339,-3.4443,-3.4629,-3.3223,-3.2401,-3.176,-3.0512,-3.0036,-2.9994,-3.0036,-3.0015,-2.9994,-2.9994,-2.9994,-2.9994,-2.9994,-2.9994,-2.9994,-2.9994,-2.9994,-2.9994,-2.9973,-2.9622,-2.9166,-2.869,-2.8235,-2.7828,-2.7419,-2.7384,-2.7217,-2.6759,-2.7436,-2.8566,-3.033,-3.0939,-3.0346,-2.8131,-2.9394,-3.0075,-2.9174,-2.9896,-3.015,-2.9511,-2.946,-2.9178,-2.8615,-2.7733,-2.7202,-2.7011,-2.6171,-2.5612,-2.53,-2.489,-2.4693,-2.4662,-2.4149,-2.3979,-3.4362,-3.6618,-3.9144,-4.1441,-4.3511,-4.5291,-4.6492,-4.7382,-4.7879,-4.7755,-4.7486,-4.7175,-4.6885,-4.732,-4.7858,-4.8334,-4.9556,-5.0239,-4.9618,-4.8852,-4.7527,-4.5271,-4.4981,-4.4505,-4.3304,-4.5105,-4.672,-4.761,-4.7962,-4.8417,-4.9038,-4.8914,-4.8624,-4.8148,-4.7713,-4.703,-4.614,-4.5685,-4.5064,-4.4298,-4.3056,-4.2083,-4.1317,-4.0572,-3.9819,-3.9241,-3.9075,-3.8647,-3.7922,-3.7446,-3.6804,-3.6039,-3.5273,-3.5066,-3.5148,-3.4693,-3.4297,-3.3741,-3.2996,-3.2043,-3.1112,-3.0967,-3.0491,-3.0056,-3.0367,-3.0036,-2.9539,-2.9539,-2.9311,-2.9083,-2.9083,-2.9083,-2.9145,-2.9456,-2.9539,-2.9622,-2.9932,-2.987,-2.9539,-2.8773,-2.8483,-2.8152,-2.7434,-2.7309,-2.7247,-2.7102,-2.7278,-2.79,-2.9234,-2.9142,-2.8698,-2.8058,-2.8281,-2.8267,-2.7827,-2.8347,-2.8552,-2.8186,-2.8467,-2.8286,-2.7521,-2.7103,-2.6849,-2.6685,-2.5227,-2.4927,-2.5825,-2.4822,-2.4576,-2.5075,-2.4895,-2.4823,-3.6515,-3.9102,-4.171,-4.4008,-4.5726,-4.6968,-4.7548,-4.7796,-4.7589,-4.6533,-4.5685,-4.4836,-4.3946,-4.3987,-4.4386,-4.5416,-4.6823,-4.7982,-4.85,-4.7755,-4.6637,-4.5209,-4.4712,-4.3967,-4.2621,-4.4132,-4.5685,-4.6885,-4.7258,-4.7775,-4.8541,-4.8417,-4.821,-4.79,-4.7444,-4.6844,-4.6119,-4.5664,-4.4815,-4.3553,-4.2683,-4.169,-4.0634,-4.0179,-3.9592,-3.9013,-3.875,-3.846,-3.8109,-3.7177,-3.6515,-3.5976,-3.5168,-3.4838,-3.49,-3.4671,-3.409,-3.3306,-3.2871,-3.1836,-3.0698,-3.0843,-3.047,-3.0056,-3.0346,-3.0015,-2.9559,-2.9559,-2.9208,-2.8897,-2.9063,-2.898,-2.898,-2.9435,-2.9559,-2.9622,-2.9932,-2.9994,-2.9766,-2.9001,-2.8731,-2.838,-2.7634,-2.7413,-2.7309,-2.7309,-2.7256,-2.7426,-2.7944,-2.82,-2.8012,-2.7182,-2.7391,-2.7346,-2.6712,-2.7221,-2.7481,-2.7383,-2.7616,-2.7545,-2.6993,-2.6585,-2.6327,-2.6187,-2.4787,-2.4624,-2.582,-2.4813,-2.4739,-2.5505,-2.5301,-2.5231,-3.9516,-4.171,-4.3677,-4.5892,-4.7092,-4.7693,-4.7631,-4.7217,-4.6451,-4.5043,-4.3573,-4.2269,-4.1358,-4.0593,-4.0675,-4.2456,-4.3718,-4.5229,-4.7424,-4.6306,-4.554,-4.6204,-4.4877,-4.3615,-4.3077,-4.3863,-4.4753,-4.5623,-4.6492,-4.7175,-4.7651,-4.7299,-4.6989,-4.703,-4.6535,-4.6161,-4.5685,-4.5167,-4.4029,-4.2364,-4.2302,-4.1483,-4.0179,-3.9674,-3.9447,-3.9413,-3.8585,-3.8191,-3.8088,-3.7177,-3.6018,-3.4878,-3.4857,-3.4588,-3.4134,-3.4113,-3.3803,-3.3306,-3.2871,-3.1836,-3.0615,-3.018,-3.0036,-3.0036,-3.0036,-3.0015,-2.9994,-2.9973,-2.9622,-2.9373,-2.9808,-2.9601,-2.9394,-2.9849,-2.9953,-2.9973,-2.9994,-2.9994,-2.9849,-2.9394,-2.8938,-2.8462,-2.8007,-2.7572,-2.733,-2.7309,-2.7309,-2.7143,-2.6708,-2.8117,-2.8144,-2.5555,-2.6734,-2.7169,-2.5864,-2.6505,-2.6976,-2.6976,-2.7017,-2.7017,-2.6976,-2.6197,-2.5701,-2.5554,-2.4801,-2.4673,-2.5277,-2.484,-2.5016,-2.5802,-2.5232,-2.5076,-4.1545,-4.407,-4.6285,-4.7548,-4.8024,-4.7941,-4.6927,-4.554,-4.3905,-4.1835,-3.9226,-3.7053,-3.6142,-3.7198,-3.8667,-4.0158,-4.4008,-4.7154,-4.8065,-4.8686,-4.85,-4.703,-4.674,-4.6078,-4.4608,-4.5291,-4.5788,-4.5685,-4.5892,-4.6513,-4.7631,-4.7589,-4.7382,-4.7051,-4.6845,-4.6471,-4.5685,-4.4546,-4.3553,-4.2745,-4.171,-4.0696,-3.9633,-3.953,-3.9164,-3.8543,-3.8626,-3.8295,-3.7632,-3.7032,-3.639,-3.5728,-3.5376,-3.5169,-3.5024,-3.4693,-3.4072,-3.3306,-3.2871,-3.1836,-3.0677,-3.0553,-3.0512,-3.0512,-3.0512,-3.0263,-2.9932,-2.958,-2.9145,-2.8814,-2.8938,-2.8876,-2.8918,-2.9373,-2.9477,-2.958,-2.9911,-2.9994,-2.9849,-2.9394,-2.8938,-2.8462,-2.8007,-2.7821,-2.7634,-2.7351,-2.7309,-2.7268,-2.7143,-2.7231,-2.7006,-2.6293,-2.6028,-2.5719,-2.5396,-2.5231,-2.5147,-2.5147,-2.5757,-2.5841,-2.5189,-2.53,-2.5297,-2.5165,-2.3724,-2.3635,-2.4904,-2.3945,-2.384,-2.4567,-2.439,-2.4658,-4.465,-4.6596,-4.8107,-4.881,-4.8376,-4.732,-4.554,-4.3573,-4.1296,-3.8398,-3.5894,-3.3844,-3.252,-3.3824,-3.5604,-3.7177,-4.1358,-4.5126,-4.7196,-4.8314,-4.8769,-4.8293,-4.8272,-4.7651,-4.6057,-4.6513,-4.6761,-4.6306,-4.6099,-4.6306,-4.7051,-4.7092,-4.6989,-4.6659,-4.6659,-4.6202,-4.5084,-4.4298,-4.3284,-4.2021,-4.1234,-4.0303,-3.9158,-3.9158,-3.8854,-3.8191,0.0,-3.8274,-3.7736,-3.7074,-3.6535,-3.6059,-3.5604,-3.5293,-3.5107,-3.492,-3.436,-3.3555,-3.2727,-3.1795,-3.0988,-3.0988,-3.0988,-3.0988,-3.0988,-3.0801,-3.0512,-3.0036,-2.958,-2.9228,-2.9228,-2.9063,-2.9042,-2.9497,-2.9601,-2.9684,-2.9932,-2.9994,-2.9849,-2.9394,-2.9104,-2.8773,-2.8297,-2.8235,-2.8069,-2.7614,-2.7552,-2.7489,-2.733,-2.7081,-2.6832,-2.6625,-2.6123,-2.5668,-2.523,-2.4941,-2.4714,-2.4507,-2.4935,-2.502,-2.4529,-2.4746,-2.4783,-2.4529,-2.3594,-2.3615,-2.4601,-2.3913,-2.386,-2.4416,-2.4416,-2.4738,-4.7879,-4.8852,-4.9245,-4.9576,-4.8252,-4.6244,-4.3884,-4.14,-3.8585,-3.5045,-3.312,-3.1588,-2.9932,-3.0905,-3.2602,-3.461,-3.8026,-4.1835,-4.5954,-4.6968,-4.7941,-4.9638,-4.9431,-4.8666,-4.7424,-4.7589,-4.7568,-4.7072,-4.6576,-4.6349,-4.6349,-4.6287,-4.6266,-4.6266,-4.6204,-4.5623,-4.4319,-4.4174,-4.3035,-4.0882,-4.0758,-4.0054,-3.8786,-3.8724,-3.8543,-3.8191,-3.8191,0.0,-3.7943,-3.7136,-3.6494,-3.5976,-3.5583,-3.519,-3.4899,-3.4837,-3.4567,-3.3969,-3.2664,-3.1961,-3.1609,-3.136,-3.1319,-3.136,-3.1298,-3.136,-3.136,-3.0843,-3.045,-3.016,-3.0098,-2.9787,-2.958,-2.9911,-2.9994,-2.9994,-2.9994,-2.9994,-2.987,-2.9477,-2.9394,-2.9249,-2.8773,-2.8711,-2.8545,-2.8041,-2.7958,-2.7883,-2.7537,-2.7372,-2.7143,-2.675,-2.6646,-2.6227,-2.5378,-2.523,-2.5003,-2.4528,-2.4507,-2.4507,-2.4507,-2.4507,-2.4321,-2.3971,-2.3908,-2.4031,-2.4248,-2.4183,-2.4298,-2.4604,-2.4604,-2.4742,-4.9183,-4.9663,-4.9556,-4.9266,-4.7548,-4.5229,-4.2538,-3.8978,-3.5438,-3.2561,-3.0263,-2.8545,-2.7911,-2.9787,-3.2457,-3.5397,-3.8937,-4.2766,-4.6865,-4.8189,-4.91,-5.0177,-4.9908,-4.939,-4.8769,-4.8438,-4.792,-4.7092,-4.6886,-4.6927,-4.6927,-4.6473,-4.6266,-4.6266,-4.5995,-4.5312,-4.4319,-4.3532,-4.2393,-4.0862,-4.0116,-3.9385,-3.8765,-3.846,-3.8253,-3.8191,-3.8191,0.0,-3.7032,-3.6867,-3.6308,-3.5542,-3.5459,-3.5376,-3.5273,-3.49,-3.4774,-3.4546,-3.3492,-3.3099,-3.2789,-3.1298,-3.1071,-3.1298,-3.0926,-3.1319,-3.1754,-3.0926,-3.0905,-3.105,-3.0677,-3.0512,-3.0367,-3.0056,-2.9994,-2.9994,-2.9994,-2.9994,-2.9973,-2.9891,-2.987,-2.9725,-2.927,-2.9187,-2.9021,-2.8566,-2.8504,-2.8462,-2.838,-2.7766,-2.7268,-2.7206,-2.6832,-2.6397,-2.5813,-2.544,-2.5003,-2.4528,-2.4507,-2.4507,-2.4507,-2.4507,-2.4466,-2.4383,-2.4074,-2.3909,-2.3991,-2.3553,-2.3404,-2.348,-2.348,-2.3659,-5.086,-5.1191,-5.0963,-5.0011,-4.7713,-4.465,-4.0717,-3.6804,-3.3099,-2.9943,-2.7966,-2.6724,-2.6289,-2.8442,-3.0946,-3.2954,-3.5956,-3.9702,-4.4526,-4.5788,-4.7279,-5.0094,-5.0239,-4.9928,-4.9473,-4.879,-4.8086,-4.7424,-4.6947,-4.6678,-4.6678,-4.639,-4.6266,-4.6266,-4.5912,-4.5126,-4.3967,-4.3263,-4.2124,-4.053,-3.9868,-3.922,-3.8765,-3.8398,-3.8191,-3.8191,-3.8191,0.0,-3.7488,-3.7011,-3.6535,-3.6101,-3.5604,-3.5418,-3.5376,-3.4921,-3.4816,-3.465,-3.343,-3.3037,-3.283,-3.1485,-3.136,-3.1629,-3.1195,-3.1505,-3.1843,-3.1236,-3.1381,-3.1609,-3.1153,-3.105,-3.0926,-3.047,-3.0346,-3.0346,-3.0346,-3.0346,-3.0346,-3.0346,-3.016,-2.9932,-2.9704,-2.9663,-2.9497,-2.9042,-2.898,-2.8876,-2.8649,-2.8235,-2.7862,-2.7634,-2.7407,-2.6889,-2.5958,-2.5689,-2.5275,-2.4549,-2.4507,-2.4507,-2.4507,-2.4507,-2.4507,-2.4507,-2.4322,-2.4219,-2.4219,-2.4012,-2.3784,-2.3536,-2.3536,-2.3712,-5.1874,-5.2267,-5.1957,-5.0384,-4.7506,-4.3822,-3.8999,-3.49,-3.1153,-2.7849,-2.6372,-2.5627,-2.5251,-2.7138,-2.9187,-3.0594,-3.2789,-3.6266,-4.1855,-4.3366,-4.5416,-4.9494,-5.0239,-5.0239,-4.9804,-4.8831,-4.8065,-4.7713,-4.6865,-4.6266,-4.6266,-4.6266,-4.6266,-4.6266,-4.5809,-4.4919,-4.3615,-4.3159,-4.1959,-4.0075,-3.9806,-3.933,-3.8688,-3.8336,-3.8191,-3.8191,-3.8191,0.0,0.0,-3.7094,-3.668,-3.6432,-3.5707,-3.5418,-3.5376,-3.5024,-3.49,-3.4734,-3.3575,-3.3099,-3.2871,-3.1961,-3.1836,-3.1905,-3.1505,-3.1692,-3.1905,-3.1609,-3.1774,-3.1905,-3.1609,-3.1526,-3.1402,-3.0946,-3.076,-3.0719,-3.0822,-3.076,-3.0677,-3.0677,-3.0387,-3.0118,-3.0015,-2.9994,-2.987,-2.9497,-2.9456,-2.9332,-2.8959,-2.8918,-2.8731,-2.8276,-2.8048,-2.7407,-2.619,-2.602,-2.5689,-2.4838,-2.4693,-2.4652,-2.4652,-2.4549,-2.4507,-2.4507,-2.4507,-2.4507,-2.4507,-2.4507,-2.4321,-2.4033,-2.4033,-2.4073,-5.1087,-5.1543,-5.1336,-4.9121,-4.585,-4.2083,-3.7881,-3.3451,-2.9559,-2.7185,-2.5916,-2.523,-2.5189,-2.6103,-2.78,-3.0748,-3.2153,-3.4962,-4.0862,-4.3532,-4.5788,-4.8272,-4.9659,-5.0239,-4.9804,-4.8541,-4.7734,-4.7693,-4.6865,-4.6266,-4.6266,-4.6266,-4.6266,-4.6266,-4.5498,-4.4588,-4.3615,-4.3159,-4.1814,-3.953,-3.9951,-3.9475,-3.8253,-3.8212,-3.8191,-3.8191,-3.8191,0.0,0.0,-3.6846,-3.6308,-3.5542,-3.5459,-3.5418,-3.5418,-3.5376,-3.5355,-3.5273,-3.4755,-3.436,-3.3803,-3.2892,-3.2297,-3.1905,-3.1505,-3.1692,-3.1967,-3.1946,-3.1946,-3.1967,-3.1926,-3.1926,-3.1857,-3.1422,-3.0988,-3.0801,-3.1215,-3.0988,-3.0677,-3.0677,-3.0657,-3.0491,-3.0077,-2.9994,-2.9973,-2.9932,-2.9932,-2.9911,-2.987,-2.987,-2.9684,-2.9228,-2.8421,-2.7531,-2.6625,-2.6563,-2.6335,-2.5792,-2.5378,-2.5127,-2.5127,-2.4735,-2.4507,-2.4507,-2.4507,-2.4507,-2.4507,-2.4507,-2.4487,-2.4445,-2.4445,-2.4282,-5.0694,-5.1853,-5.2019,-4.9431,-4.583,-4.1772,-3.7384,-3.2851,-2.8918,-2.662,-2.544,-2.4776,-2.4776,-2.5292,-2.6455,-2.8545,-2.8959,-3.0801,-3.5914,-3.7674,-4.0179,-4.494,-4.672,-4.8045,-4.9224,-4.8583,-4.7755,-4.6947,-4.6554,-4.6266,-4.6266,-4.6266,-4.6266,-4.6266,-4.5457,-4.467,-4.4029,-4.3284,-4.2062,-4.0344,-4.0241,-3.9765,-3.8978,-3.844,-3.8336,-3.8564,-3.8295,0.0,0.0,-3.6908,-3.6411,-3.5811,-3.5521,-3.5418,-3.5418,-3.5418,-3.5418,-3.5355,-3.4921,-3.4691,-3.4401,-3.341,-3.3182,-3.2975,-3.1422,-3.1464,-3.1926,-3.1712,-3.2043,-3.2401,-3.2401,-3.2194,-3.1946,-3.1816,-3.1629,-3.1547,-3.1733,-3.1629,-3.1505,-3.1505,-3.1278,-3.0946,-3.0491,-3.0408,-3.0325,-3.0036,-2.9994,-2.9994,-2.9994,-2.9994,-2.9829,-2.9352,-2.898,-2.8276,-2.7143,-2.704,-2.6708,-2.5962,-2.5709,-2.5502,-2.521,-2.5003,-2.4776,-2.4507,-2.4507,-2.4507,-2.4507,-2.4507,-2.4507,-2.4507,-2.4507,-2.4404,-4.8955,-5.0818,-5.1584,-4.908,-4.5374,-4.1193,-3.6887,-3.2375,-2.8483,-2.633,-2.5171,-2.4507,-2.4507,-2.4755,-2.5437,-2.6874,-2.7061,-2.8462,-3.2768,-3.4238,-3.6742,-4.1814,-4.3615,-4.5354,-4.7631,-4.8045,-4.7713,-4.6637,-4.6349,-4.6266,-4.6266,-4.6266,-4.6285,-4.6161,-4.5271,-4.4567,-4.4112,-4.318,-4.2104,-4.0862,-4.0406,-3.9889,-3.9241,-3.8543,-3.8274,-3.844,-3.8109,0.0,0.0,-3.6742,-3.6328,-3.5873,-3.5542,-3.5418,-3.5418,-3.5418,-3.5418,-3.5376,-3.5066,-3.492,-3.4712,-3.4049,-3.3906,-3.372,-3.1857,-3.1733,-3.2132,-3.1857,-3.223,-3.2669,-3.2669,-3.2421,-3.2194,-3.2194,-3.2091,-3.2029,-3.2153,-3.207,-3.1988,-3.1988,-3.1795,-3.1422,-3.0967,-3.0884,-3.0739,-3.0263,-3.0201,-3.016,-3.0015,-2.9994,-2.987,-2.9539,-2.9518,-2.9001,-2.7759,-2.7455,-2.7081,-2.6517,-2.6227,-2.5937,-2.5647,-2.5334,-2.5044,-2.4714,-2.4569,-2.4507,-2.4507,-2.4507,-2.4507,-2.4507,-2.4507,-2.4507,-4.5354,-4.7734,-4.9349,-4.7527,-4.3946,-3.993,-3.6266,-3.1899,-2.809,-2.6248,-2.5171,-2.4507,-2.4507,-2.4507,-2.4941,-2.6397,-2.7324,-2.9187,-3.2871,-3.5335,-3.7467,-3.9282,-4.0779,-4.2518,-4.4815,-4.6637,-4.7506,-4.7072,-4.6514,0.0,-4.6266,-4.6266,-4.614,-4.5705,-4.4795,-4.4091,-4.3615,-4.2725,-4.1793,-4.0862,-4.0427,-3.9674,-3.8765,-3.8398,-3.7943,0.0,0.0,0.0,0.0,-3.6121,-3.5852,-3.5438,-3.5418,-3.5418,-3.5418,-3.5418,-3.5418,-3.5418,-3.5418,-3.5128,-3.4816,-3.4816,-3.4505,-3.3886,-3.2996,-3.2669,-3.2669,-3.2669,-3.2669,-3.2669,-3.2669,-3.2727,-3.2669,-3.2669,-3.2318,-3.2112,-3.2566,-3.2318,-3.1988,-3.1988,-3.1988,-3.1899,-3.1443,-3.136,-3.1215,-3.0739,-3.0677,-3.0512,-3.0056,-2.9994,-2.9994,-2.9994,-2.9994,-2.9622,-2.8669,-2.7779,-2.7496,-2.7883,-2.7055,-2.6604,-2.6604,-2.5709,-2.5189,-2.5189,-2.4735,-2.4507,-2.4507,-2.4507,-2.4507,-2.4507,-2.4507,-2.4507,-4.0634,-4.2331,-4.318,-4.1048,-3.8585,-3.6039,-3.3265,-3.0325,-2.7717,-2.6185,-2.5171,-2.4507,-2.4507,-2.4507,-2.5251,-2.7593,-2.8214,-2.9249,-3.1671,-3.4507,-3.7136,-3.922,-4.378,-4.6844,-4.7258,-4.7527,-4.7361,-4.6535,-4.6349,-4.6266,-4.6266,-4.6057,-4.583,-4.5685,-4.5084,-4.4401,-4.3615,-4.3014,-4.2104,-4.0882,-4.0737,-4.0199,-3.9241,-3.8786,-3.8398,0.0,0.0,0.0,0.0,-3.6121,-3.5832,-3.5418,-3.5418,-3.5418,-3.5418,-3.5418,-3.5418,-3.5418,-3.5418,-3.5335,-3.5169,-3.492,-3.4859,-3.4817,-3.3927,-3.343,-3.312,-3.2809,-3.2669,-3.2669,-3.2669,-3.2669,-3.2669,-3.2669,-3.2566,-3.2504,-3.2649,-3.2566,-3.2463,-3.2463,-3.2463,-3.2318,-3.1919,-3.1836,-3.1671,-3.1215,-3.0884,-3.0636,-3.0491,-3.0201,-2.9994,-2.9994,-2.9704,-2.927,-2.8669,-2.8359,-2.7986,-2.751,-2.7247,-2.6957,-2.6625,-2.6289,-2.5999,-2.5668,-2.5523,-2.5316,-2.4962,-2.4962,-2.4797,-2.4507,-2.4507,-2.4507,-3.639,-3.8295,-3.9268,-3.7839,-3.5976,-3.3989,-3.2064,-2.958,-2.7324,-2.6123,-2.5171,-2.4549,-2.4735,-2.4611,-2.521,-2.7489,-2.7986,-2.8814,-3.0822,-3.3699,-3.6639,-3.9454,-4.4215,-4.7154,-4.6865,-4.7196,-4.7217,-4.6658,-4.637,-4.6266,-4.6266,-4.5933,-4.5602,-4.5436,-4.4981,-4.4381,-4.3615,-4.2973,-4.2249,-4.14,-4.0696,-4.0075,-3.9447,-3.8895,-3.8357,0.0,0.0,0.0,0.0,-3.6121,-3.5832,-3.5418,-3.5418,-3.5418,-3.5418,-3.5418,-3.5418,-3.5418,-3.5418,-3.5418,-3.5376,-3.5107,-3.4962,-3.4797,-3.4238,-3.3741,-3.3285,-3.2851,-3.2669,-3.2669,-3.2669,-3.2669,-3.2669,-3.2669,-3.2669,-3.2669,-3.2669,-3.2669,-3.2669,-3.2669,-3.2669,-3.2644,-3.2297,-3.2235,-3.2147,-3.1692,-3.1236,-3.0884,-3.0719,-3.0284,-2.9994,-2.9994,-2.9746,-2.9373,-2.8918,-2.8711,-2.8442,-2.8048,-2.7696,-2.7386,-2.7096,-2.6744,-2.648,-2.619,-2.6003,-2.5751,-2.5482,-2.5316,-2.5044,-2.4755,-2.4569,-2.4507,0.0,-3.5086,-3.6742,-3.668,-3.5086,-3.3203,-3.1899,-2.929,0.0,-2.6065,-2.515,-2.4652,-2.5189,-2.4879,-2.5024,-2.6579,-2.7226,-2.8284,-3.047,-3.3385,-3.6599,-4.0199,-4.2973,-4.4546,-4.4463,-4.6016,-4.703,-4.6907,-4.6514,-4.6246,-4.6306,-4.5871,-4.5416,-4.496,-4.4463,-4.3987,-4.3511,-4.2642,-4.226,-4.2219,-4.0406,-3.9509,-3.9447,-3.8626,-3.7964,0.0,0.0,0.0,0.0,-3.608,-3.5811,-3.5418,-3.5418,-3.5418,-3.5418,-3.5418,-3.5418,-3.5418,-3.5418,-3.5418,-3.5418,-3.5418,-3.4859,-3.4155,-3.4152,-3.372,-3.3244,-3.2851,-3.2669,-3.2669,-3.2669,-3.2669,-3.2669,-3.2669,-3.2669,-3.2669,-3.2669,-3.2669,-3.2669,-3.2669,-3.2669,-3.2669,-3.2669,-3.2669,-3.2525,-3.2091,-3.1712,-3.1257,-3.0801,-3.0325,-3.0036,-2.9994,-2.9994,-2.9829,-2.9394,-2.8938,-2.8814,-2.9187,-2.84,-2.7903,-2.7883,-2.7076,-2.6667,-2.6667,-2.621,-2.5916,-2.5875,-2.544,-2.5168,-2.5127,-2.4693,-2.4507,-2.7683,0.0,-2.9549,-2.8794,-2.8462,-2.8201,0.0,-2.6744,-2.6041,-2.5502,-2.4879,-2.4838,-2.6041,-2.5606,-2.5933,-2.8731,-2.927,-2.9911,-3.1505,-3.6183,-4.08,-4.4463,-4.6389,-4.701,-4.5975,-4.6575,-4.6803,-4.6452,-4.6328,-4.6202,-4.585,-4.5395,-4.494,-4.4484,-4.3677,-4.3035,-4.258,-4.2094,-4.1545,-4.1193,-4.0427,-3.9889,-3.9447,-3.8957,-3.8253,0.0,0.0,0.0,-3.608,-3.5728,-3.5521,-3.5418,-3.5418,-3.5418,-3.5418,-3.5418,-3.5418,-3.5418,-3.5418,-3.5418,-3.5418,-3.5418,-3.5273,-3.4983,-3.4279,-3.3513,-3.2851,-3.2747,-3.2669,-3.2669,-3.2669,-3.2669,-3.2669,-3.2669,-3.2669,-3.2669,-3.2669,-3.2669,-3.2669,-3.2669,-3.2669,-3.2669,-3.2669,-3.2669,-3.2628,-3.2525,-3.2168,-3.1733,-3.1278,-3.0822,-3.0387,-3.0036,-2.9994,-2.9953,-2.9849,-2.9415,-2.8876,-2.8297,-2.8048,-2.7779,-2.7427,-2.7268,-2.7143,-2.7143,-2.6687,-2.6273,-2.5875,-2.544,-2.5003,-2.4652,-2.4549,-2.4507,-2.5709,-2.6703,-2.7759,-2.7262,-2.7324,-2.7448,-2.72,-2.633,-2.5523,-2.523,-2.4817,-2.4838,-2.6041,-2.5854,-2.6372,-2.8938,-2.9539,-3.0822,-3.4093,-3.8191,-4.2166,-4.5623,-4.6865,-4.7237,-4.6638,-4.6699,-4.6535,-4.6287,-4.6161,-4.5933,-4.5705,-4.5043,-4.4567,-4.4319,-4.3201,-4.26,-4.2559,-4.1897,-4.1441,-4.1193,-4.0323,-3.9785,-3.9447,-3.8854,-3.8274,0.0,0.0,0.0,-3.6701,-3.6018,-3.5728,-3.5707,-3.55,-3.5418,-3.5418,-3.5418,-3.5418,-3.5418,-3.5418,-3.5418,-3.5418,-3.5418,-3.5293,-3.4983,-3.4339,-3.3575,-3.2975,-3.2789,-3.2871,-3.2975,-3.2789,-3.2669,-3.2669,-3.2669,-3.2669,-3.2669,-3.2669,-3.2669,-3.2669,-3.2669,-3.2669,-3.2669,-3.2669,-3.2669,-3.2669,-3.2669,-3.2277,-3.1905,-3.1712,-3.1091,-3.0594,-3.0346,-3.0118,-2.9994,-2.9994,-2.9766,-2.9415,-2.8897,-2.8669,-2.8359,-2.7903,-2.7676,-2.7469,-2.7309,-2.7061,-2.6812,-2.6563,-2.6061,-2.5709,-2.5461,-2.5003,-2.4817,-2.5502,-2.7096,-2.8711,-2.8214,-2.8255,-2.838,-2.8235,-2.6662,-2.5189,-2.5189,-2.4879,-2.4921,-2.5999,-2.631,-2.7034,-2.8938,-2.9911,-3.2292,-3.757,-4.0034,-4.2393,-4.5333,-4.614,-4.6554,-4.6803,-4.6533,-4.6225,-4.6244,-4.5892,-4.5623,-4.5478,-4.4733,-4.4236,-4.4091,-4.289,-4.2414,-4.2704,-4.1876,-4.1421,-4.1358,-4.0116,-3.9426,-3.9344,-3.8564,-3.8191,-3.815,0.0,0.0,-3.7322,-3.639,-3.5997,-3.5976,-3.5645,-3.548,-3.5438,-3.55,-3.548,-3.5418,-3.5418,-3.5418,-3.5418,-3.5418,-3.5169,-3.4837,-3.438,-3.3966,-3.3492,-3.3058,-3.3099,-3.3203,-3.2913,-3.2731,-3.2669,-3.2669,-3.2669,-3.2669,-3.2669,-3.2669,-3.2669,-3.2669,-3.2669,-3.2669,-3.2669,-3.2669,-3.2669,-3.2669,-3.2339,-3.207,-3.1988,-3.1319,-3.076,-3.0698,-3.0263,-2.9994,-2.9994,-2.9994,-2.9994,-2.9994,-2.9559,-2.9063,-2.8524,-2.8131,-2.7717,-2.7309,-2.7309,-2.7268,-2.7206,-2.6812,-2.6584,-2.648,-2.5689,-2.5251,-2.6185,-2.8028,-2.9145,-2.6388,-2.662,-2.7309,-2.6475,-2.5751,-2.5189,-2.5189,-2.5127,-2.5582,-2.7303,-2.8255,-2.9518,-3.1678,-3.4093,-3.7156,-4.1483,-4.2725,-4.3801,-4.5478,-4.643,-4.6658,-4.5954,-4.6161,-4.6182,-4.5809,-4.5726,-4.5333,-4.4546,-4.4381,-4.3946,-4.3159,-4.2559,-4.2177,-4.1772,-4.1255,-4.08,-4.0427,-3.9757,-3.9261,-3.8869,-3.8419,-3.8191,-3.8129,0.0,-3.6908,-3.6825,-3.5914,-3.5521,-3.5562,-3.5873,-3.5769,-3.548,-3.5852,-3.5769,-3.5418,-3.5418,-3.5418,-3.5418,-3.5418,-3.5376,-3.5231,-3.4857,-3.4671,-3.4505,-3.3989,-3.3368,-3.2892,-3.3203,-3.3016,-3.2669,-3.2669,-3.2669,-3.2669,-3.2669,-3.2669,-3.2669,-3.2669,-3.2669,-3.2669,-3.2669,-3.2669,-3.2669,-3.2669,-3.2607,-3.2421,-3.2029,-3.1588,-3.1112,-3.0719,-3.0263,-2.9994,-2.9994,-2.9994,-2.9994,-2.9994,-2.9559,-2.8918,-2.802,-2.7966,-2.7717,-2.7309,-2.7309,-2.7102,-2.6729,-2.6646,-2.6418,-2.5978,-2.5854,-2.5585,-2.573,-2.7324,-2.8524,-2.7008,-2.8276,-2.9539,-2.8359,-2.7365,-2.6718,-2.6966,-2.6868,-2.7096,-2.8421,-3.0222,-3.2499,-3.548,-3.7508,-3.9475,-4.1855,-4.2787,-4.376,-4.5147,-4.5892,-4.6244,-4.6057,-4.6016,-4.5912,-4.5705,-4.5229,-4.465,-4.3967,-4.3698,-4.3242,-4.258,-4.2124,-4.1845,-4.1565,-4.0882,-4.0427,-4.022,-3.9695,-3.922,-3.8765,-3.8398,-3.8191,-3.8129,0.0,-3.6949,-3.7094,-3.5914,-3.5562,-3.579,-3.5749,-3.5604,-3.5438,-3.5666,-3.5604,-3.5418,-3.5418,-3.5418,-3.5418,-3.5418,-3.5418,-3.5335,-3.49,-3.4816,-3.4774,-3.4567,-3.3782,-3.312,-3.3327,-3.3058,-3.2669,-3.2669,-3.2669,-3.2669,-3.2669,-3.2669,-3.2669,-3.2669,-3.2669,-3.2669,-3.2669,-3.2669,-3.2669,-3.2669,-3.2669,-3.2607,-3.238,-3.2023,-3.1567,-3.1112,-3.0636,-3.0263,-3.0015,-2.9994,-2.9994,-2.9994,-2.9559,-2.9001,-2.8317,-2.8048,-2.7717,-2.7309,-2.7309,-2.7206,-2.6978,-2.6978,-2.6874,-2.6667,-2.6418,-2.602,-2.5726,-2.6987,-2.8214,-2.811,-2.9715,-3.1298,-3.0884,-2.9642,-2.8814,-2.9704,-2.9435,-2.927,-2.9973,-3.252,-3.5625,-3.9081,-4.0593,-4.1669,-4.2559,-4.3284,-4.4112,-4.5188,-4.5623,-4.5933,-4.6161,-4.5892,-4.5602,-4.5374,-4.4712,-4.4049,-4.3491,-4.3118,-4.2663,-4.2177,-4.1825,-4.1462,-4.1255,-4.0572,-4.0179,-4.0054,-3.953,-3.9075,-3.8688,-3.8336,-3.8191,-3.8129,-3.7198,-3.7011,-3.7239,-3.5956,-3.5625,-3.5914,-3.5687,-3.5583,-3.5562,-3.5459,-3.5418,-3.5418,-3.5418,-3.5418,-3.5418,-3.5418,-3.5418,-3.5355,-3.5024,-3.4838,-3.4837,-3.4879,-3.4258,-3.3534,-3.3534,-3.3223,-3.2851,-3.2747,-3.2669,-3.2669,-3.2669,-3.2669,-3.2669,-3.2669,-3.2669,-3.2669,-3.2669,-3.2669,-3.2669,-3.2669,-3.2669,-3.2669,-3.2669,-3.2277,-3.1899,-3.1567,-3.1029,-3.0491,-3.0036,-2.9994,-2.9994,-2.9994,-2.9663,-2.9249,-2.8794,-2.8338,-2.7883,-2.7475,-2.7372,-2.7309,-2.7309,-2.7309,-2.7309,-2.7309,-2.6936,-2.6521,-2.7386,-2.8442,-2.9104,-2.8669,-2.9042,-3.0139,-3.2582,-3.1754,-3.1091,-3.3244,-3.2975,-3.2416,-3.2421,-3.5418,-3.875,-4.1545,-4.3491,-4.496,-4.5871,-4.5977,-4.606,-4.6163,-4.6204,-4.614,-4.5768,-4.5705,-4.5333,-4.4463,-4.4339,-4.3905,-4.3014,-4.2932,-4.2518,-4.1721,-4.1586,-4.1172,-4.0323,-4.0261,-3.9943,-3.9509,-3.9055,-3.8667,-3.8233,-3.8191,-3.8191,-3.8129,-3.7198,-3.6825,-3.6784,-3.5811,-3.5438,-3.55,-3.5914,-3.6059,-3.6018,-3.5583,-3.5418,-3.5418,-3.5418,-3.5418,-3.5418,-3.5418,-3.5418,-3.5418,-3.5376,-3.5086,-3.4899,-3.5252,-3.4714,-3.4069,-3.4069,-3.3679,-3.3223,-3.283,-3.2669,-3.2669,-3.2669,-3.2669,-3.2669,-3.2669,-3.2669,-3.2669,-3.2669,-3.2669,-3.2669,-3.2669,-3.2669,-3.2669,-3.2669,-3.2277,-3.1967,-3.1946,-3.1215,-3.0491,-3.0036,-2.9994,-2.9994,-2.9994,-2.9973,-2.9746,-2.927,-2.8814,-2.8338,-2.7883,-2.7469,-2.7309,-2.7309,-2.7309,-2.7309,-2.7309,-2.7268,-2.7019,-2.6517,-2.7738,-2.8835,-2.8649,-2.9808,-3.1505,-3.3368,-3.3513,-3.3948,-3.6515,-3.6763,-3.672,-3.7632,-3.8688,-4.0323,-4.3077,-4.4588,-4.5643,-4.6184,-4.6266,-4.6266,-4.6266,-4.6099,-4.5871,-4.5705,-4.5167,-4.467,-4.4319,-4.376,-4.318,-4.2538,-4.2228,-4.1669,-4.0758,-4.0737,-4.0427,-3.9736,-3.9447,-3.922,-3.9034,-3.8869,-3.8605,-3.8191,-3.8191,-3.8026,-3.7715,-3.7074,-3.6639,-3.6328,-3.5687,-3.5418,-3.5438,-3.5625,-3.5687,-3.5666,-3.548,-3.5418,-3.5418,-3.5418,-3.5418,-3.5418,-3.5418,-3.5418,-3.5418,-3.5418,-3.5314,-3.5211,-3.5376,-3.5169,-3.4838,-3.4629,-3.3948,-3.3348,-3.3161,-3.2934,-3.2669,-3.2669,-3.2669,-3.2669,-3.2669,-3.2669,-3.2669,-3.2669,-3.2669,-3.2669,-3.2669,-3.2669,-3.2669,-3.2669,-3.2525,-3.2297,-3.2008,-3.1236,-3.0615,-3.045,-3.016,-2.9994,-2.9994,-2.9994,-2.9787,-2.9332,-2.9145,-2.869,-2.7875,-2.7759,-2.7531,-2.7309,-2.7309,-2.7309,-2.7309,-2.7309,-2.7061,-2.621,-2.722,-2.84,-2.84,-3.0346,-3.2809,-3.49,-3.5604,-3.6701,-3.9723,-3.9765,-3.9599,-4.0675,-4.0737,-4.1338,-4.3511,-4.5002,-4.5995,-4.6225,-4.6266,-4.6204,-4.6161,-4.5871,-4.5561,-4.5271,-4.467,-4.4174,-4.3884,-4.3284,-4.2663,-4.2136,-4.1607,-4.1007,-4.0261,-4.0096,-3.9716,-3.9261,-3.8931,-3.8703,-3.8647,-3.8502,-3.8253,-3.7964,-3.7964,-3.7715,-3.7239,-3.6784,-3.6411,-3.608,-3.5604,-3.5418,-3.5418,-3.5418,-3.5418,-3.5418,-3.5418,-3.5418,-3.5418,-3.5418,-3.5418,-3.5418,-3.5418,-3.5418,-3.5418,-3.5418,-3.5418,-3.5418,-3.5418,-3.5418,-3.5355,-3.5045,-3.4403,-3.3782,-3.3696,-3.3368,-3.3161,-3.3161,-3.3037,-3.2934,-3.2934,-3.283,-3.2669,-3.2669,-3.2669,-3.2669,-3.2669,-3.2669,-3.2669,-3.2669,-3.2669,-3.2504,-3.2029,-3.1485,-3.1008,-3.0719,-3.0408,-3.016,-2.9994,-2.9994,-2.9849,-2.9539,-2.9373,-2.9001,-2.8359,-2.8069,-2.7779,-2.7469,-2.7372,-2.7309,-2.7309,-2.7309,-2.7143,-2.6853,-2.7241,-2.7875,-2.7896,-3.0314,-3.372,-3.7363,-3.8212,-3.9247,-4.289,-4.1814,-4.0365,-4.082,-4.1276,-4.1876,-4.2787,-4.4857,-4.6266,-4.6266,-4.6266,-4.6182,-4.5726,-4.5664,-4.5312,-4.4381,-4.4298,-4.3905,-4.2973,-4.2911,-4.2497,0.0,-4.111,-4.0655,-4.022,-3.9765,-3.9241,-3.8765,-3.8765,-3.8605,-3.8171,-3.7715,-3.7488,-3.7488,-3.7488,-3.7239,-3.6763,-3.6308,-3.6121,-3.608,-3.5604,-3.5418,-3.5418,-3.5418,-3.5418,-3.5418,-3.5418,-3.5418,-3.5418,-3.5418,-3.5418,-3.5418,-3.5418,-3.5418,-3.5418,-3.5418,-3.5418,-3.5418,-3.5418,-3.5418,-3.5418,-3.5418,-3.5086,-3.4712,-3.4256,-3.4132,-3.4051,-3.4132,-3.3699,-3.3368,-3.3368,-3.3037,-3.2747,-3.2669,-3.2669,-3.2669,-3.2669,-3.2669,-3.2669,-3.2669,-3.2669,-3.2504,-3.205,-3.1988,-3.1671,-3.0781,-3.0698,-3.0491,-3.0036,-2.9994,-2.9994,-2.9994,-2.9559,-2.9311,-2.9311,-2.84,-2.7875,-2.7924,-2.7489,-2.7309,-2.7309,-2.7309,-2.7309,-2.6853,-2.7241,-2.8235,-2.9539,-3.2499,-3.5894,-3.8916,-3.9599,-4.0717,-4.4712,-4.4236,-4.3221,-4.3698,-4.3346,-4.3201,-4.3801,-4.5022,-4.5892,-4.5892,-4.5892,-4.5705,-4.525,-4.4919,-4.4484,-4.3884,-4.3532,-4.3097,-4.2497,-4.1855,-4.1358,0.0,-4.0344,-3.9723,-3.9199,-3.9055,-3.8688,-3.7902,-3.7902,-3.7674,-3.7218,-3.7074,-3.7177,-3.7488,-3.7156,-3.6763,-3.6308,-3.6163,-3.5935,-3.5625,-3.548,-3.5418,-3.5418,-3.5418,-3.5418,-3.5418,-3.5418,-3.5418,-3.5418,-3.5418,-3.5418,-3.5418,-3.5418,-3.5418,-3.5418,-3.5418,-3.5418,-3.5418,-3.5418,-3.5418,-3.5418,-3.5418,-3.5314,-3.5107,-3.4652,-3.4111,-3.3679,-3.4049,-3.3699,-3.3368,-3.3368,-3.3265,-3.3078,-3.2789,-3.2669,-3.2669,-3.2669,-3.2669,-3.2669,-3.2669,-3.2669,-3.2628,-3.2483,-3.2173,-3.1884,-3.165,-3.105,-3.0636,-3.0491,-3.018,-2.9994,-2.9994,-2.987,-2.9642,-2.9311,-2.9042,-2.8731,-2.84,-2.7945,-2.7717,-2.7717,-2.7455,-2.7309,-2.7386,-2.7903,-2.9042,-3.1443,-3.4507,-3.7798,-4.1069,-4.2249,-4.3387,-4.6078,-4.554,-4.4712,-4.5188,-4.4505,-4.4029,-4.4505,-4.5354,-4.5892,-4.5705,-4.5685,-4.5374,-4.4546,-4.4194,-4.378,-4.3139,-4.2828,-4.2393,-4.1752,-4.1193,0.0,0.0,-3.9661,-3.9075,-3.8786,-3.86,-3.8233,-3.7508,-3.7488,-3.726,-3.6804,-3.6618,-3.668,-3.6929,-3.666,-3.6287,-3.5832,-3.5832,-3.5687,-3.5418,-3.5418,-3.5418,-3.5418,-3.5418,-3.5418,-3.5418,-3.5418,-3.5418,-3.5418,-3.5418,-3.5418,-3.5418,-3.5418,-3.5418,-3.5418,-3.5418,-3.5418,-3.5418,-3.5418,-3.5418,-3.5418,-3.5418,-3.5418,-3.5355,-3.5086,-3.459,-3.4258,-3.4548,-3.4238,-3.3865,-3.3679,-3.3658,-3.3451,-3.283,-3.2871,-3.2934,-3.2747,-3.2669,-3.2669,-3.2669,-3.2669,-3.2669,-3.2669,-3.2421,-3.2173,-3.2008,-3.1547,-3.1071,-3.0719,-3.0429,-3.018,-2.9994,-2.9994,-2.987,-2.958,-2.9394,-2.9166,-2.8897,-2.8421,-2.811,-2.7924,-2.7841,-2.7662,-2.8255,-2.9021,-3.0243,-3.3596,-3.6639,-3.9806,-4.3615,-4.5478,-4.6432,-4.6906,-4.6016,-4.5312,-4.5726,-4.5084,-4.4629,-4.5043,-4.5809,-4.6182,-4.5685,-4.5623,-4.5105,-4.3718,-4.3553,-4.3201,-4.2364,-4.2239,-4.1772,-4.0882,-4.0737,0.0,0.0,-3.8931,-3.8662,-3.8662,-3.8336,-3.7881,-3.7384,-3.7405,-3.7177,-3.668,-3.6246,-3.6059,-3.6059,-3.6059,-3.5811,-3.5418,-3.5418,-3.5418,-3.5418,-3.5418,-3.5418,-3.5418,-3.5418,-3.5418,-3.5418,-3.5418,-3.5418,-3.5418,-3.5418,-3.5418,-3.5418,-3.5418,-3.5418,-3.5418,-3.5418,-3.5418,-3.5418,-3.5418,-3.5418,-3.5418,-3.5418,-3.5418,-3.5418,-3.5418,-3.5397,-3.5376,-3.5418,-3.5066,-3.4691,-3.4277,-3.4194,-3.3844,-3.2934,-3.312,-3.3223,-3.2789,-3.2669,-3.2669,-3.2669,-3.2669,-3.2669,-3.2669,-3.2669,-3.2504,-3.2091,-3.2008,-3.1671,-3.0801,-3.0719,-3.047,-3.0015,-2.9994,-2.9994,-2.9994,-2.958,-2.9373,-2.9373,-2.8897,-2.8462,-2.8048,-2.8442,-2.8173,-2.8338,-2.9477,-3.1505,-3.6142,-4.0448,-4.3946,-4.554,-4.6409,-4.6721,-4.6554,-4.6554,-4.6637,-4.672,-4.6285,-4.5933,-4.6037,-4.6223,-4.6057,-4.525,-4.5147,-4.4629,-4.3242,-4.3077,-4.2704,-4.1814,-4.1379,-4.0944,-4.0406,0.0,0.0,-3.8931,-3.8233,-3.7777,-3.7777,-3.7695,-3.7239,-3.6411,-3.6763,-3.6535,0.0,-3.5625,-3.5562,-3.5562,-3.5562,-3.5521,-3.5418,-3.5418,-3.5418,-3.5418,-3.5418,-3.5418,-3.5418,-3.5418,-3.5418,-3.5418,-3.5418,-3.5418,-3.5418,-3.5418,-3.5418,-3.5418,-3.5418,-3.5418,-3.5418,-3.5418,-3.5418,-3.5418,-3.5418,-3.5418,-3.5418,-3.5418,-3.5418,-3.5418,-3.5418,-3.5148,-3.5004,-3.5335,-3.5066,-3.4795,-3.4691,-3.4671,-3.438,-3.3389,-3.3306,-3.3223,-3.2789,-3.2669,-3.2669,-3.2669,-3.2669,-3.2669,-3.2669,-3.2669,-3.2628,-3.2545,-3.2194,-3.1816,-3.1257,-3.0884,-3.047,-3.0015,-2.9994,-2.9994,-2.9994,-2.9891,-2.9849,-2.9849,-2.9373,-2.9104,-2.9001,-2.8731,-2.8504,-2.8794,-3.045,-3.3037,-3.8709,-4.2745,-4.5498,-4.6182,-4.6452,-4.6637,-4.6308,-4.6638,-4.6968,-4.674,-4.6432,-4.6266,-4.6266,-4.6161,-4.5788,-4.5084,-4.4608,-4.3905,-4.2745,-4.2414,-4.1917,-4.1007,-4.0717,-4.0282,-3.955,0.0,-3.844,-3.8212,-3.7529,-3.7156,-3.7156,-3.7156,-3.6825,-3.6121,-3.6349,-3.6018,-3.5107,-3.5107,-3.5107,-3.5107,-3.5314,-3.5418,-3.5418,-3.5418,-3.5418,-3.5418,-3.5418,-3.5418,-3.5418,-3.5418,-3.5418,-3.5418,-3.5418,-3.5418,-3.5418,-3.5418,-3.5418,-3.5418,-3.5418,-3.5418,-3.5418,-3.5418,-3.5418,-3.5418,-3.5418,-3.5418,-3.5418,-3.5418,-3.5418,-3.5418,-3.5418,-3.5252,-3.5128,-3.5376,-3.5252,-3.5004,-3.4857,-3.4816,-3.4588,-3.3883,-3.3513,-3.3306,-3.3078,-3.2871,-3.2809,-3.3016,-3.2851,-3.2669,-3.2669,-3.2669,-3.2669,-3.2669,-3.2463,-3.2168,-3.1712,-3.1464,-3.1029,-3.0346,-3.0325,-3.0222,-2.9994,-2.9994,-2.9994,-2.9994,-2.9746,-2.9518,-2.9311,-2.929,-2.9042,-2.8938,-3.1547,-3.4962,-4.08,-4.3925,-4.5705,-4.6223,-4.6266,-4.6266,-4.6266,-4.6576,-4.6803,-4.6328,-4.6266,-4.6246,-4.6244,-4.5933,-4.5457,-4.4836,-4.4091,-4.3242,-4.2249,-4.1731,-4.1131,-4.0303,-4.0075,-3.9682,0.0,0.0,-3.7984,-3.7529,-3.7053,-3.6763,-3.668,-3.668,-3.6432,-3.5894,-3.5956,-3.5542,-3.4691,-3.4691,-3.4691,-3.4712,-3.5107,-3.5355,-3.5418,-3.5418,-3.5418,-3.5418,-3.5418,-3.5418,-3.5418,-3.5418,-3.5418,-3.5418,-3.5418,-3.5418,-3.5418,-3.5418,-3.5418,-3.5418,-3.5418,-3.5418,-3.5418,-3.5418,-3.5418,-3.5418,-3.5418,-3.5418,-3.5418,-3.5418,-3.5418,-3.5418,-3.5418,-3.5418,-3.5418,-3.5418,-3.5418,-3.5314,-3.4941,-3.4878,-3.4671,-3.4214,-3.38,-3.3472,-3.3389,-3.3078,-3.2996,-3.343,-3.3037,-3.2747,-3.283,-3.2768,-3.2669,-3.2669,-3.2669,-3.2483,-3.2008,-3.1988,-3.1671,-3.0843,-3.0719,-3.0512,-3.0118,-3.0036,-2.9994,-2.9994,-2.9994,-2.9808,-2.9435,-2.9829,-2.958,-2.7676,-3.2437,-3.7715,-4.1358,-4.3677,-4.5312,-4.6161,-4.6266,-4.6266,-4.6266,-4.6308,-4.6349,-4.6287,-4.6266,-4.6223,-4.583,-4.5726,-4.525,-4.3967,-4.3698,-4.3139,-4.1814,-4.1255,-4.0779,-4.0282,-3.9426,-3.891,0.0,-3.844,-3.7984,-3.7529,-3.7053,-3.6618,-3.6225,-3.6204,-3.579,-3.5002,-3.5314,-3.5066,-3.4155,-3.4155,-3.4155,-3.4235,-3.4691,-3.5066,-3.5418,-3.5418,-3.5418,-3.5418,-3.5418,-3.5418,-3.5418,-3.5418,-3.5418,-3.5418,-3.5418,-3.5418,-3.5418,-3.5418,-3.5418,-3.5418,-3.5418,-3.5418,-3.5418,-3.5418,-3.5418,-3.5418,-3.5418,-3.5418,-3.5418,-3.5418,-3.5418,-3.5418,-3.5418,-3.5418,-3.5418,-3.5418,-3.5418,-3.5397,-3.5335,-3.5024,-3.4671,-3.4214,-3.4069,-3.3844,-3.343,-3.3327,-3.3451,-3.3986,-3.3244,-3.2871,-3.3244,-3.2954,-3.2669,-3.2669,-3.2669,-3.2483,-3.2008,-3.1988,-3.1816,-3.1298,-3.0905,-3.0657,-3.0594,-3.0201,-2.9994,-2.9994,-2.9994,-2.9973,-2.9911,-2.9973,-2.9932,-2.9198,-3.3037,-3.6908,-4.0954,-4.2849,-4.4215,-4.5643,-4.5768,-4.5664,-4.5912,-4.5561,-4.5354,-4.5871,-4.5975,-4.5747,-4.5022,-4.4691,-4.4215,-4.3346,-4.2787,-4.2249,-4.1648,-4.0944,-4.0344,-3.9889,-3.9019,-3.8357,0.0,-3.7425,-3.6929,-3.6722,-3.6287,-3.5935,-3.5728,-3.548,-3.5169,-3.4816,-3.4693,-3.4341,-3.3738,-3.3738,-3.3738,-3.3699,-3.4155,-3.4631,-3.5066,-3.5314,-3.5418,-3.5418,-3.5418,-3.5418,-3.5418,-3.5418,-3.5418,-3.5418,-3.5418,-3.5418,-3.5418,-3.5418,-3.5418,-3.5418,-3.5418,-3.5418,-3.5418,-3.5418,-3.5418,-3.5418,-3.5418,-3.5418,-3.5418,-3.5418,-3.5418,-3.5418,-3.5418,-3.5418,-3.5418,-3.5418,-3.5418,-3.5355,-3.5107,-3.5086,-3.49,-3.4196,-3.4339,-3.4443,-3.4235,-3.3986,-3.3986,-3.4463,-3.3658,-3.3161,-3.3348,-3.2996,-3.2669,-3.2669,-3.2669,-3.2587,-3.238,-3.238,-3.2173,-3.1774,-3.1547,-3.1195,-3.0698,-3.0243,-2.9994,-2.9994,-2.9994,-2.9994,-2.9994,-2.9994,-2.9994,-2.9281,-3.1899,-3.4383,-3.8605,-4.0862,-4.2518,-4.4236,-4.4629,-4.4733,-4.5084,-4.4608,-4.4298,-4.4877,-4.5084,-4.4898,-4.4091,-4.3656,-4.3242,-4.2663,-4.2,-4.1483,-4.1255,-4.053,-3.9868,-3.9344,-3.8543,-3.786,0.0,-3.6742,-3.6246,-3.6121,-3.5666,-3.5376,-3.5252,-3.4817,-3.4588,-3.4463,-3.3948,-3.3555,-3.3223,-3.3223,-3.3223,-3.3223,-3.3679,-3.4132,-3.4505,-3.5004,-3.519,-3.5086,-3.5211,-3.5252,-3.5252,-3.5252,-3.5314,-3.5418,-3.5418,-3.5418,-3.5418,-3.5418,-3.5418,-3.5418,-3.5418,-3.5418,-3.5418,-3.5418,-3.5418,-3.5418,-3.5418,-3.5418,-3.5418,-3.5418,-3.5418,-3.5418,-3.5418,-3.5418,-3.5418,-3.5418,-3.5418,-3.5314,-3.4983,-3.519,-3.5169,-3.4443,-3.4631,-3.49,-3.4837,-3.4526,-3.4403,-3.4859,-3.4113,-3.3596,-3.372,-3.3327,-3.3016,-3.2913,-3.2892,-3.2851,-3.2747,-3.2669,-3.2525,-3.2173,-3.205,-3.1671,-3.0884,-3.0408,-3.0118,-2.9994,-2.9994,-2.9994,-2.9994,-2.9994,-2.9994,-2.5668,-2.7862,-3.0367,-3.3637,-3.7115,-4.0075,-4.1462,-4.2766,-4.3698,-4.3718,-4.3677,-4.3532,-4.3139,-4.3428,-4.3553,-4.3077,-4.2973,-4.2642,-4.1772,-4.1607,-4.1255,-4.0406,-3.9868,-3.9323,-3.8869,-3.8067,-3.7529,0.0,-3.7032,-3.6577,-3.6142,-3.5666,-3.5231,-3.4857,-3.4401,-3.3886,-3.3451,-3.3016,-3.2789,-3.2768,-3.2768,-3.2768,-3.2768,-3.3223,-3.343,-3.3492,-3.4463,-3.4608,-3.4176,-3.4671,-3.4857,-3.4857,-3.4857,-3.5045,-3.5418,-3.5418,-3.5418,-3.5418,-3.5418,-3.5418,-3.5418,-3.5418,-3.5418,-3.5418,-3.5418,-3.5418,-3.5418,-3.5418,-3.5418,-3.5418,-3.5418,-3.5418,-3.5418,-3.5418,-3.5418,-3.5418,-3.5418,-3.5418,-3.5418,-3.5397,-3.5397,-3.5273,-3.4857,-3.5086,-3.5252,-3.4878,-3.4795,-3.4879,-3.5335,-3.459,-3.4256,-3.4691,-3.4339,-3.3824,-3.3389,-3.3348,-3.3161,-3.2747,-3.2669,-3.2669,-3.2628,-3.2215,-3.1816,-3.136,-3.0884,-3.0429,-2.9994,-2.9994,-2.9994,-2.9994,-2.9994,-2.9994,-2.4807,-2.6496,-2.8551,-3.1905,-3.4403,-3.6535,-3.8502,-4.0013,-4.1151,-4.1731,-4.1855,-4.1897,-4.2021,-4.2663,-4.2932,-4.2166,-4.2062,-4.1731,-4.0841,-4.0717,-4.0468,-3.9868,-3.9302,-3.8724,-3.8046,-3.7156,-3.6494,0.0,0.0,-3.5418,-3.5252,-3.5086,-3.4797,-3.438,-3.3596,-3.2851,-3.2106,-3.223,-3.2235,-3.2235,-3.2235,-3.238,-3.2747,-3.2892,-3.2954,-3.2996,-3.3596,-3.4173,-3.4588,-3.4754,-3.4921,-3.5148,-3.492,-3.5024,-3.5418,-3.5418,-3.5418,-3.5418,-3.5418,-3.5418,-3.5418,-3.5418,-3.5418,-3.5418,-3.5418,-3.5418,-3.5418,-3.5418,-3.5418,-3.5418,-3.5418,-3.5645,-3.5873,-3.5873,-3.5645,-3.5418,-3.5418,-3.5418,-3.5418,-3.5418,-3.5418,-3.5376,-3.5211,-3.5314,-3.5376,-3.5211,-3.519,-3.5252,-3.5397,-3.49,-3.4629,-3.4795,-3.4401,-3.3945,-3.341,-3.3368,-3.3182,-3.2747,-3.2669,-3.2669,-3.2669,-3.2525,-3.2147,-3.1381,-3.1215,-3.076,-2.9994,-2.9994,-2.9994,-2.9994,-2.9994,-2.9994,-2.3674,-2.4985,-2.6744,-2.9908,-3.1581,-3.3182,-3.581,-3.7215,-3.8274,-3.9495,-3.9868,-4.0158,-4.0779,-4.1379,-4.1628,-4.1172,-4.0986,-4.0613,-3.9868,-3.9695,-3.9537,-3.8916,-3.8585,-3.8026,-3.7115,-3.6328,-3.5687,0.0,0.0,0.0,-3.4588,-3.4443,-3.401,-3.341,-3.2809,-3.2147,-3.1381,-3.1671,-3.1816,-3.1816,-3.1816,-3.2064,-3.2442,-3.2442,-3.2525,-3.2747,-3.3182,-3.372,-3.436,-3.436,-3.4652,-3.5148,-3.4693,-3.49,-3.5418,-3.5418,-3.5418,-3.5418,-3.5418,-3.5418,-3.5418,-3.5418,-3.5418,-3.5418,-3.5418,-3.5418,-3.5418,-3.5418,-3.5418,-3.5418,-3.5418,-3.5645,-3.5914,-3.608,-3.5769,-3.5418,-3.5418,-3.5294,-3.5294,-3.5356,-3.5294,-3.5294,-3.5356,-3.5418,-3.5418,-3.5418,-3.5418,-3.5418,-3.5418,-3.5169,-3.4983,-3.4983,-3.4714,-3.4341,-3.3945,-3.3758,-3.341,-3.2975,-3.2809,-3.2669,-3.2669,-3.2669,-3.2375,-3.1609,-3.1609,-3.1153,-3.0222,-3.0077,-2.9994,-2.9994,-2.9994,-2.9994,0.0,0.0,0.0,-2.7313,-2.8583,-3.0013,-3.3346,-3.4367,-3.5189,-3.697,-3.7736,-3.8357,-3.922,-3.9385,-3.9578,-3.9992,-3.9765,-3.9282,-3.8827,-3.8745,-3.8481,-3.757,-3.7446,-3.7094,-3.6142,-3.5645,0.0,0.0,-3.436,-3.4111,-3.4111,-3.3596,-3.2934,-3.1988,-3.1967,-3.1795,-3.134,-3.136,-3.136,-3.136,-3.136,-3.1609,-3.1988,-3.1988,-3.2235,-3.2747,-3.3182,-3.3368,-3.3368,-3.3389,-3.3948,-3.4795,-3.4318,-3.4631,-3.5418,-3.5418,-3.5418,-3.5418,-3.5418,-3.5418,-3.5418,-3.5418,-3.5418,-3.5418,-3.5356,-3.5418,-3.5418,-3.5356,-3.5438,-3.5438,-3.548,-3.5459,-3.548,-3.6018,-3.5769,-3.5418,-3.5418,-3.5108,-3.4984,-3.5294,-3.5108,-3.4984,-3.5356,-3.5418,-3.5418,-3.5418,-3.5418,-3.5418,-3.5418,-3.5418,-3.5418,-3.5418,-3.5418,-3.5252,-3.4857,-3.4401,-3.3886,-3.341,-3.2975,-3.269,-3.2669,-3.2669,-3.2463,-3.1988,-3.1988,-3.1609,-3.0698,-3.0243,-3.0015,-2.9994,-2.9994,-2.9994,-2.171,0.0,0.0,0.0,0.0,0.0,-2.8342,-2.9797,-3.1422,-3.3596,-3.4672,-3.5687,-3.726,-3.7281,-3.7094,-3.7218,-3.8253,-3.8807,-3.844,-3.8088,-3.7529,-3.6597,-3.6494,-3.5997,-3.4755,0.0,0.0,0.0,-3.3637,-3.3575,-3.3575,-3.283,-3.2147,-3.1567,-3.1567,-3.1174,-3.0387,-3.0719,-3.0884,-3.0884,-3.0884,-3.1278,-3.1988,-3.1988,-3.2235,-3.2747,-3.2851,-3.3078,-3.341,-3.3741,-3.4403,-3.519,-3.4734,-3.4921,-3.5418,-3.5418,-3.5418,-3.5418,-3.5418,-3.5418,-3.5418,-3.5418,-3.5418,-3.5356,-3.5108,-3.5232,-3.5356,-3.5108,-3.5479,-3.608,-3.6742,-3.5994,-3.5313,-3.6368,-3.5997,-3.5418,-3.5418,-3.5108,-3.4922,-3.5046,-3.4984,-3.4922,-3.5046,-3.5232,-3.5418,-3.5418,-3.5418,-3.5418,-3.5418,-3.5418,-3.5418,-3.5418,-3.5418,-3.5252,-3.4857,-3.4691,-3.4277,-3.343,-3.3265,-3.3058,-3.269,-3.2669,-3.2463,-3.1988,-3.1988,-3.1754,-3.1195,-3.0719,-3.0325,-2.9994,-2.9994,-2.9889,-2.1964,-2.2489,-2.342,-2.4233,0.0,0.0,-2.6516,-2.729,-2.8255,-3.0532,-3.1588,-3.2644,-3.4486,-3.4755,-3.4817,-3.519,-3.6163,-3.6825,-3.6763,-3.6535,-3.608,-3.5335,-3.5252,-3.4879,-3.3886,-3.3841,-3.3596,-3.3141,-3.3099,-3.3099,-3.3099,-3.2437,-3.1836,-3.1381,-3.1195,-3.0739,-2.9994,-3.0263,-3.0408,-3.0408,-3.0408,-3.0884,-3.1754,-3.1754,-3.2126,-3.2669,-3.2669,-3.2975,-3.3389,-3.3717,-3.4196,-3.4838,-3.4569,-3.4755,-3.5169,-3.5355,-3.5418,-3.5418,-3.5418,-3.5418,-3.5418,-3.5418,-3.5294,-3.517,-3.4984,-3.4922,-3.4984,-3.4922,-3.5251,-3.5745,-3.6529,-3.572,-3.498,-3.6031,-3.5704,-3.517,-3.517,-3.4922,-3.4735,-3.4859,-3.4797,-3.4735,-3.4859,-3.5046,-3.5232,-3.5356,-3.5418,-3.5418,-3.5418,-3.5418,-3.5418,-3.5418,-3.5418,-3.5314,-3.5066,-3.492,-3.4588,-3.4049,-3.3596,-3.3265,-3.3016,-3.2715,-3.2431,-3.2164,-3.1973,-3.1748,-3.1484,-3.114,-3.0739,-3.0284,-3.0077,-2.9942,-2.2774,-2.2986,-2.3797,-2.5197,-2.4527,0.0,-2.6431,-2.608,-2.583,-2.7903,-2.8669,-2.9539,-3.1285,-3.1988,-3.2602,-3.3348,-3.3596,-3.3948,-3.4712,-3.4714,-3.4507,-3.4051,-3.3989,-3.3803,-3.3348,-3.3306,-3.3141,-3.2747,-3.2669,-3.2669,-3.2669,-3.2194,-3.1795,-3.1381,-3.0884,-3.0408,-2.9994,-2.9994,-2.9994,-2.9942,-2.9983,-3.0479,-3.1326,-3.1368,-3.1808,-3.2612,-3.2612,-3.2897,-3.3306,-3.3306,-3.3637,-3.4194,-3.4194,-3.4484,-3.4879,-3.5273,-3.5418,-3.5418,-3.5418,-3.5356,-3.5356,-3.5356,-3.5108,-3.4859,-3.4797,-3.461,-3.4506,-3.4858,-3.4962,-3.5044,-3.5554,-3.5037,-3.4606,-3.5367,-3.5185,-3.4922,-3.4922,-3.4673,-3.4548,-3.4797,-3.4548,-3.4423,-3.4735,-3.4859,-3.4984,-3.5232,-3.5294,-3.5356,-3.5294,-3.5294,-3.5356,-3.5356,-3.5356,-3.5356,-3.5418,-3.5066,-3.4817,-3.4816,-3.4049,-3.3513,-3.3451,-3.2728,-3.2387,-3.2387,-3.1981,-3.1758,-3.1692,-3.1498,-3.1174,-3.0686,-3.0272,-3.0086,-2.4408,-2.4743,-2.4927,-2.4711,-2.5148,0.0,-2.4257,-2.4921,-2.5875,-2.633,-2.6786,-2.7552,-2.9021,-2.9663,-2.9859,-2.9497,-3.0273,-3.1825,-3.4424,-3.4264,-3.3674,-3.3202,-3.3161,-3.2977,-3.2547,-3.2736,-3.283,-3.2747,-3.2669,-3.2669,-3.2669,-3.1961,-3.1464,-3.1381,-3.0574,-3.0098,-2.9994,-2.9994,-2.9889,-2.9659,-2.9995,-3.0357,-3.0701,-3.101,-3.1455,-3.196,-3.2248,-3.2424,-3.2564,-3.2736,-3.3555,-3.4691,-3.4691,-3.49,-3.5293,-3.5397,-3.5418,-3.5418,-3.5418,-3.5232,-3.4984,-3.4984,-3.4797,-3.4423,-3.4173,-3.4235,-3.4566,-3.5245,-3.5207,-3.5105,-3.5942,-3.5281,-3.4544,-3.505,-3.506,-3.4922,-3.4922,-3.4859,-3.4735,-3.4548,-3.4235,-3.4047,-3.411,-3.4548,-3.4859,-3.461,-3.4797,-3.4922,-3.461,-3.4859,-3.4984,-3.4984,-3.4984,-3.5108,-3.5356,-3.5088,-3.4882,-3.4776,-3.465,-3.438,-3.4007,-3.32,-3.2779,-3.2779,-3.2142,-3.192,-3.2183,-3.1663,-3.121,-3.0867,-3.0785,-3.0744,-2.5137,-2.511,-2.5179,-2.5491,-2.5375,0.0,0.0,-2.4279,-2.4385,-2.5068,-2.4861,-2.5026,-2.662,-2.7117,-2.7379,-2.7716,-2.8489,-2.9723,-3.1608,-3.1983,-3.1994,-3.1921,-3.1787,-3.1649,-3.1595,-3.1778,-3.1978,-3.2148,-3.2262,-3.2235,-3.2064,-3.1402,-3.1029,-3.1029,-3.0367,-2.9994,-2.9994,-2.9889,-2.9711,-2.9606,-2.9639,-2.9823,-3.0158,-3.06,-3.1043,-3.1466,-3.2031,-3.219,-3.2076,-3.2383,-3.2974,-3.3675,-3.408,-3.4307,-3.4553,-3.5005,-3.517,-3.517,-3.517,-3.4922,-3.4673,-3.4673,-3.4423,-3.411,-3.3922,-3.4047,-3.4213,-3.4622,-3.4584,-3.4524,-3.4986,-3.4512,-3.3981,-3.4389,-3.4584,-3.4673,-3.4673,-3.4673,-3.4548,-3.4235,-3.3859,-3.367,-3.3859,-3.4173,-3.4485,-3.461,-3.4673,-3.4673,-3.4673,-3.4797,-3.4922,-3.4922,-3.5046,-3.517,-3.517,-3.517,-3.5067,-3.4862,-3.4818,-3.4712,-3.4484,-3.3672,-3.3028,-3.2451,-3.2054,-3.1834,-3.1787,-3.1686,-3.1472,-3.1227,-3.0837,-3.066,-2.6426,-2.6143,-2.6211,-2.6735,-2.6132,-2.5351,0.0,0.0,0.0,-2.4091,-2.3433,-2.3207,-2.4732,-2.5021,-2.5351,-2.6388,0.0,0.0,0.0,-2.9027,0.0,-3.0486,-3.0275,0.0,-3.0628,-3.0666,-3.0888,-3.1376,-3.1456,-3.1457,-3.1326,-3.0818,-3.057,-3.0624,-3.0116,-2.9837,-2.9837,-2.9606,-2.9501,-2.9396,-2.9212,-2.9293,-2.9653,-3.0093,-3.0534,-3.0974,-3.1677,-3.1879,-3.173,-3.2076,-3.2241,-3.2332,-3.3192,-3.3576,-3.3759,-3.4554,-3.4859,-3.4797,-3.4859,-3.461,-3.4298,-3.4298,-3.411,-3.3796,-3.3796,-3.3859,-3.3922,-3.3922,-3.3922,-3.3985,-3.3922,-3.367,-3.3544,-3.3733,-3.4047,-3.4298,-3.4298,-3.4298,-3.4235,-3.3922,-3.3607,-3.3481,-3.3733,-3.3859,-3.4047,-3.4548,-3.4423,-3.436,-3.461,-3.4673,-3.4735,-3.4735,-3.4984,-3.5108,-3.4859,-3.5046,-3.5108,-3.4797,-3.478,-3.4697,-3.4697,-3.4023,-3.3155,-3.2058,-3.2038,-3.182,-3.1463,-3.1538,-3.1606,-3.1527,-3.0882,-3.0589,-3.0059,-3.0469,-3.0174,-2.789,-2.8628,-2.8847,-2.4464,0.0,-2.5542,-2.3725,0.0,-2.3766,-2.4247,0.0,0.0,-2.3984,0.0,0.0,-2.4987,-2.6046,-2.7472,-2.9164,-2.8816,0.0,0.0,-2.9457,-2.957,-3.057,-3.014,-3.0158,-3.0915,-3.0309,-3.0012,-3.0261,-2.9566,-2.9185,-2.9185,-2.9185,-2.9026,-2.8781,-2.9178,-2.9213,-2.9055,-2.9486,-2.9917,-3.0309,-3.073,-3.1025,-3.1383,-3.173,-3.1692,-3.1541,-3.2714,-3.3417,-3.3882,-3.4614,-3.4735,-3.4485,-3.4797,-3.4485,-3.3985,-3.3985,-3.3733,-3.3481,-3.3481,-3.367,-3.3922,-3.3922,-3.411,-3.4298,-3.3985,-3.3859,-3.3796,-3.3544,-3.3733,-3.3985,-3.3985,-3.3985,-3.3922,-3.3922,-3.3607,-3.3418,-3.3418,-3.367,-3.3796,-3.3607,-3.3796,-3.3859,-3.3607,-3.3859,-3.3985,-3.3985,-3.4298,-3.4485,-3.4485,-3.4485,-3.4485,-3.4485,-3.4445,-3.4467,-3.4467,-3.4002,-3.3254,-3.2231,-3.2078,-3.1959,-3.1919,-3.1309,-3.115,-3.1303,-3.1263,-3.1186,-3.0449,-3.0625,-3.0332,-2.8682,0.0,0.0,-2.5133,0.0,-2.4847,0.0,0.0,0.0,0.0,0.0,0.0,0.0,-2.4563,0.0,0.0,0.0,-2.5605,0.0,0.0,0.0,0.0,0.0,0.0,0.0,-2.8737,-2.8993,-2.9329,-2.9326,-2.9363,-2.9553,-2.9285,-2.9079,-2.9079,-2.894,-2.8834,-2.8674,-2.8745,-2.8682,-2.8574,-2.9004,-2.9297,-2.9473,-3.0339,-3.0675,-3.0718,-3.1283,-3.1325,-3.1113,-3.19,-3.2594,-3.3254,-3.4037,-3.4235,-3.411,-3.4298,-3.3985,-3.3607,-3.3607,-3.3481,-3.3418,-3.3418,-3.3481,-3.3607,-3.3607,-3.3733,-3.3796,-3.367,-3.3607,-3.3544,-3.3418,-3.367,-3.3922,-3.3922,-3.3922,-3.3922,-3.3922,-3.3607,-3.3496,-3.375,-3.3721,-3.3607,-3.367,-3.367,-3.3607,-3.367,-3.3796,-3.3922,-3.3922,-3.4173,-3.4423,-3.4423,-3.4423,-3.4423,-3.4423,-3.4423,-3.4423,-3.4423,-3.4242,-3.3775,-3.2846,-3.277,-3.2553,-3.2135,-3.1779,-3.1563,-3.1407,-3.1172,-3.1054,-3.1211,0.0,0.0,0.0,0.0,0.0,0.0,0.0,0.0,0.0,0.0,0.0,0.0,0.0,-2.4115,-2.4393,0.0,-2.4331,0.0,-2.3779,0.0,0.0,0.0,0.0,0.0,0.0,0.0,0.0,0.0,-2.7557,-2.7773,-2.8218,-2.856,-2.8825,-2.886,-2.8867,-2.8867,-2.8674,-2.8568,-2.8568,-2.8408,-2.8301,-2.8301,-2.8613,-2.8809,-2.8965,-2.9951,-3.0325,-3.0234,-3.0915,-3.1054,-3.0937,-3.1348,-3.1838,-3.2453,-3.3426,-3.376,-3.3796,-3.3859,-3.367,-3.3418,-3.3418,-3.3418,-3.3418,-3.3418,-3.3418,-3.3418,-3.3418,-3.3418,-3.3418,-3.3418,-3.3418,-3.3418,-3.3418,-3.3607,-3.3733,-3.3733,-3.3733,-3.3733,-3.3733,-3.3544,-3.3516,-3.3848,-3.3633,-3.3559,-3.4049,-3.3701,-3.352,-3.3911,-3.3812,-3.3733,-3.3733,-3.4047,-3.4235,-3.411,-3.4235,-3.4235,-3.411,-3.411,-3.411,-3.411,-3.4235,-3.397,-3.3342,-3.3285,-3.3006,-3.2344,-3.2226,-3.2012,-3.168,-3.1269,-3.0996,0.0,0.0,0.0,-2.9766,0.0,0.0,0.0,0.0,-2.6543,0.0,0.0,0.0,0.0,-2.5674,-2.5119,-2.4516,-2.442,0.0,0.0,0.0,0.0,0.0,0.0,0.0,0.0,0.0,0.0,0.0,0.0,0.0,-2.6804,-2.7201,-2.7657,-2.8125,-2.8278,-2.8354,-2.8354,-2.8301,-2.8281,-2.8281,-2.8301,-2.8301,-2.8301,-2.8301,-2.8535,-2.8945,-2.9394,-2.9824,-3.0234,-3.0703,-3.0898,-3.0937,-3.1348,-3.1523,-3.17,-3.2868,-3.3378,-3.3481,-3.3796,-3.367,-3.3418,-3.3418,-3.3418,-3.3418,-3.3418,-3.3418,-3.3418,-3.3418,-3.3418,-3.3418,-3.3418,-3.3418,-3.3418,-3.3418,-3.3418,-3.3418,-3.3418,-3.3418,-3.3418,-3.3418,-3.3418,-3.3418,-3.3437,-3.3437,-3.3711,-3.4531,-3.3945,-3.3574,-3.4068,-3.3691,-3.3418,-3.3418,-3.3733,-3.3796,-3.3481,-3.3733,-3.3796,-3.3418,-3.3418,-3.3418,-3.3418,-3.3733,-3.3733,-3.3398,-3.3299,-3.3164,-3.2773,-3.2363,-3.2168,-3.2148,-3.1699,-3.1269,0.0,0.0,-3.418,-3.1016,0.0,0.0,0.0,0.0,0.0,0.0,0.0,0.0,0.0,-2.6141,-2.5642,-2.4977,-2.4836,-2.4424,0.0,-2.3084,0.0,0.0,-2.3826,-2.4142,0.0,0.0,0.0,0.0,-2.4197,0.0,0.0,-2.615,-2.6646,-2.6949,-2.7552,-2.7871,-2.7871,-2.8164,-2.8301,-2.8301,-2.8301,-2.8301,-2.8301,-2.8301,-2.8379,-2.8535,-2.8945,-2.9375,-2.9824,-3.0254,-3.0605,-3.0898,-3.1055,-3.1269,-3.1621,-3.2603,-3.3015,-3.3047,-3.3446,-3.3481,-3.3418,-3.3418,-3.3418,-3.3418,-3.3418,-3.3418,-3.3418,-3.3418,-3.3418,-3.3418,-3.3418,-3.3418,-3.3418,-3.3418,-3.3418,-3.3418,-3.3418,-3.3418,-3.3418,-3.3418,-3.3418,-3.3594,-3.418,-3.4043,-3.3945,-3.4238,-3.4043,-3.3906,-3.4062,-3.3945,-3.375,-3.3457,-3.3481,-3.3607,-3.3733,-3.3859,-3.3733,-3.3418,-3.3418,-3.3418,-3.3418,-3.3733,-3.3733,-3.3418,-3.3595,-3.3516,-3.3203,-3.3066,-3.2851,-3.2578,-3.2422,-3.1992,-3.4824,-3.5039,0.0,-3.2207,-3.123,0.0,-2.748,0.0,-2.8437,0.0,0.0,0.0,0.0,-2.7128,-2.6231,-2.5662,-2.5146,-2.4322,0.0,-2.2736,0.0,-2.2676,-2.3076,-2.3478,-2.3813,0.0,0.0,-2.3123,-2.308,-2.3414,0.0,0.0,-2.5816,-2.6281,-2.7043,-2.75,-2.7728,-2.793,-2.8144,-2.8301,-2.8301,-2.8301,-2.8301,-2.8301,-2.8301,-2.832,-2.873,-2.8862,-2.8799,-2.9616,-3.0006,-3.0045,-3.0471,-3.0918,-3.1406,-3.2246,-3.2754,-3.3066,-3.332,-3.3418,-3.3418,-3.3418,-3.3418,-3.3418,-3.3418,-3.3019,-3.2765,-3.3292,-3.3019,-3.2638,-3.2638,-3.2638,-3.2638,-3.2638,-3.2237,-3.2046,-3.2575,-3.2237,-3.1918,-3.1918,-3.1984,-3.2245,-3.2833,-3.2833,-3.318,-3.4576,-3.4492,-3.4355,-3.4512,-3.4258,-3.3965,-3.3691,-3.3516,-3.3481,-3.367,-3.3733,-3.3607,-3.3418,-3.3418,-3.3418,-3.3418,-3.3607,-3.3686,-3.3652,-3.3686,-3.3686,-3.3652,-3.3496,-3.3281,-3.3008,-3.2715,-3.2285]},{"header":{"parameterUnit":"m.s-1","parameterCategory":1,"la1":30.6,"la2":29.2853,"lo1":-89.7004,"lo2":-87.6739,"dy":0.0162,"dx":0.0183,"nx":112,"ny":82,"refTime":"2024-05-11T06:00:00:Z","depth":0,"parameterNumber":3,"parameterNumberName":"V-component_of_WINDS"},"data":[0.0,0.0,0.0,0.0,0.0,0.0,0.0,0.0,0.0,0.0,0.0,0.0,0.0,0.0,0.0,0.0,0.0,0.0,0.0,0.0,0.0,0.0,0.0,0.0,0.0,0.0,0.0,0.0,0.0,0.0,0.0,0.0,0.0,0.0,0.0,0.0,0.0,0.0,0.0,0.0,0.0,0.0,0.0,0.0,0.0,0.0,0.0,0.0,0.0,0.0,0.0,0.0,0.0,0.0,0.0,0.0,0.0,0.0,0.0,0.0,0.0,0.0,0.0,0.0,0.0,0.0,0.0,0.0,0.0,0.0,0.0,0.0,0.0,0.0,0.0,0.0,0.0,0.0,0.0,0.0,0.0,0.0,0.0,0.0,0.0,0.0,0.0,0.0,0.0,0.0,2.5109,2.8398,3.2853,3.5079,3.3751,3.2911,2.9895,2.3893,0.0,0.0,0.0,0.0,0.0,0.0,0.0,0.0,0.0,0.0,0.0,0.0,0.0,0.0,0.0,0.0,0.0,0.0,0.0,0.0,0.0,0.0,0.0,0.0,0.0,0.0,0.0,0.0,0.0,0.0,0.0,0.0,0.0,0.0,0.0,0.0,0.0,0.0,0.0,0.0,0.0,0.0,0.0,0.0,0.0,0.0,0.0,0.0,0.0,0.0,0.0,0.0,0.0,0.0,0.0,0.0,0.0,0.0,0.0,0.0,0.0,0.0,0.0,0.0,0.0,0.0,0.0,0.0,0.0,0.0,0.0,0.0,0.0,0.0,0.0,0.0,0.0,0.0,0.0,0.0,0.0,0.0,0.0,0.0,0.0,0.0,0.0,0.0,0.0,0.0,0.0,0.0,0.0,0.0,0.0,0.0,0.0,0.0,0.0,0.0,0.0,0.0,0.0,0.0,2.5377,3.0984,3.3162,3.3979,3.3504,3.0918,2.8066,2.5183,0.0,0.0,0.0,0.0,0.0,0.0,0.0,0.0,0.0,0.0,0.0,0.0,0.0,0.0,0.0,0.0,0.0,0.0,0.0,0.0,0.0,0.0,0.0,0.0,0.0,0.0,0.0,0.0,0.0,0.0,0.0,0.0,0.0,0.0,0.0,0.0,0.0,0.0,0.0,0.0,0.0,0.0,0.0,0.0,0.0,0.0,0.0,0.0,0.0,0.0,0.0,0.0,0.0,0.0,0.0,0.0,0.0,0.0,0.0,0.0,0.0,0.0,0.0,0.0,0.0,0.0,0.0,0.0,0.0,0.0,0.0,0.0,0.0,0.0,0.0,0.0,0.0,0.0,0.0,0.0,0.0,0.0,0.0,0.0,0.0,0.0,0.0,0.0,0.0,0.0,0.0,0.0,0.0,0.0,0.0,0.0,0.0,0.0,0.0,0.0,0.0,0.0,0.0,2.4833,2.7433,3.1763,3.2943,3.3305,3.2963,2.9999,2.7214,2.4948,2.3414,0.0,0.0,0.0,0.0,0.0,0.0,0.0,0.0,0.0,0.0,0.0,0.0,0.0,0.0,0.0,0.0,0.0,0.0,0.0,0.0,0.0,0.0,0.0,0.0,0.0,0.0,0.0,0.0,0.0,0.0,0.0,0.0,0.0,0.0,0.0,0.0,0.0,0.0,0.0,0.0,0.0,0.0,0.0,0.0,0.0,0.0,0.0,0.0,0.0,0.0,0.0,0.0,0.0,0.0,0.0,0.0,0.0,0.0,0.0,0.0,0.0,0.0,0.0,0.0,0.0,0.0,0.0,0.0,0.0,0.0,0.0,0.0,0.0,0.0,0.0,0.0,0.0,0.0,0.0,0.0,0.0,0.0,0.0,0.0,0.0,0.0,0.0,0.0,0.0,0.0,0.0,0.0,0.0,0.0,0.0,0.0,0.0,0.0,0.0,0.0,0.0,0.0,2.7419,2.9352,3.1587,3.234,3.2525,3.212,2.8944,2.6259,2.4553,2.2079,0.0,0.0,0.0,0.0,0.0,0.0,0.0,0.0,0.0,0.0,0.0,0.0,0.0,0.0,0.0,0.0,0.0,0.0,0.0,0.0,0.0,0.0,0.0,0.0,0.0,0.0,0.0,0.0,0.0,0.0,0.0,0.0,0.0,0.0,0.0,0.0,0.0,0.0,0.0,0.0,0.0,0.0,0.0,0.0,0.0,0.0,0.0,0.0,0.0,0.0,0.0,0.0,0.0,0.0,0.0,0.0,0.0,0.0,0.0,0.0,0.0,0.0,0.0,0.0,0.0,0.0,0.0,0.0,0.0,0.0,0.0,0.0,0.0,0.0,0.0,0.0,0.0,0.0,0.0,0.0,0.0,0.0,0.0,0.0,0.0,0.0,0.0,0.0,0.0,0.0,0.0,0.0,0.0,0.0,0.0,0.0,0.0,0.0,0.0,0.0,0.0,0.0,2.7394,2.9955,3.0658,3.121,3.1311,3.0783,2.6933,2.4559,2.4591,2.1021,0.0,0.0,0.0,0.0,0.0,0.0,0.0,0.0,0.0,0.0,0.0,0.0,0.0,0.0,0.0,0.0,0.0,0.0,0.0,0.0,0.0,0.0,0.0,0.0,0.0,0.0,0.0,0.0,0.0,0.0,0.0,0.0,0.0,0.0,0.0,0.0,0.0,0.0,0.0,0.0,0.0,0.0,0.0,0.0,0.0,0.0,0.0,0.0,0.0,0.0,0.0,0.0,0.0,0.0,0.0,0.0,0.0,0.0,0.0,0.0,0.0,0.0,0.0,0.0,0.0,0.0,0.0,0.0,0.0,0.0,0.0,0.0,0.0,0.0,0.0,0.0,0.0,0.0,0.0,0.0,0.0,0.0,0.0,0.0,0.0,0.0,0.0,0.0,0.0,0.0,0.0,0.0,0.0,0.0,0.0,0.0,0.0,0.0,0.0,0.0,0.0,0.0,2.7642,2.9854,3.1151,3.1356,3.1035,3.0181,2.6824,2.455,2.4199,0.0,0.0,0.0,0.0,0.0,0.0,0.0,0.0,0.0,0.0,0.0,0.0,0.0,0.0,0.0,0.0,0.0,0.0,0.0,0.0,0.0,0.0,0.0,0.0,0.0,0.0,0.0,0.0,0.0,0.0,0.0,0.0,0.0,0.0,0.0,0.0,0.0,0.0,0.0,0.0,0.0,0.0,0.0,0.0,0.0,0.0,0.0,0.0,0.0,0.0,0.0,0.0,0.0,0.0,0.0,0.0,0.0,0.0,0.0,0.0,0.0,0.0,0.0,0.0,0.0,0.0,0.0,0.0,0.0,0.0,0.0,0.0,0.0,0.0,0.0,0.0,0.0,0.0,0.0,0.0,0.0,0.0,0.0,0.0,0.0,0.0,0.0,0.0,0.0,0.0,0.0,0.0,0.0,0.0,0.0,0.0,0.0,0.0,0.0,0.0,0.0,0.0,2.5836,2.8245,3.027,3.1679,3.1863,3.1408,3.0302,2.6856,2.4597,2.415,0.0,0.0,0.0,0.0,0.0,0.0,0.0,0.0,0.0,0.0,0.0,0.0,0.0,0.0,0.0,0.0,0.0,0.0,0.0,0.0,0.0,0.0,0.0,0.0,0.0,0.0,0.0,0.0,0.0,0.0,0.0,0.0,0.0,0.0,0.0,0.0,0.0,0.0,0.0,0.0,0.0,0.0,0.0,0.0,0.0,0.0,0.0,0.0,0.0,0.0,0.0,0.0,0.0,0.0,0.0,0.0,0.0,0.0,0.0,0.0,0.0,0.0,0.0,0.0,0.0,0.0,0.0,0.0,0.0,0.0,0.0,0.0,0.0,0.0,0.0,0.0,0.0,0.0,0.0,0.0,0.0,0.0,0.0,0.0,0.0,0.0,0.0,0.0,0.0,0.0,0.0,0.0,0.0,0.0,0.0,0.0,0.0,0.0,0.0,0.0,0.0,0.0,2.6571,2.9267,3.1387,3.2055,3.2579,3.2407,3.118,2.693,2.4393,0.0,0.0,0.0,0.0,0.0,0.0,0.0,0.0,0.0,0.0,0.0,0.0,0.0,0.0,0.0,0.0,0.0,0.0,0.0,0.0,0.0,0.0,0.0,0.0,0.0,0.0,0.0,0.0,0.0,0.0,0.0,0.0,0.0,0.0,0.0,0.0,0.0,0.0,0.0,0.0,0.0,0.0,0.0,0.0,0.0,0.0,0.0,0.0,0.0,0.0,0.0,0.0,0.0,0.0,0.0,0.0,0.0,0.0,0.0,0.0,0.0,0.0,0.0,0.0,0.0,0.0,0.0,0.0,0.0,0.0,0.0,0.0,0.0,0.0,0.0,0.0,0.0,0.0,0.0,0.0,0.0,0.0,0.0,0.0,0.0,0.0,0.0,0.0,0.0,0.0,0.0,0.0,0.0,0.0,0.0,0.0,0.0,0.0,0.0,0.0,0.0,0.0,0.0,2.7883,3.0307,3.2152,3.2806,3.291,3.2245,3.0682,2.7308,2.4964,2.4231,0.0,0.0,0.0,0.0,0.0,0.0,0.0,0.0,0.0,0.0,0.0,0.0,0.0,0.0,0.0,0.0,0.0,0.0,0.0,0.0,0.0,0.0,0.0,0.0,0.0,0.0,0.0,0.0,0.0,0.0,0.0,0.0,0.0,0.0,0.0,0.0,0.0,0.0,0.0,0.0,0.0,0.0,0.0,0.0,0.0,0.0,0.0,0.0,0.0,0.0,0.0,0.0,0.0,0.0,0.0,0.0,0.0,0.0,0.0,0.0,0.0,0.0,0.0,0.0,0.0,0.0,0.0,0.0,0.0,0.0,0.0,0.0,0.0,0.0,0.0,0.0,0.0,0.0,0.0,0.0,0.0,0.0,0.0,0.0,0.0,0.0,0.0,0.0,0.0,0.0,0.0,0.0,0.0,0.0,0.0,0.0,0.0,0.0,0.0,0.0,0.0,0.0,2.8505,3.0802,3.2652,3.3573,3.3578,3.2848,3.1322,2.8301,2.5865,2.4412,0.0,0.0,0.0,0.0,0.0,0.0,0.0,0.0,0.0,0.0,0.0,0.0,0.0,0.0,0.0,0.0,0.0,0.0,0.0,0.0,0.0,0.0,0.0,0.0,0.0,0.0,0.0,0.0,0.0,0.0,0.0,0.0,0.0,0.0,0.0,0.0,0.0,0.0,0.0,0.0,0.0,0.0,0.0,0.0,0.0,0.0,0.0,0.0,0.0,0.0,0.0,0.0,0.0,0.0,0.0,0.0,0.0,0.0,0.0,0.0,0.0,0.0,0.0,0.0,0.0,0.0,0.0,0.0,0.0,0.0,0.0,0.0,0.0,0.0,0.0,0.0,0.0,0.0,0.0,0.0,0.0,0.0,0.0,0.0,0.0,0.0,0.0,0.0,0.0,0.0,0.0,0.0,0.0,0.0,0.0,0.0,0.0,0.0,0.0,0.0,0.0,0.0,2.8534,3.0916,3.2974,3.4283,3.4399,3.3873,3.2597,2.961,2.6941,2.494,0.0,0.0,0.0,0.0,0.0,0.0,0.0,0.0,0.0,0.0,0.0,0.0,0.0,0.0,0.0,0.0,0.0,0.0,0.0,0.0,0.0,0.0,0.0,0.0,0.0,0.0,0.0,0.0,0.0,0.0,0.0,0.0,0.0,0.0,0.0,0.0,0.0,0.0,0.0,0.0,0.0,0.0,0.0,0.0,0.0,0.0,0.0,0.0,0.0,0.0,0.0,0.0,0.0,0.0,0.0,0.0,0.0,0.0,0.0,0.0,3.1887,0.0,0.0,0.0,0.0,0.0,0.0,0.0,0.0,0.0,0.0,0.0,0.0,0.0,0.0,0.0,0.0,0.0,0.0,0.0,0.0,0.0,0.0,0.0,0.0,0.0,0.0,0.0,0.0,0.0,0.0,0.0,0.0,0.0,0.0,0.0,0.0,0.0,0.0,0.0,0.0,0.0,2.8534,3.0916,3.2974,3.4283,3.4399,3.3873,3.2597,3.0016,2.7432,2.5023,2.2323,0.0,0.0,0.0,0.0,0.0,0.0,0.0,0.0,0.0,0.0,0.0,0.0,0.0,0.0,0.0,0.0,0.0,0.0,0.0,0.0,0.0,0.0,0.0,0.0,0.0,0.0,0.0,0.0,0.0,0.0,0.0,0.0,0.0,0.0,0.0,0.0,0.0,0.0,0.0,0.0,0.0,0.0,0.0,0.0,0.0,0.0,0.0,0.0,0.0,0.0,0.0,0.0,0.0,0.0,0.0,0.0,0.0,0.0,0.0,0.0,3.4278,0.0,0.0,0.0,0.0,0.0,0.0,0.0,0.0,0.0,0.0,0.0,0.0,0.0,0.0,0.0,0.0,0.0,0.0,0.0,0.0,0.0,0.0,0.0,0.0,0.0,0.0,0.0,0.0,0.0,0.0,0.0,0.0,0.0,0.0,0.0,0.0,0.0,0.0,0.0,0.0,2.8942,3.1119,3.289,3.3848,3.3964,3.3441,3.2135,3.0248,2.8187,2.5923,2.3368,0.0,0.0,0.0,0.0,0.0,0.0,0.0,0.0,0.0,0.0,0.0,0.0,0.0,0.0,0.0,0.0,0.0,0.0,0.0,0.0,0.0,0.0,0.0,0.0,0.0,0.0,0.0,0.0,0.0,0.0,0.0,0.0,0.0,0.0,0.0,0.0,0.0,0.0,0.0,0.0,0.0,0.0,0.0,0.0,0.0,0.0,0.0,0.0,0.0,0.0,0.0,0.0,0.0,4.9056,5.0101,5.1542,5.134,5.039,4.863,4.3417,4.0718,3.9746,3.6504,0.0,0.0,0.0,0.0,0.0,0.0,0.0,0.0,0.0,0.0,0.0,0.0,0.0,0.0,0.0,0.0,0.0,0.0,0.0,0.0,0.0,0.0,0.0,0.0,3.3223,3.3179,0.0,0.0,0.0,0.0,0.0,0.0,0.0,0.0,0.0,0.0,0.0,0.0,2.9378,3.1176,3.2687,3.3561,3.3474,3.2861,3.1756,3.0539,2.8942,2.6936,2.465,2.2678,0.0,0.0,0.0,0.0,0.0,0.0,0.0,0.0,0.0,0.0,0.0,0.0,0.0,0.0,0.0,0.0,0.0,0.0,0.0,0.0,0.0,0.0,0.0,0.0,0.0,0.0,0.0,0.0,0.0,0.0,0.0,0.0,3.8904,3.9412,0.0,0.0,0.0,0.0,0.0,0.0,0.0,0.0,0.0,0.0,0.0,0.0,0.0,4.9873,5.1172,5.3706,5.4304,5.3077,5.6109,5.6854,5.5625,5.5149,5.5586,5.6574,5.2997,0.0,4.1812,3.8964,0.0,0.0,0.0,0.0,0.0,0.0,0.0,0.0,0.0,0.0,0.0,0.0,0.0,0.0,0.0,0.0,0.0,0.0,0.0,0.0,0.0,0.0,3.6837,3.5748,3.6073,3.6196,0.0,3.163,2.8768,2.6794,2.5633,0.0,0.0,0.0,0.0,0.0,0.0,0.0,2.9436,3.077,3.2307,3.4109,3.3296,3.2571,3.2365,3.1206,2.9435,2.6965,2.5923,2.4094,2.1104,2.093,0.0,0.0,0.0,0.0,0.0,0.0,0.0,0.0,0.0,0.0,0.0,0.0,0.0,0.0,0.0,0.0,0.0,0.0,0.0,0.0,0.0,0.0,0.0,0.0,0.0,0.0,0.0,0.0,0.0,4.1203,4.3328,4.0679,4.335,4.3692,0.0,0.0,0.0,0.0,0.0,0.0,0.0,0.0,0.0,5.3531,5.4657,5.6124,5.7961,5.9585,6.0061,5.95,6.1023,6.1423,6.0802,6.0741,6.0689,6.0468,5.8609,5.5141,5.0328,4.5392,4.2523,4.0951,0.0,0.0,0.0,0.0,3.7561,3.8209,3.9716,3.9596,0.0,3.803,0.0,0.0,0.0,0.0,0.0,0.0,0.0,0.0,0.0,0.0,0.0,3.7777,3.8077,3.8011,3.708,3.5035,3.2483,0.0,2.8448,2.7723,2.6622,0.0,0.0,0.0,0.0,2.8304,2.9958,3.0945,3.1845,3.2655,3.2249,3.1816,3.1467,3.0917,2.9668,2.7461,2.6707,2.5052,2.2185,2.1743,2.1104,0.0,0.0,0.0,0.0,0.0,0.0,0.0,0.0,0.0,0.0,0.0,0.0,0.0,0.0,0.0,0.0,0.0,0.0,0.0,0.0,0.0,0.0,0.0,0.0,0.0,0.0,0.0,0.0,4.5241,4.7105,4.2969,4.7572,4.8597,0.0,0.0,0.0,0.0,0.0,0.0,5.2805,5.4616,5.6969,6.0125,6.1,6.2366,6.4399,6.4763,6.493,6.4915,6.4915,6.4848,6.4745,6.4607,6.4151,6.3412,6.2013,6.0582,5.8716,5.1128,4.7209,4.5667,4.2341,4.0804,4.0567,4.1382,4.1548,4.1639,4.3906,4.3625,4.2071,4.0959,0.0,3.7409,3.4729,0.0,0.0,0.0,0.0,3.4022,3.6431,3.7535,3.826,3.9189,3.9421,3.9247,3.8609,3.7331,3.5328,0.0,3.1062,3.0306,2.8739,0.0,0.0,0.0,0.0,2.8971,3.0423,3.1119,3.1553,3.1758,3.1467,3.109,3.0656,3.0452,2.9523,2.7579,2.7055,2.5633,2.3004,2.2301,2.1481,2.0349,0.0,0.0,0.0,0.0,0.0,0.0,0.0,0.0,0.0,0.0,0.0,0.0,0.0,0.0,0.0,0.0,0.0,0.0,0.0,0.0,0.0,0.0,0.0,0.0,0.0,0.0,0.0,0.0,0.0,4.8762,5.3165,0.0,0.0,0.0,0.0,5.3824,5.5941,5.8786,6.2435,6.3351,6.548,6.9022,6.8526,6.8923,7.0461,6.9798,6.8908,6.7877,6.7877,6.7323,6.6249,6.4582,6.4926,6.6562,6.3172,6.2911,6.4198,5.4173,4.9469,4.8211,4.3931,4.2278,4.2196,4.1625,4.219,4.3408,4.4373,4.4654,4.4812,4.6343,4.4898,4.2116,3.9531,3.7707,0.0,0.0,3.6148,3.6577,3.8551,3.9509,3.9973,4.0031,4.006,3.9886,3.9276,3.7651,3.5706,0.0,3.2338,3.1264,3.0569,0.0,2.8768,2.9407,3.0045,3.0481,3.0598,3.1119,3.1727,3.2365,3.1351,3.0627,3.0598,3.0016,2.8855,2.6939,2.682,2.5633,2.3004,2.2301,2.1656,2.0959,2.0378,0.0,0.0,0.0,0.0,0.0,0.0,0.0,0.0,0.0,0.0,0.0,0.0,0.0,0.0,0.0,0.0,0.0,0.0,0.0,0.0,0.0,0.0,0.0,0.0,0.0,0.0,0.0,0.0,5.6072,6.0595,0.0,5.6614,5.7906,5.9363,6.0092,6.261,6.5293,6.8042,6.8871,7.0096,7.1885,7.1223,7.0858,7.0891,7.0626,6.9713,6.8072,6.7362,6.6794,6.6375,6.5753,6.6035,6.6904,6.5212,6.4544,6.4255,5.8395,5.5359,5.3923,5.0056,4.8177,4.7592,4.6959,4.6739,4.6828,4.7666,4.6998,4.5532,4.4289,4.2597,4.0826,3.9803,3.9017,3.8537,3.8865,3.859,3.8522,4.0031,4.0583,4.0844,4.1279,4.0728,4.0031,3.9828,3.858,3.7215,3.6141,3.4225,3.2716,3.2515,3.1351,3.0742,3.135,3.1322,3.1351,3.1758,3.1642,3.1582,3.1814,3.109,3.0452,2.9987,2.9377,2.8042,2.572,2.5575,2.4384,2.1801,2.1481,2.1046,2.0436,1.9798,1.9856,0.0,0.0,0.0,0.0,0.0,0.0,0.0,0.0,0.0,0.0,0.0,0.0,0.0,0.0,0.0,0.0,0.0,0.0,0.0,0.0,0.0,0.0,0.0,0.0,0.0,5.7588,6.223,6.1459,6.6133,6.7645,6.3007,6.4796,6.6365,6.6585,6.9069,7.1289,7.3011,7.3111,7.3442,7.4171,7.3011,7.215,7.1653,7.1156,7.0287,6.9042,6.8,6.7516,6.7516,6.7157,6.7181,6.7525,6.6404,6.5596,6.484,6.1828,5.9903,5.8497,5.456,5.2481,5.1663,5.0693,4.9709,4.8923,4.9259,4.8316,4.6598,4.4604,4.306,4.1796,4.1043,4.0674,4.0514,4.0583,4.0264,4.0089,4.1163,4.1424,4.1482,4.1715,4.0902,4.0031,3.9828,3.8783,3.7767,3.7389,3.5735,3.4404,3.4172,3.3035,3.2338,3.2774,3.2454,3.2251,3.2452,3.2104,3.1727,3.1495,3.0945,3.0249,2.9377,2.9116,2.781,2.5052,2.4878,2.3804,2.1423,2.1336,2.1162,2.0756,2.0088,2.0059,2.0698,0.0,0.0,0.0,0.0,0.0,0.0,0.0,0.0,0.0,0.0,0.0,0.0,0.0,0.0,0.0,0.0,0.0,0.0,0.0,0.0,0.0,0.0,0.0,5.4825,6.1053,6.5359,6.4829,6.9798,7.1885,6.8228,7.1786,7.4005,7.331,7.5198,7.6689,7.7417,7.6125,7.5662,7.6324,7.427,7.3177,7.3144,7.1686,7.0924,7.0891,7.0082,6.9798,6.9751,6.8634,6.8307,6.8592,6.6726,6.6184,6.632,6.4167,6.2684,6.1368,5.7017,5.4833,5.3976,5.2362,5.0901,4.9603,4.8903,4.8509,4.8192,4.7889,4.6854,4.5434,4.3541,4.2811,4.2398,4.1427,4.1134,4.1279,4.1918,4.2092,4.1918,4.1279,4.0583,3.9915,3.9363,3.8231,3.7331,3.7331,3.678,3.6112,3.5508,3.4375,3.3561,3.3532,3.3532,0.0,3.2658,3.251,3.2249,3.1642,3.1003,3.0133,2.8854,2.9232,2.8188,2.5052,2.4766,2.3896,2.2033,2.1975,2.1975,2.1975,2.1336,2.0727,2.0146,0.0,0.0,0.0,0.0,0.0,0.0,0.0,0.0,0.0,0.0,0.0,0.0,0.0,0.0,0.0,0.0,0.0,0.0,0.0,0.0,0.0,5.7376,6.1616,6.1649,6.6121,7.0295,7.2746,7.5397,7.6424,7.4867,7.6291,7.702,7.6291,7.7285,7.8014,7.8212,7.7318,7.692,7.7119,7.5529,7.4436,7.3873,7.2415,7.1421,7.0891,6.9288,6.8977,6.9751,6.8634,6.8307,6.8639,6.7584,6.6608,6.5591,6.3935,6.2812,6.1817,5.8831,5.6753,5.5304,5.3962,5.2616,5.1374,5.0546,4.9931,4.9315,4.7697,4.6276,4.4913,4.3427,4.2663,4.2181,4.1884,4.1831,4.186,4.2063,4.1744,4.1453,4.1744,4.0612,3.9509,3.9799,3.8841,3.7941,3.7941,3.707,3.6112,3.5508,3.5101,3.4724,3.4225,3.4138,0.0,3.3906,3.3061,3.2629,3.289,3.1932,3.0742,2.9464,2.8652,2.7057,2.4355,2.3281,2.2323,2.1307,2.1278,2.1278,2.1278,2.1075,2.1162,0.0,0.0,0.0,0.0,0.0,0.0,0.0,0.0,0.0,0.0,0.0,0.0,0.0,0.0,0.0,0.0,0.0,0.0,0.0,0.0,0.0,0.0,6.3305,6.7612,6.9169,7.1819,7.4535,7.6954,7.8544,7.9272,7.8809,7.9173,7.914,7.8411,7.8742,7.8842,7.8544,7.7815,7.7417,7.7417,7.6026,7.5065,7.4635,7.321,7.2084,7.1355,6.9944,6.9451,6.9798,6.9107,6.8597,0.0,6.7811,6.6738,6.5293,6.3868,6.3083,0.0,0.0,0.0,0.0,0.0,5.3149,5.2397,5.1271,5.0699,5.0147,4.8509,4.6952,4.5607,4.4739,4.3707,4.285,4.285,4.2677,4.2555,4.2769,4.2181,4.1703,4.2315,4.0979,3.9673,4.0002,3.9089,3.8202,3.8202,3.7622,0.0,3.5909,3.5328,3.4835,3.4457,3.4399,3.4399,3.4399,3.3529,3.2948,3.3064,3.2135,3.0973,2.9697,2.8913,0.0,0.0,0.0,2.3165,2.2236,2.1946,0.0,0.0,0.0,2.1743,2.1569,0.0,0.0,0.0,2.1569,2.1888,0.0,0.0,0.0,0.0,0.0,0.0,0.0,0.0,0.0,0.0,0.0,0.0,0.0,0.0,0.0,0.0,6.9003,7.2713,7.6192,7.7384,7.808,7.8577,7.9836,8.0697,8.0697,8.0697,8.0432,7.9802,7.967,7.9285,7.8676,0.0,0.0,0.0,0.0,7.5397,7.5397,7.3807,7.2647,7.1985,7.1156,7.0428,6.9798,6.9699,6.8937,6.7566,6.7499,6.6717,6.5293,6.3868,6.313,6.2626,6.0381,5.8755,5.7307,5.4493,5.3331,5.3108,5.1773,0.0,0.0,4.9891,4.8371,4.692,4.663,4.5277,4.3921,4.3974,4.3515,4.317,4.3741,4.3071,4.2361,4.2938,4.1611,4.0217,4.0285,3.9261,3.8315,3.8315,3.8182,3.7738,3.6606,3.5415,3.4574,3.4428,3.4399,3.4399,3.4399,3.3848,3.33,3.2742,0.0,0.0,2.9929,2.9755,2.8623,2.6068,2.5803,2.5168,2.4036,2.3432,2.3091,2.3091,2.3055,2.2446,2.1336,2.1249,2.122,2.1249,2.2301,2.2504,0.0,0.0,0.0,0.0,0.0,0.0,0.0,0.0,0.0,0.0,0.0,0.0,0.0,0.0,0.0,6.7446,7.2117,7.6125,7.8643,8.0134,8.0564,7.9537,8.0167,8.0697,8.0697,8.0697,8.0631,8.0498,7.9968,7.9571,7.9351,7.8709,7.8312,7.8312,7.6887,7.6125,7.6125,7.3508,7.215,7.1985,0.0,0.0,6.9765,6.9169,6.844,6.7566,6.6937,6.622,6.5293,6.3868,6.2113,6.0229,5.9374,5.8888,5.8426,5.6652,5.562,5.4957,5.4109,5.3058,5.1937,5.0798,4.9123,4.7417,4.7034,4.5499,0.0,4.4288,4.3884,4.3419,4.3775,4.3378,4.296,4.3546,4.2259,4.0932,4.1472,4.0151,3.8907,3.8907,3.8157,3.7389,3.7157,3.646,3.559,3.4574,3.4399,3.4399,3.4399,3.3848,3.3649,3.3993,3.347,3.2571,3.1234,3.0684,2.9348,2.6791,2.5658,2.4965,2.4704,2.4534,2.4423,2.4423,2.3925,2.3572,2.3339,2.2794,2.2533,2.2533,2.2294,2.212,0.0,0.0,0.0,0.0,0.0,0.0,0.0,0.0,0.0,0.0,0.0,5.7177,6.0456,0.0,6.9368,7.3011,7.6357,7.8776,7.9537,8.0863,8.126,7.9802,8.0896,8.1492,8.0763,8.1028,8.1227,8.1227,8.0233,7.9583,7.9583,7.8908,7.8511,7.8511,7.7086,7.6324,7.6324,7.3807,7.2382,7.1985,7.0891,7.0163,6.9765,6.9036,6.8307,6.7533,6.685,6.6088,6.5293,6.3868,6.1923,5.9732,5.9168,5.8584,5.7986,5.6545,5.6066,5.5984,5.4891,5.3798,5.2735,5.1828,4.996,4.8102,4.8246,4.6952,4.544,4.5642,4.5195,4.482,4.5274,4.4719,4.4236,4.5164,4.3941,4.2623,4.2843,4.1683,4.0431,4.006,3.9157,3.8322,3.7997,3.7045,3.5996,3.5038,3.4603,3.4399,3.4399,3.4138,3.3935,3.3935,3.3678,3.3097,3.2106,3.0829,2.9406,2.7866,2.6559,2.5981,2.63,2.5662,2.5313,2.5313,2.465,2.4331,2.4331,2.4012,2.3844,2.3844,2.3572,2.3107,0.0,0.0,0.0,0.0,0.0,0.0,0.0,5.1082,5.287,5.7276,6.0026,6.3272,6.8572,7.1587,7.4469,7.8146,7.9968,8.0697,8.0134,8.1061,8.1194,7.9604,8.1227,8.1989,8.0796,8.1227,8.1591,8.1591,8.0366,7.9583,7.9583,7.8908,7.8444,7.8312,7.702,7.6258,7.6125,7.3972,7.2581,7.1985,7.1123,7.0295,6.9566,6.8804,6.8076,6.7334,6.6618,6.5657,6.4498,6.3637,6.1914,5.9728,5.9131,5.8322,5.7303,5.6043,5.6027,5.6448,5.4858,5.3831,5.3069,5.2241,5.0344,4.8555,4.9278,4.8251,4.6903,4.6965,4.6555,4.618,4.6724,4.6131,4.5634,4.6652,4.562,4.4394,4.4275,4.3174,4.1977,4.138,4.0512,3.9677,3.913,3.7938,3.6658,3.5578,3.4806,3.4399,3.4399,3.4399,3.4225,3.3736,3.3678,3.3383,3.2745,3.1002,2.9726,2.9116,2.7955,2.752,2.7869,2.691,2.63,2.6155,2.5636,2.5259,2.4998,2.4998,2.494,2.4824,2.4994,2.4442,4.8365,4.6775,4.7073,5.138,5.1181,5.2307,0.0,6.198,6.1989,6.632,6.9533,7.1753,7.2481,7.5463,7.8179,7.9306,8.073,8.1658,8.1558,8.1691,8.0995,7.8908,8.0001,8.0863,8.0697,8.0763,8.0796,8.0796,8.0067,7.9583,7.9583,7.8908,7.8212,7.755,7.6755,7.6026,7.5397,7.321,7.2084,7.1985,7.0593,6.9533,6.8771,6.8076,6.7301,6.6585,6.5856,6.4034,6.1682,6.2808,6.1583,5.8999,5.8933,5.8462,5.7648,5.6861,5.6603,5.6382,5.4262,5.3069,5.2274,5.0916,4.9358,4.82,4.8928,4.8101,4.6946,4.7274,4.6846,4.6353,4.6767,4.6791,4.6722,4.6892,4.6241,4.559,4.5593,4.4129,4.2771,4.2708,4.1637,4.0733,4.0671,4.0044,3.8613,3.5844,3.4806,3.4399,3.4399,3.4399,3.437,3.4312,3.4312,3.4051,3.3445,3.2106,3.1032,3.0423,2.9697,2.9087,2.8622,2.8447,2.81,2.7492,2.7405,2.6796,2.5691,2.5691,2.54,2.4824,2.5429,2.5313,5.2142,5.1976,5.2638,5.4792,5.6581,5.9131,6.4266,6.569,6.6982,7.0527,7.3575,7.586,7.6755,7.8842,8.0664,8.1426,8.1691,8.1624,8.1194,8.0034,7.861,7.6854,7.6788,7.755,7.9272,8.02,8.0697,8.0697,8.0034,7.9583,7.9583,7.8908,7.8378,7.808,7.692,7.5993,7.5349,7.3111,7.1786,7.1355,7.0295,6.9401,6.8672,6.7943,6.6784,6.5227,6.4498,6.3007,6.1152,6.1781,6.0788,5.88,5.7939,5.7674,5.7707,5.6945,5.6415,5.5885,5.4527,5.3036,5.1746,5.1545,4.9889,4.8233,4.9392,4.873,4.7571,4.7704,4.7507,4.7309,4.7505,4.7538,4.7538,4.7538,4.7308,4.698,4.6553,4.58,4.4984,4.4136,4.3106,4.22,4.1786,4.0763,3.9581,3.8296,3.686,3.5783,3.5329,3.4868,3.4563,3.4563,3.4563,3.4368,3.3827,3.3106,3.246,3.1913,3.1151,3.0567,3.0335,2.9639,2.9116,2.8797,2.8072,2.7434,2.6883,2.6562,2.6242,2.5981,2.6242,2.6213,5.4162,5.5421,5.6912,5.7939,6.1351,6.4962,6.6817,6.8937,7.1289,7.4038,7.6258,7.8179,7.9637,8.0796,8.1724,8.2486,8.232,8.1757,8.0829,7.8809,7.6788,7.5165,7.4188,7.4403,7.6523,7.8378,7.9471,7.9471,7.9372,7.9339,7.9339,7.861,7.8113,7.7914,7.6689,7.5595,7.4701,7.2912,7.162,7.0891,6.9931,6.9103,6.8341,6.7247,6.5856,6.4332,6.3647,6.2345,6.0821,6.102,5.9893,5.7906,5.7044,5.6879,5.7111,5.6349,5.5885,5.5416,5.4328,5.2771,5.1315,5.1181,4.9723,4.8199,4.9293,4.8862,4.8001,4.8001,4.8001,4.8001,4.8001,4.8001,4.8001,4.8001,4.8001,4.7868,4.7305,4.704,4.651,4.5251,4.4324,4.3522,4.2809,4.1724,4.0928,4.0706,3.9313,3.7836,3.6647,3.5621,3.5108,3.5264,3.4968,3.4692,3.4547,3.413,3.367,3.3152,3.2531,3.2086,3.1911,3.0952,3.028,3.0017,2.8966,2.8323,2.8094,2.7426,2.7106,2.7135,2.696,2.6846,5.3268,5.5024,5.7541,6.1161,6.4763,6.8241,7.1156,7.3508,7.5695,7.7914,7.8444,7.8941,8.0399,8.0697,8.0962,8.1691,8.2419,8.2353,8.0896,7.8809,7.6622,7.452,7.2945,7.2117,7.2183,7.4767,7.6424,7.6424,7.7749,7.8544,7.8544,7.7848,7.7119,7.639,7.5662,7.4635,7.3177,7.2382,7.162,7.0891,6.9434,6.8341,6.7533,6.5459,6.4432,6.4332,6.3647,6.2047,6.0092,6.0821,5.8999,5.5747,5.6448,5.6282,5.5549,5.4821,5.4986,5.5284,5.3169,5.1978,5.0951,4.8829,4.8067,4.8001,4.8067,4.8034,4.8001,4.8001,4.8001,4.8001,4.8001,4.8001,4.8001,4.8001,4.8001,4.8001,4.7968,4.7404,4.6676,4.5914,4.5185,4.4426,4.3668,4.3505,4.3241,4.2514,4.1847,4.0607,3.8216,3.6709,3.6085,3.6662,3.5657,3.5136,3.5787,3.5237,3.4607,3.4024,3.3965,3.364,3.2991,3.2615,3.199,3.1073,3.0508,2.9855,2.904,2.8257,2.791,2.7937,2.7296,2.6925,5.499,5.8601,6.2643,6.632,6.9633,7.2481,7.4403,7.5827,7.6622,7.6424,7.5993,7.5496,7.5032,7.5728,7.6589,7.7351,7.9306,8.0399,7.9405,7.8179,7.6059,7.2448,7.1985,7.1223,6.9301,7.2183,7.4767,7.6192,7.6755,7.7484,7.8477,7.8279,7.7815,7.7053,7.6357,7.5264,7.384,7.3111,7.2117,7.0891,6.8904,6.7347,6.6121,6.4929,6.3879,6.2951,6.2685,6.1848,6.0688,5.9926,5.8899,5.7674,5.6448,5.6117,5.6249,5.5521,5.4754,5.3997,5.2804,5.128,4.979,4.9558,4.8796,4.81,4.8597,4.8067,4.7272,4.7272,4.6908,4.6543,4.6543,4.6543,4.6643,4.7139,4.7272,4.7404,4.7901,4.7802,4.7272,4.6046,4.5582,4.5052,4.3797,4.3598,4.3499,4.3267,4.1904,4.0405,3.906,3.8151,3.7654,3.7745,3.694,3.6508,3.6844,3.6446,3.6136,3.6076,3.5154,3.4697,3.491,3.3544,3.2642,3.2372,3.1644,3.0782,2.9774,2.9451,2.9095,2.8719,2.8513,2.8368,5.8436,6.2577,6.6751,7.0428,7.3177,7.5165,7.6092,7.649,7.6159,7.4469,7.3111,7.1753,7.0328,7.0394,7.1205,7.268,7.4933,7.6788,7.7616,7.6424,7.4635,7.2349,7.1554,7.0361,6.8208,7.0626,7.3111,7.5032,7.5628,7.6457,7.7682,7.7484,7.7152,7.6655,7.5927,7.4966,7.3807,7.3078,7.172,6.9699,6.8307,6.6717,6.5028,6.4299,6.3514,6.2586,6.2013,6.155,6.0986,5.9496,5.8436,5.7574,5.6145,5.5752,5.5852,5.535,5.4423,5.3301,5.2605,5.0949,4.9127,4.9359,4.8763,4.81,4.8564,4.8034,4.7305,4.7305,4.6742,4.6245,4.651,4.6378,4.6378,4.7106,4.7305,4.7404,4.7901,4.8001,4.7636,4.6411,4.598,4.5417,4.4224,4.3764,4.3598,4.3598,4.2476,4.1339,4.0564,3.9718,3.918,3.9001,3.8136,3.7638,3.7709,3.7294,3.7054,3.7175,3.6318,3.5979,3.6395,3.5041,3.4156,3.382,3.3119,3.2164,3.0908,3.0573,3.0078,2.9535,2.9298,2.9153,6.3239,6.6751,6.9898,7.3442,7.5363,7.6324,7.6225,7.5562,7.4337,7.2084,6.9732,6.7645,6.6187,6.4962,6.5094,6.7943,6.9964,7.2382,7.5894,7.4105,7.2879,7.4122,7.1819,6.9798,6.8937,7.0196,7.162,7.3011,7.4403,7.5496,7.6258,7.5695,7.5382,7.5264,7.4652,7.3873,7.3111,7.2283,7.0461,6.7632,6.7533,6.6386,6.4299,6.3647,6.3282,6.3073,6.1748,6.1119,6.0953,5.9496,5.7641,5.5681,5.5648,5.5218,5.4626,5.4593,5.4096,5.3301,5.2605,5.0949,4.8995,4.8299,4.8067,4.8067,4.8067,4.8034,4.8001,4.7968,4.7404,4.7007,4.7703,4.7371,4.704,4.7769,4.7934,4.7968,4.8001,4.8001,4.7769,4.704,4.6311,4.5549,4.4821,4.4125,4.3631,4.3598,4.3598,4.3333,4.2638,4.1392,4.0569,4.0502,3.9357,3.8533,3.8436,3.7854,3.7472,3.7472,3.7442,3.7442,3.7472,3.7068,3.6366,3.5415,3.485,3.3882,3.2499,3.1651,3.0961,3.0412,2.9871,2.9491,6.6485,7.0527,7.4072,7.6092,7.6854,7.6722,7.5098,7.2879,7.0262,6.6949,6.2775,5.9297,5.7839,5.9529,6.1881,6.4266,7.0428,7.5463,7.692,7.7914,7.7616,7.5264,7.48,7.374,7.1388,7.2481,7.3276,7.3111,7.3442,7.4436,7.6225,7.6159,7.5827,7.5297,7.515,7.437,7.3111,7.1289,6.9699,6.8407,6.6751,6.5127,6.358,6.3415,6.2676,6.1682,6.1815,6.1285,6.0225,5.9264,5.8237,5.7177,5.6614,5.6282,5.6051,5.5521,5.4527,5.3301,5.2605,5.0949,4.9094,4.8895,4.8829,4.8829,4.8829,4.8431,4.7901,4.7338,4.6643,4.6113,4.6311,4.6212,4.6278,4.7007,4.7173,4.7338,4.7868,4.8001,4.7769,4.704,4.6311,4.5549,4.4821,4.4522,4.4224,4.3664,4.3598,4.3532,4.3333,4.2538,4.1986,4.1976,4.0757,3.9888,3.9863,3.9226,3.8816,3.8816,3.8367,3.8311,3.8788,3.7686,3.698,3.6786,3.6013,3.504,3.381,3.3492,3.3039,3.2453,3.2293,3.199,7.1455,7.4568,7.6987,7.8113,7.7417,7.5728,7.2879,6.9732,6.6088,6.145,5.7442,5.4162,5.2042,5.4129,5.6978,5.9496,6.6187,7.2216,7.5529,7.7318,7.8047,7.7285,7.7252,7.6258,7.3707,7.4436,7.4833,7.4105,7.3773,7.4105,7.5297,7.5363,7.5198,7.4851,7.4851,7.3939,7.215,7.0891,6.9268,6.7247,6.5989,6.4498,6.2818,6.2818,6.2179,6.1119,0.0,6.1251,6.039,5.933,5.8469,5.7707,5.6978,5.6481,5.6183,5.5747,5.4854,5.3699,5.2373,5.0883,4.9591,4.9591,4.9591,4.9591,4.9591,4.9293,4.8829,4.8067,4.7338,4.6775,4.6775,4.651,4.6477,4.7206,4.7371,4.7504,4.7901,4.8001,4.7769,4.704,4.6576,4.6046,4.5284,4.5185,4.492,4.4191,4.4092,4.3992,4.3631,4.3234,4.2837,4.2506,4.1806,4.1077,4.0475,4.0011,3.9647,3.9315,3.8952,3.8898,3.9255,3.8564,3.7981,3.7681,3.7213,3.6364,3.5134,3.5039,3.4555,3.3683,3.3683,3.3204,7.6622,7.8179,7.8809,7.9339,7.7219,7.4005,7.0229,6.6254,6.1748,5.6084,5.3003,5.0551,4.7901,4.9458,5.2175,5.5388,6.0854,6.6949,7.3541,7.5165,7.6722,7.9438,7.9107,7.7881,7.5894,7.6159,7.6125,7.533,7.4719,7.4354,7.4354,7.4255,7.4221,7.4221,7.4122,7.3011,7.0924,7.0693,6.8871,6.5425,6.5227,6.41,6.2221,6.2122,6.1682,6.1119,6.1119,0.0,6.0721,5.9429,5.8403,5.7574,5.6945,5.6316,5.5714,5.5615,5.5185,5.4361,5.2274,5.1148,5.0585,5.0187,5.0121,5.0187,5.0088,5.0187,5.0187,4.9359,4.873,4.8266,4.8166,4.7669,4.7338,4.7868,4.8001,4.8001,4.8001,4.8001,4.7802,4.7173,4.704,4.6808,4.6046,4.5947,4.5682,4.4984,4.4851,4.4622,4.3962,4.3698,4.3333,4.2704,4.2539,4.1972,4.0613,4.0475,4.0111,3.9348,3.9315,3.9315,3.9315,3.9315,3.9017,3.8361,3.8261,3.763,3.6462,3.6365,3.577,3.4654,3.4654,3.3977,7.8709,7.9285,7.9306,7.8842,7.6092,7.2382,6.8076,6.2378,5.6713,5.2108,4.8431,4.5682,4.4558,4.7669,5.1943,5.6647,6.2312,6.844,7.4999,7.7119,7.8577,8.0299,7.9869,7.9041,7.8047,7.7517,7.6689,7.5363,7.5216,7.5098,7.5098,7.4553,7.4221,7.4221,7.3608,7.2515,7.0924,6.9666,6.7844,6.5392,6.42,6.3183,6.2188,6.155,6.1218,6.1119,6.1119,0.0,5.9264,5.8999,5.8104,5.6879,5.6746,5.6614,5.6448,5.5852,5.5516,5.5152,5.3599,5.297,5.2473,5.0088,4.9723,5.0088,4.9491,5.0121,5.0817,4.9491,4.9458,4.969,4.9094,4.8829,4.8597,4.81,4.8001,4.8001,4.8001,4.8001,4.7968,4.7835,4.7802,4.757,4.6841,4.6709,4.6444,4.5715,4.5616,4.5549,4.5417,4.4327,4.3532,4.3433,4.2837,4.2142,4.1309,4.0713,4.0111,3.9348,3.9315,3.9315,3.9315,3.9315,3.9249,3.9116,3.8526,3.8077,3.784,3.7239,3.6825,3.6591,3.6591,3.5915,8.1393,8.1923,8.1558,8.0034,7.6357,7.1455,6.516,5.8899,5.297,4.7802,4.4754,4.2767,4.2071,4.5516,4.9525,5.2738,5.7541,6.3537,7.1256,7.3276,7.5662,8.0167,8.0399,7.9902,7.9173,7.808,7.6954,7.5894,7.5132,7.4701,7.4701,7.442,7.4221,7.4221,7.3475,7.2216,7.0361,6.9235,6.7413,6.4862,6.3802,6.2917,6.2188,6.145,6.1119,6.1119,6.1119,0.0,5.9993,5.9231,5.8469,5.7773,5.6978,5.668,5.6614,5.5885,5.5582,5.5317,5.35,5.287,5.2539,5.0386,5.0187,5.0618,4.9922,5.0419,5.1083,4.9988,5.022,5.0585,4.9856,4.969,4.9491,4.8763,4.8564,4.8564,4.8564,4.8564,4.8564,4.8564,4.8266,4.7901,4.7537,4.7471,4.7206,4.6477,4.6378,4.6212,4.5847,4.5185,4.4589,4.4224,4.386,4.3032,4.1541,4.111,4.0448,3.9381,3.9315,3.9315,3.9315,3.9315,3.9315,3.9315,3.8924,3.8758,3.8758,3.8427,3.8063,3.7665,3.7665,3.6953,8.3016,8.3645,8.3148,8.0631,7.6026,7.0129,6.2411,5.5852,4.9856,4.4459,4.2204,4.1011,4.0509,4.3429,4.6709,4.8961,5.2473,5.8038,6.6982,6.9401,7.268,7.9206,8.0399,8.0399,7.9703,7.8146,7.692,7.6357,7.4999,7.4221,7.4221,7.4221,7.4221,7.4221,7.331,7.1885,6.9798,6.9069,6.7148,6.4133,6.3703,6.2941,6.1914,6.1351,6.1119,6.1119,6.1119,0.0,0.0,5.9363,5.8701,5.8303,5.7144,5.668,5.6614,5.6051,5.5852,5.5587,5.3732,5.297,5.2605,5.1148,5.0949,5.1183,5.0419,5.0717,5.1183,5.0585,5.085,5.1183,5.0585,5.0452,5.0253,4.9525,4.9226,4.916,4.9326,4.9226,4.9094,4.9094,4.863,4.8199,4.8034,4.8001,4.7802,4.7206,4.7139,4.6941,4.6344,4.6278,4.598,4.5251,4.4887,4.386,4.1811,4.164,4.111,3.9846,3.9613,3.9547,3.9547,3.9381,3.9315,3.9315,3.9315,3.9315,3.9315,3.9315,3.9017,3.846,3.846,3.7788,8.1757,8.2486,8.2154,7.861,7.3376,6.7347,6.0622,5.3533,4.7305,4.34,4.1475,4.0475,4.0409,4.1773,4.4489,4.9326,5.158,5.5951,6.5392,6.9666,7.3276,7.7252,7.9471,8.0399,7.9703,7.7682,7.639,7.6324,7.4999,7.4221,7.4221,7.4221,7.4221,7.4221,7.2813,7.1355,6.9798,6.9069,6.6916,6.3415,6.3935,6.3173,6.1218,6.1152,6.1119,6.1119,6.1119,0.0,0.0,5.8966,5.8104,5.6879,5.6746,5.668,5.668,5.6614,5.6581,5.6448,5.562,5.4854,5.4096,5.2638,5.1812,5.1183,5.0419,5.0717,5.1282,5.1249,5.1249,5.1282,5.1216,5.1216,5.0982,5.0286,4.9591,4.9293,4.9955,4.9591,4.9094,4.9094,4.9061,4.8796,4.8133,4.8001,4.7968,4.7901,4.7901,4.7868,4.7802,4.7802,4.7504,4.6775,4.5483,4.4059,4.2506,4.2406,4.2042,4.1276,4.0613,4.031,4.031,3.968,3.9315,3.9315,3.9315,3.9315,3.9315,3.9315,3.9282,3.9216,3.9216,3.8765,8.1128,8.2983,8.3248,7.9107,7.3343,6.685,5.9827,5.2572,4.6278,4.2601,4.0713,3.9746,3.9746,4.0575,4.2336,4.5682,4.6344,4.9293,5.7475,6.0291,6.4299,7.1918,7.4767,7.6887,7.8776,7.7749,7.6424,7.5132,7.4502,7.4221,7.4221,7.4221,7.4221,7.4221,7.2746,7.1488,7.0461,6.9268,6.7314,6.4564,6.4399,6.3637,6.2378,6.1516,6.1351,6.1715,6.1285,0.0,0.0,5.9065,5.827,5.7309,5.6846,5.668,5.668,5.668,5.668,5.6581,5.5885,5.5383,5.492,5.3467,5.3102,5.2771,5.0286,5.0353,5.1216,5.075,5.128,5.1978,5.1978,5.1647,5.1249,5.0916,5.0618,5.0485,5.0783,5.0618,5.0419,5.0419,5.0055,4.9525,4.8796,4.8663,4.8531,4.8067,4.8001,4.8001,4.8001,4.8001,4.7736,4.6974,4.6378,4.5251,4.3333,4.3168,4.2638,4.1446,4.1143,4.0812,4.0442,4.0111,3.9746,3.9315,3.9315,3.9315,3.9315,3.9315,3.9315,3.9315,3.9315,3.9149,7.8345,8.1326,8.2552,7.8544,7.2614,6.5922,5.9032,5.181,4.5582,4.2137,4.0282,3.9315,3.9315,3.9713,4.0807,4.2903,4.3201,4.5549,5.244,5.4792,5.88,6.6916,6.9798,7.2581,7.6225,7.6887,7.6357,7.4635,7.4354,7.4221,7.4221,7.4221,7.4072,7.3873,7.2448,7.1322,7.0593,6.9103,6.738,6.5392,6.4664,6.3835,6.2951,6.1682,6.1251,6.1516,6.0986,0.0,0.0,5.88,5.8138,5.7409,5.6879,5.668,5.668,5.668,5.668,5.6614,5.6117,5.5747,5.5416,5.4357,5.4262,5.3964,5.0982,5.0783,5.1547,5.0982,5.1578,5.2409,5.2409,5.2011,5.1647,5.1647,5.1481,5.1382,5.158,5.1448,5.1315,5.1315,5.0883,5.0286,4.9558,4.9425,4.9193,4.8431,4.8332,4.8266,4.8034,4.8001,4.7802,4.7272,4.7239,4.6411,4.4423,4.383,4.3234,4.2435,4.1972,4.1508,4.1044,4.0641,4.0177,3.9647,3.9415,3.9315,3.9315,3.9315,3.9315,3.9315,3.9315,3.9315,7.2581,7.639,7.8974,7.6059,7.0328,6.3902,5.8038,5.1048,4.4953,4.2005,4.0282,3.9315,3.9315,3.9315,4.0011,4.2142,4.3727,4.6709,5.2605,5.6547,5.996,6.3017,6.526,6.8042,7.172,7.4635,7.6026,7.533,7.4619,0.0,7.4221,7.4221,7.384,7.3144,7.1686,7.056,6.9798,6.8374,6.6883,6.5392,6.4697,6.3647,6.2188,6.145,6.0721,0.0,0.0,0.0,0.0,5.7806,5.7376,5.6713,5.668,5.668,5.668,5.668,5.668,5.668,5.668,5.6216,5.5582,5.5582,5.5085,5.4229,5.2804,5.2409,5.2409,5.2409,5.2409,5.2409,5.2409,5.2373,5.2409,5.2409,5.1846,5.1514,5.2243,5.1846,5.1315,5.1315,5.1315,5.1048,5.032,5.0187,4.9955,4.9193,4.9094,4.8829,4.81,4.8001,4.8001,4.8001,4.8001,4.7404,4.5881,4.4456,4.3896,4.4622,4.3297,4.2473,4.2473,4.1143,4.0409,4.0409,3.968,3.9315,3.9315,3.9315,3.9315,3.9315,3.9315,3.9315,6.5028,6.7744,6.9103,6.569,6.1748,5.7535,5.3235,4.8531,4.4357,4.1905,4.0282,3.9315,3.9315,3.9315,4.0509,4.4158,4.5152,4.6808,5.0684,5.5222,5.9429,6.2917,7.0063,7.4966,7.5628,7.6059,7.5794,7.4652,7.4354,7.4221,7.4221,7.3707,7.3343,7.3111,7.215,7.1057,6.9798,6.8837,6.738,6.5425,6.5194,6.4332,6.2951,6.2221,6.145,0.0,0.0,0.0,0.0,5.7806,5.7342,5.668,5.668,5.668,5.668,5.668,5.668,5.668,5.668,5.6547,5.6282,5.5747,5.5786,5.5719,5.4295,5.35,5.3003,5.2506,5.2409,5.2409,5.2409,5.2409,5.2409,5.2409,5.2243,5.2144,5.2376,5.2243,5.2078,5.2078,5.2078,5.1846,5.1082,5.0949,5.0684,4.9955,4.9425,4.9028,4.8796,4.8332,4.8001,4.8001,4.7537,4.6841,4.5881,4.5384,4.4787,4.4026,4.3499,4.3035,4.2506,4.2071,4.1607,4.1077,4.0845,4.0514,4.0044,4.0044,3.9779,3.9315,3.9315,3.9315,5.8237,6.1285,6.2842,6.0556,5.7574,5.4394,5.1313,4.7338,4.3727,4.1806,4.0282,3.9381,3.968,3.9481,4.0442,4.3992,4.4787,4.6113,4.9326,5.393,5.8634,6.314,7.0759,7.5463,7.4999,7.5529,7.5562,7.4668,7.4387,7.4221,7.4221,7.3508,7.2978,7.2713,7.1985,7.1024,6.9798,6.8771,6.7612,6.6254,6.5127,6.4133,6.3282,6.2245,6.1384,0.0,0.0,0.0,0.0,5.7806,5.7342,5.668,5.668,5.668,5.668,5.668,5.668,5.668,5.668,5.668,5.6614,5.6183,5.5951,5.5686,5.4792,5.3997,5.3268,5.2572,5.2409,5.2409,5.2409,5.2409,5.2409,5.2409,5.2409,5.2409,5.2409,5.2409,5.2409,5.2409,5.2409,5.2241,5.1812,5.1713,5.1446,5.0717,4.9988,4.9425,4.916,4.8465,4.8001,4.8001,4.7603,4.7007,4.6278,4.5947,4.5516,4.4887,4.4324,4.3827,4.3363,4.28,4.2274,4.1811,4.1513,4.121,4.0779,4.0514,4.0177,3.9713,3.9415,3.9315,0.0,5.615,5.88,5.8701,5.615,5.3135,5.1048,4.6874,0.0,4.1612,4.0249,3.9547,4.0409,3.9912,4.0144,4.2535,4.3466,4.5154,4.8763,5.3298,5.8429,6.4332,6.8771,7.1289,7.1156,7.3641,7.5264,7.5249,7.4619,7.4188,7.4105,7.3409,7.268,7.1951,7.1156,7.0394,6.9633,6.8241,6.7466,6.74,6.4664,6.3382,6.3282,6.1815,6.0755,0.0,0.0,0.0,0.0,5.774,5.7309,5.668,5.668,5.668,5.668,5.668,5.668,5.668,5.668,5.668,5.668,5.668,5.5786,5.4659,5.4523,5.3964,5.3202,5.2572,5.2409,5.2409,5.2409,5.2409,5.2409,5.2409,5.2409,5.2409,5.2409,5.2409,5.2409,5.2409,5.2409,5.2409,5.2409,5.2409,5.2177,5.1481,5.075,5.0021,4.9293,4.8531,4.8067,4.8001,4.8001,4.7736,4.704,4.6311,4.6113,4.6709,4.545,4.4655,4.4622,4.333,4.2572,4.2572,4.1844,4.1475,4.1409,4.0713,4.0376,4.031,3.9613,3.9315,4.4194,0.0,4.7173,4.6079,4.5549,4.5022,0.0,4.28,4.1674,4.0812,3.9912,3.9846,4.1674,4.0978,4.1602,4.598,4.6841,4.7868,5.0419,5.7906,6.5293,7.1156,7.4237,7.5231,7.3575,7.4535,7.5083,7.452,7.4321,7.3939,7.3376,7.2647,7.1918,7.1189,6.9898,6.8871,6.8142,6.7202,6.6485,6.5922,6.4697,6.3835,6.3282,6.2345,6.1218,0.0,0.0,0.0,5.774,5.7177,5.6846,5.668,5.668,5.668,5.668,5.668,5.668,5.668,5.668,5.668,5.668,5.668,5.6448,5.5984,5.4858,5.3632,5.2572,5.2407,5.2409,5.2409,5.2409,5.2409,5.2409,5.2409,5.2409,5.2409,5.2409,5.2409,5.2409,5.2409,5.2409,5.2409,5.2409,5.2409,5.2343,5.2177,5.1479,5.0783,5.0055,4.9326,4.863,4.8067,4.8001,4.7934,4.7769,4.7073,4.6212,4.5284,4.4887,4.4456,4.3893,4.3532,4.3333,4.3333,4.2605,4.1943,4.1409,4.0713,4.0111,3.9547,3.9381,3.9315,4.1143,4.2734,4.4423,4.3628,4.3727,4.3926,4.3529,4.2137,4.0845,4.0475,3.9812,3.9846,4.1674,4.1375,4.2204,4.6311,4.7272,4.9326,5.456,6.1119,6.7479,7.3011,7.4999,7.5595,7.4818,7.4734,7.4652,7.4255,7.3873,7.3508,7.3144,7.2084,7.1322,7.0924,6.9136,6.8175,6.8109,6.7049,6.632,6.5922,6.4531,6.367,6.3282,6.2179,6.1251,0.0,0.0,0.0,5.8734,5.7641,5.7177,5.7144,5.6812,5.668,5.668,5.668,5.668,5.668,5.668,5.668,5.668,5.668,5.6481,5.5984,5.4821,5.3732,5.2771,5.2473,5.2605,5.2771,5.2473,5.2409,5.2409,5.2409,5.2409,5.2409,5.2409,5.2409,5.2409,5.2409,5.2409,5.2409,5.2409,5.2409,5.2409,5.2409,5.1779,5.1183,5.075,4.9756,4.8961,4.8564,4.8199,4.8001,4.8001,4.7636,4.7073,4.6245,4.5881,4.5384,4.4655,4.4291,4.3959,4.3598,4.3201,4.2804,4.2406,4.1707,4.1143,4.0746,4.0111,3.9812,4.0812,4.3363,4.5947,4.5152,4.5218,4.5417,4.5185,4.2667,4.0409,4.0409,3.9912,3.9978,4.1607,4.2104,4.3264,4.6311,4.7868,5.1678,6.0125,6.4067,6.7844,7.2548,7.384,7.4502,7.49,7.4469,7.4155,7.4005,7.3442,7.3011,7.278,7.1587,7.0792,7.056,6.8639,6.7877,6.8341,6.7016,6.6287,6.6187,6.42,6.3249,6.3116,6.1715,6.1119,6.1053,0.0,0.0,5.9728,5.8237,5.7608,5.7574,5.7044,5.6779,5.6713,5.6812,5.6779,5.668,5.668,5.668,5.668,5.668,5.6282,5.5615,5.4887,5.4225,5.3599,5.2904,5.297,5.3135,5.2672,5.2509,5.2409,5.2409,5.2409,5.2409,5.2409,5.2409,5.2409,5.2409,5.2409,5.2409,5.2409,5.2409,5.2409,5.2409,5.1879,5.1448,5.1315,5.0121,4.9226,4.9127,4.8431,4.8001,4.8001,4.8001,4.8001,4.8001,4.7305,4.651,4.5649,4.5019,4.4357,4.3598,4.3598,4.3532,4.3433,4.2804,4.244,4.2274,4.111,4.0509,4.1905,4.4854,4.6643,4.2332,4.2601,4.3598,4.2369,4.121,4.0409,4.0409,4.031,4.1039,4.3694,4.5218,4.7239,5.0818,5.456,5.9463,6.6386,6.8374,7.0096,7.278,7.4303,7.4668,7.3541,7.3873,7.3906,7.331,7.3177,7.2548,7.1289,7.1024,7.0328,6.9069,6.8109,6.7334,6.685,6.6022,6.5293,6.4697,6.3779,6.2984,6.2354,6.1483,6.1119,6.102,0.0,5.9065,5.8933,5.7475,5.6846,5.6912,5.7409,5.7243,5.6779,5.7376,5.7243,5.668,5.668,5.668,5.668,5.668,5.6614,5.6382,5.5648,5.535,5.5085,5.4394,5.34,5.2638,5.3135,5.2837,5.2409,5.2409,5.2409,5.2409,5.2409,5.2409,5.2409,5.2409,5.2409,5.2409,5.2409,5.2409,5.2409,5.2409,5.231,5.2011,5.1382,5.0551,4.979,4.916,4.8431,4.8001,4.8001,4.8001,4.8001,4.8001,4.7305,4.6278,4.4951,4.4754,4.4357,4.3598,4.3598,4.3267,4.2671,4.2539,4.2175,4.1574,4.1375,4.0945,4.1177,4.3727,4.5649,4.3326,4.5251,4.7272,4.5384,4.3794,4.2862,4.326,4.2999,4.3363,4.5483,4.8365,5.2009,5.6917,6.0026,6.3173,6.6982,6.8473,7.003,7.225,7.3442,7.4005,7.3707,7.3641,7.3475,7.3144,7.2382,7.1455,7.0361,6.9931,6.9202,6.8142,6.7413,6.6804,6.6519,6.5425,6.4697,6.4365,6.368,6.2917,6.2188,6.145,6.1119,6.102,0.0,5.9131,5.9363,5.7475,5.6912,5.7276,5.721,5.6978,5.6713,5.7077,5.6978,5.668,5.668,5.668,5.668,5.668,5.668,5.6547,5.5852,5.5582,5.5516,5.5185,5.4063,5.3003,5.3334,5.2904,5.2409,5.2409,5.2409,5.2409,5.2409,5.2409,5.2409,5.2409,5.2409,5.2409,5.2409,5.2409,5.2409,5.2409,5.2409,5.231,5.1945,5.1247,5.0518,4.979,4.9028,4.8431,4.8034,4.8001,4.8001,4.8001,4.7305,4.6411,4.5317,4.4887,4.4357,4.3598,4.3598,4.3433,4.3069,4.3069,4.2903,4.2572,4.2175,4.164,4.1271,4.3293,4.5152,4.4986,4.7669,5.0088,4.9425,4.7438,4.6113,4.7537,4.7106,4.6841,4.7968,5.2042,5.7011,6.2543,6.4962,6.6684,6.8109,6.9268,7.0593,7.2316,7.3011,7.3508,7.3873,7.3442,7.2978,7.2614,7.1554,7.0494,6.9599,6.9003,6.8274,6.7334,6.6771,6.6353,6.6022,6.4929,6.4299,6.41,6.3415,6.2685,6.1914,6.1351,6.1119,6.102,5.9529,5.9231,5.9595,5.7541,5.7011,5.7475,5.7111,5.6945,5.6912,5.6746,5.668,5.668,5.668,5.668,5.668,5.668,5.668,5.6581,5.6051,5.5752,5.5615,5.5819,5.4825,5.3665,5.3665,5.3169,5.2572,5.2407,5.2409,5.2409,5.2409,5.2409,5.2409,5.2409,5.2409,5.2409,5.2409,5.2409,5.2409,5.2409,5.2409,5.2409,5.2409,5.1779,5.1048,5.0518,4.9657,4.8796,4.8067,4.8001,4.8001,4.8001,4.7471,4.6808,4.6079,4.5351,4.4622,4.3863,4.3698,4.3598,4.3598,4.3598,4.3598,4.3598,4.3002,4.234,4.3827,4.5516,4.6576,4.5881,4.6477,4.8233,5.2142,5.0817,4.9756,5.3202,5.2771,5.1877,5.2011,5.668,6.2013,6.6485,6.9599,7.1951,7.3409,7.3757,7.389,7.4056,7.4122,7.384,7.3243,7.3144,7.2548,7.1156,7.0958,7.0262,6.8837,6.8705,6.8042,6.6606,6.6552,6.5889,6.4531,6.4432,6.4078,6.3382,6.2652,6.1881,6.1185,6.1119,6.1119,6.102,5.9529,5.8933,5.8866,5.7309,5.6713,5.6812,5.7475,5.7707,5.7641,5.6945,5.668,5.668,5.668,5.668,5.668,5.668,5.668,5.668,5.6614,5.615,5.5714,5.6415,5.5554,5.439,5.439,5.3897,5.3169,5.2539,5.2409,5.2409,5.2409,5.2409,5.2409,5.2409,5.2409,5.2409,5.2409,5.2409,5.2409,5.2409,5.2409,5.2409,5.2409,5.1779,5.1282,5.1249,4.9955,4.8796,4.8067,4.8001,4.8001,4.8001,4.7968,4.7603,4.6841,4.6113,4.5351,4.4622,4.3959,4.3598,4.3598,4.3598,4.3598,4.3598,4.3532,4.3135,4.2435,4.439,4.6146,4.5847,4.7703,5.0419,5.34,5.3632,5.4328,5.8436,5.8833,5.8906,6.0225,6.1914,6.4531,6.8937,7.1355,7.3045,7.4089,7.4221,7.4221,7.4221,7.3773,7.3409,7.3144,7.2283,7.1488,7.0924,7.003,6.9103,6.8076,6.7579,6.6684,6.5227,6.5194,6.4697,6.3746,6.3282,6.2917,6.2619,6.2354,6.1781,6.1119,6.1119,6.0854,6.0357,5.933,5.8634,5.8138,5.7111,5.668,5.6713,5.7011,5.7111,5.7077,5.6779,5.668,5.668,5.668,5.668,5.668,5.668,5.668,5.668,5.668,5.6514,5.6349,5.6614,5.6282,5.5752,5.5284,5.4328,5.3367,5.3069,5.2705,5.2409,5.2409,5.2409,5.2409,5.2409,5.2409,5.2409,5.2409,5.2409,5.2409,5.2409,5.2409,5.2409,5.2409,5.2177,5.1812,5.1348,4.9988,4.8995,4.873,4.8266,4.8001,4.8001,4.8001,4.7669,4.6941,4.6643,4.5914,4.4718,4.4423,4.4059,4.3598,4.3598,4.3598,4.3598,4.3598,4.3201,4.1844,4.3562,4.545,4.545,4.8564,5.2506,5.5852,5.6978,5.8734,6.357,6.3637,6.3372,6.5094,6.5194,6.6154,6.9633,7.2018,7.3608,7.4155,7.4221,7.4122,7.3873,7.3409,7.2912,7.2448,7.1488,7.0693,7.0229,6.9268,6.8274,6.7268,6.6585,6.5624,6.4432,6.4167,6.3713,6.2984,6.2453,6.2089,6.1848,6.1616,6.1218,6.0755,6.0755,6.0357,5.9595,5.8866,5.827,5.774,5.6978,5.668,5.668,5.668,5.668,5.668,5.668,5.668,5.668,5.668,5.668,5.668,5.668,5.668,5.668,5.668,5.668,5.668,5.668,5.668,5.6581,5.6084,5.5057,5.4063,5.3794,5.34,5.3069,5.3069,5.287,5.2705,5.2705,5.2539,5.2409,5.2409,5.2409,5.2409,5.2409,5.2409,5.2409,5.2409,5.2409,5.2144,5.1382,5.0386,4.9624,4.916,4.8663,4.8266,4.8001,4.8001,4.7769,4.7272,4.7007,4.6411,4.5384,4.492,4.4456,4.3959,4.3698,4.3598,4.3598,4.3598,4.3333,4.287,4.3595,4.4718,4.4752,4.863,5.3964,5.9794,6.1152,6.2808,6.8639,6.6916,6.4597,6.5326,6.6055,6.7016,6.8473,7.1786,7.4221,7.4221,7.4221,7.3906,7.3177,7.3078,7.2515,7.1024,7.0891,7.0262,6.8771,6.8672,6.8009,0.0,6.579,6.5061,6.4365,6.3637,6.2951,6.2188,6.2188,6.1781,6.1086,6.0357,5.9993,5.9993,5.9993,5.9595,5.8833,5.8104,5.7806,5.774,5.6978,5.668,5.668,5.668,5.668,5.668,5.668,5.668,5.668,5.668,5.668,5.668,5.668,5.668,5.668,5.668,5.668,5.668,5.668,5.668,5.668,5.668,5.615,5.5416,5.4688,5.449,5.4494,5.449,5.393,5.34,5.34,5.287,5.2407,5.2409,5.2409,5.2409,5.2409,5.2409,5.2409,5.2409,5.2409,5.2144,5.1415,5.1315,5.0684,4.926,4.9127,4.8796,4.8067,4.8001,4.8001,4.8001,4.7305,4.6908,4.6908,4.545,4.4718,4.4688,4.3992,4.3598,4.3598,4.3598,4.3598,4.287,4.3595,4.5185,4.7272,5.2009,5.7442,6.2278,6.3372,6.516,7.1554,7.0792,6.9169,6.9931,6.9368,6.9136,7.0096,7.2051,7.3442,7.3442,7.3442,7.3144,7.2415,7.1885,7.1189,7.0229,6.9666,6.897,6.8009,6.6982,6.6187,0.0,6.4564,6.357,6.2884,6.2652,6.1914,6.0655,6.0655,6.0291,5.9562,5.933,5.9496,5.9993,5.9463,5.8833,5.8104,5.7873,5.7508,5.7011,5.6779,5.668,5.668,5.668,5.668,5.668,5.668,5.668,5.668,5.668,5.668,5.668,5.668,5.668,5.668,5.668,5.668,5.668,5.668,5.668,5.668,5.668,5.6514,5.6183,5.5454,5.4456,5.3897,5.4357,5.393,5.34,5.34,5.3235,5.2937,5.2473,5.2409,5.2409,5.2409,5.2409,5.2409,5.2409,5.2409,5.2343,5.2111,5.1614,5.1149,5.0651,4.969,4.9028,4.8796,4.8299,4.8001,4.8001,4.7802,4.7438,4.6908,4.6477,4.598,4.545,4.4721,4.4357,4.4357,4.383,4.3598,4.3827,4.4655,4.6477,5.032,5.5222,6.049,6.5724,6.7612,6.9434,7.374,7.2879,7.1554,7.2316,7.1223,7.0461,7.1223,7.2581,7.3442,7.3144,7.3111,7.2614,7.1289,7.0726,7.0063,6.9036,6.8539,6.7844,6.6817,6.5922,0.0,0.0,6.3471,6.2685,6.2221,6.1923,6.1185,6.0026,5.9993,5.9628,5.8899,5.8601,5.8701,5.9098,5.8668,5.8071,5.7342,5.7342,5.7111,5.668,5.668,5.668,5.668,5.668,5.668,5.668,5.668,5.668,5.668,5.668,5.668,5.668,5.668,5.668,5.668,5.668,5.668,5.668,5.668,5.668,5.668,5.668,5.668,5.6581,5.615,5.5355,5.4825,5.5289,5.4792,5.4195,5.3897,5.3864,5.3533,5.2539,5.2605,5.2705,5.2407,5.2409,5.2409,5.2409,5.2409,5.2409,5.2409,5.2011,5.1614,5.1348,5.0485,4.9723,4.916,4.8696,4.8299,4.8001,4.8001,4.7802,4.7338,4.704,4.6676,4.6245,4.5483,4.4986,4.4688,4.4556,4.4161,4.5218,4.6444,4.8398,5.3765,5.8634,6.3703,6.9798,7.278,7.4487,7.5065,7.3641,7.2515,7.3177,7.215,7.1421,7.2084,7.331,7.3906,7.3111,7.3011,7.2183,6.9964,6.9699,6.9136,6.7632,6.7433,6.685,6.5425,6.5194,0.0,0.0,6.2453,6.2022,6.2022,6.1351,6.0622,5.9827,5.986,5.9496,5.8701,5.8005,5.7707,5.7707,5.7707,5.7309,5.668,5.668,5.668,5.668,5.668,5.668,5.668,5.668,5.668,5.668,5.668,5.668,5.668,5.668,5.668,5.668,5.668,5.668,5.668,5.668,5.668,5.668,5.668,5.668,5.668,5.668,5.668,5.668,5.668,5.6647,5.6614,5.668,5.6117,5.5383,5.4721,5.4589,5.4162,5.2705,5.3003,5.3169,5.2473,5.2409,5.2409,5.2409,5.2409,5.2409,5.2409,5.2409,5.2144,5.1481,5.1348,5.0684,4.9293,4.916,4.8763,4.8034,4.8001,4.8001,4.8001,4.7338,4.7007,4.7007,4.6245,4.5549,4.4887,4.5516,4.5086,4.5351,4.7173,5.0419,5.7839,6.473,7.0328,7.2879,7.427,7.4951,7.4502,7.4502,7.4635,7.4767,7.4072,7.3508,7.3674,7.3972,7.3707,7.2415,7.225,7.1421,6.9202,6.8937,6.8341,6.6916,6.622,6.5525,6.4664,0.0,0.0,6.2453,6.1185,6.0456,6.0456,6.0324,5.9595,5.827,5.8833,5.8469,0.0,5.7011,5.6912,5.6912,5.6912,5.6846,5.668,5.668,5.668,5.668,5.668,5.668,5.668,5.668,5.668,5.668,5.668,5.668,5.668,5.668,5.668,5.668,5.668,5.668,5.668,5.668,5.668,5.668,5.668,5.668,5.668,5.668,5.668,5.668,5.668,5.6249,5.6017,5.6547,5.6117,5.5549,5.5383,5.535,5.4887,5.3434,5.3301,5.3169,5.2473,5.2409,5.2409,5.2409,5.2409,5.2409,5.2409,5.2409,5.2343,5.221,5.1647,5.0916,5.0021,4.9425,4.8763,4.8034,4.8001,4.8001,4.8001,4.7835,4.7769,4.7769,4.7007,4.6576,4.6411,4.598,4.5616,4.6079,4.873,5.287,6.1947,6.8407,7.2813,7.3906,7.452,7.4635,7.4288,7.4818,7.5165,7.48,7.4487,7.4221,7.4221,7.3873,7.3276,7.215,7.1388,7.0262,6.8407,6.7877,6.7082,6.5624,6.516,6.4465,6.3448,0.0,6.1516,6.1152,6.0059,5.9463,5.9463,5.9463,5.8933,5.7806,5.8171,5.7641,5.6183,5.6183,5.6183,5.6183,5.6514,5.668,5.668,5.668,5.668,5.668,5.668,5.668,5.668,5.668,5.668,5.668,5.668,5.668,5.668,5.668,5.668,5.668,5.668,5.668,5.668,5.668,5.668,5.668,5.668,5.668,5.668,5.668,5.668,5.668,5.668,5.6415,5.6216,5.6614,5.6415,5.6017,5.5648,5.5582,5.5218,5.4092,5.3632,5.3301,5.2937,5.2605,5.2506,5.2837,5.2572,5.2409,5.2409,5.2409,5.2409,5.2409,5.2078,5.1479,5.075,5.0353,4.9657,4.8564,4.8531,4.8365,4.8001,4.8001,4.8001,4.8001,4.7603,4.7239,4.6908,4.6874,4.6477,4.6311,5.0485,5.5951,6.5293,7.0295,7.3144,7.3972,7.4221,7.4221,7.4221,7.4719,7.49,7.4321,7.4221,7.4188,7.4005,7.3508,7.2746,7.1753,7.056,6.9202,6.7612,6.6784,6.5823,6.4498,6.4133,6.3504,0.0,0.0,6.0788,6.0059,5.9297,5.8833,5.8701,5.8701,5.8303,5.7442,5.7541,5.6879,5.5383,5.5383,5.5383,5.5416,5.6183,5.6581,5.668,5.668,5.668,5.668,5.668,5.668,5.668,5.668,5.668,5.668,5.668,5.668,5.668,5.668,5.668,5.668,5.668,5.668,5.668,5.668,5.668,5.668,5.668,5.668,5.668,5.668,5.668,5.668,5.668,5.668,5.668,5.668,5.668,5.6514,5.5918,5.5681,5.535,5.4622,5.396,5.3566,5.3434,5.2937,5.2804,5.35,5.287,5.2407,5.2539,5.244,5.2409,5.2409,5.2409,5.2111,5.1348,5.1315,5.0684,4.9359,4.916,4.8829,4.8199,4.8067,4.8001,4.8001,4.8001,4.7703,4.7106,4.7736,4.7338,4.4291,5.191,6.0357,6.6187,6.9898,7.2515,7.3873,7.4221,7.4221,7.4221,7.4288,7.4354,7.4255,7.4221,7.3972,7.3343,7.3177,7.2415,7.0361,6.9931,6.9036,6.6916,6.6022,6.526,6.4465,6.3249,6.242,0.0,6.1516,6.0788,6.0059,5.9297,5.8601,5.7972,5.7939,5.7276,5.588,5.6514,5.6117,5.4659,5.4659,5.4659,5.4655,5.5383,5.6117,5.668,5.668,5.668,5.668,5.668,5.668,5.668,5.668,5.668,5.668,5.668,5.668,5.668,5.668,5.668,5.668,5.668,5.668,5.668,5.668,5.668,5.668,5.668,5.668,5.668,5.668,5.668,5.668,5.668,5.668,5.668,5.668,5.668,5.6647,5.6547,5.6051,5.535,5.4622,5.439,5.4162,5.35,5.3334,5.3533,5.4258,5.3202,5.2605,5.3202,5.2738,5.2409,5.2409,5.2409,5.2111,5.1348,5.1315,5.0916,5.0088,4.9458,4.9061,4.8961,4.8332,4.8001,4.8001,4.8001,4.7968,4.7868,4.7968,4.7901,4.684,5.287,5.9065,6.5381,6.8572,7.0759,7.3045,7.3243,7.3078,7.3475,7.2912,7.2581,7.3409,7.3575,7.321,7.2051,7.1521,7.0759,6.9368,6.8473,6.7612,6.6651,6.5525,6.4564,6.3835,6.2444,6.1384,0.0,5.9893,5.9098,5.8767,5.8071,5.7508,5.7177,5.6779,5.6282,5.5582,5.5521,5.4957,5.3861,5.3861,5.3861,5.393,5.4659,5.5421,5.6117,5.6514,5.668,5.668,5.668,5.668,5.668,5.668,5.668,5.668,5.668,5.668,5.668,5.668,5.668,5.668,5.668,5.668,5.668,5.668,5.668,5.668,5.668,5.668,5.668,5.668,5.668,5.668,5.668,5.668,5.668,5.668,5.668,5.6581,5.6183,5.615,5.5852,5.4725,5.4821,5.4986,5.4655,5.4258,5.4258,5.5019,5.3864,5.3069,5.3367,5.2804,5.2409,5.2409,5.2409,5.2277,5.1945,5.1945,5.1614,5.085,5.0485,4.9922,4.9127,4.8398,4.8001,4.8001,4.8001,4.8001,4.8001,4.8001,4.8001,4.6973,5.1048,5.5024,6.1781,6.5392,6.8042,7.0792,7.1421,7.1587,7.215,7.1388,7.0891,7.1819,7.215,7.1852,7.056,6.9864,6.9202,6.8274,6.7214,6.6386,6.6022,6.4862,6.3802,6.3116,6.1682,6.0589,0.0,5.88,5.8005,5.7806,5.7077,5.6614,5.6415,5.5719,5.5218,5.5019,5.4328,5.3699,5.3169,5.3169,5.3169,5.3169,5.3897,5.449,5.5085,5.6017,5.6316,5.615,5.6349,5.6415,5.6415,5.6415,5.6514,5.668,5.668,5.668,5.668,5.668,5.668,5.668,5.668,5.668,5.668,5.668,5.668,5.668,5.668,5.668,5.668,5.668,5.668,5.668,5.668,5.668,5.668,5.668,5.668,5.6514,5.5984,5.6316,5.6282,5.4986,5.5421,5.5852,5.5615,5.5118,5.5057,5.5786,5.4593,5.3765,5.3964,5.3334,5.2837,5.2672,5.2638,5.2572,5.2407,5.2409,5.2177,5.1614,5.1415,5.0684,4.9425,4.8663,4.8199,4.8001,4.8001,4.8001,4.8001,4.8001,4.8001,4.1077,4.4589,4.8597,5.3831,5.9396,6.4133,6.6353,6.844,6.9931,6.9964,6.9898,6.9666,6.9036,6.95,6.9699,6.8937,6.8771,6.8241,6.685,6.6585,6.6022,6.4664,6.3802,6.3083,6.2354,6.092,6.0059,0.0,5.9264,5.8535,5.7839,5.7077,5.6382,5.5648,5.492,5.4229,5.3533,5.2837,5.2473,5.244,5.244,5.244,5.244,5.3169,5.35,5.3599,5.5019,5.5251,5.4692,5.535,5.5648,5.5648,5.5648,5.6084,5.668,5.668,5.668,5.668,5.668,5.668,5.668,5.668,5.668,5.668,5.668,5.668,5.668,5.668,5.668,5.668,5.668,5.668,5.668,5.668,5.668,5.668,5.668,5.668,5.668,5.6647,5.6647,5.6448,5.5648,5.615,5.6415,5.5681,5.5549,5.5819,5.6547,5.5355,5.4688,5.5383,5.4821,5.4129,5.3434,5.3367,5.3069,5.2407,5.2409,5.2409,5.2343,5.168,5.0916,5.0187,4.9425,4.8696,4.8001,4.8001,4.8001,4.8001,4.8001,4.8001,4.0186,4.2816,4.6138,5.1183,5.5057,5.8469,6.1616,6.4034,6.5856,6.6784,6.6982,6.7049,6.7247,6.8274,6.8705,6.7479,6.7314,6.6784,6.5359,6.516,6.4763,6.3802,6.305,6.2122,6.0887,5.9463,5.8403,0.0,0.0,5.668,5.6415,5.615,5.5686,5.4887,5.3765,5.2572,5.138,5.1578,5.1713,5.1713,5.1713,5.1945,5.2407,5.2638,5.2738,5.2804,5.3765,5.4556,5.5218,5.5483,5.5885,5.6249,5.5747,5.6051,5.668,5.668,5.668,5.668,5.668,5.668,5.668,5.668,5.668,5.668,5.668,5.668,5.668,5.668,5.668,5.668,5.668,5.7044,5.7409,5.7409,5.7044,5.668,5.668,5.668,5.668,5.668,5.668,5.6614,5.6349,5.6514,5.6614,5.6349,5.6316,5.6415,5.6647,5.5852,5.5284,5.5549,5.492,5.4192,5.3467,5.34,5.3102,5.2407,5.2409,5.2409,5.2409,5.2177,5.1446,5.022,4.9955,4.9226,4.8001,4.8001,4.8001,4.8001,4.8001,4.8001,3.8728,4.0673,4.3535,4.833,5.0786,5.3102,5.7586,5.9702,6.1251,6.3206,6.3802,6.4266,6.526,6.622,6.6618,6.5889,6.5591,6.4995,6.3802,6.368,6.3272,6.2278,6.1748,6.0854,5.9396,5.8138,5.7111,0.0,0.0,0.0,5.5218,5.4986,5.4427,5.3467,5.2506,5.1446,5.022,5.0684,5.0916,5.0916,5.0916,5.1313,5.2045,5.2045,5.2177,5.2407,5.3102,5.3964,5.4854,5.4854,5.5454,5.6249,5.5521,5.5852,5.668,5.668,5.668,5.668,5.668,5.668,5.668,5.668,5.668,5.668,5.668,5.668,5.668,5.668,5.668,5.668,5.668,5.7044,5.7475,5.774,5.7243,5.668,5.668,5.6757,5.6757,5.6719,5.6757,5.6757,5.6719,5.668,5.668,5.668,5.668,5.668,5.668,5.6282,5.5984,5.5984,5.5554,5.4957,5.4192,5.3894,5.3467,5.2771,5.2506,5.2409,5.2409,5.2409,5.181,5.0585,5.0585,4.9856,4.8365,4.8133,4.8001,4.8001,4.8001,4.8001,0.0,0.0,0.0,4.479,4.6302,4.8265,5.415,5.5401,5.6178,5.9164,6.039,6.1384,6.2917,6.3183,6.3338,6.4001,6.3637,6.3017,6.2288,6.2155,6.1583,6.0125,5.9926,5.9363,5.7839,5.7044,0.0,0.0,5.4854,5.4456,5.4456,5.3765,5.2705,5.1315,5.1282,5.0883,5.0154,5.0187,5.0187,5.0187,5.0187,5.0585,5.1315,5.1315,5.1713,5.2407,5.3102,5.34,5.34,5.3434,5.4328,5.5549,5.4787,5.5421,5.668,5.668,5.668,5.668,5.668,5.668,5.668,5.668,5.668,5.668,5.6719,5.668,5.668,5.6719,5.6713,5.6713,5.6779,5.6746,5.6917,5.7641,5.7243,5.668,5.668,5.6872,5.6949,5.6757,5.6872,5.6949,5.6719,5.668,5.668,5.668,5.668,5.668,5.668,5.668,5.668,5.668,5.668,5.6415,5.5648,5.492,5.4229,5.3467,5.2771,5.2442,5.2409,5.2409,5.2078,5.1315,5.1315,5.0585,4.9127,4.8398,4.8034,4.8001,4.8001,4.8001,3.6673,0.0,0.0,0.0,0.0,0.0,4.5578,4.7801,5.0286,5.3765,5.5487,5.7111,5.9628,5.9661,5.9363,5.9562,6.1218,6.2255,6.1516,6.0953,6.0059,5.8568,5.8403,5.7608,5.562,0.0,0.0,0.0,5.3831,5.3732,5.3732,5.2539,5.1446,5.0518,5.0518,4.9889,4.863,4.916,4.9425,4.9425,4.9425,5.0055,5.1315,5.1315,5.1713,5.2407,5.2572,5.2937,5.3467,5.3997,5.5057,5.6316,5.5587,5.5885,5.668,5.668,5.668,5.668,5.668,5.668,5.668,5.668,5.668,5.6719,5.6872,5.6796,5.6719,5.6872,5.7194,5.774,5.88,5.8024,5.7205,5.8343,5.7608,5.668,5.668,5.6872,5.6987,5.6911,5.6949,5.6987,5.6911,5.6796,5.668,5.668,5.668,5.668,5.668,5.668,5.668,5.668,5.668,5.6415,5.5648,5.5383,5.4721,5.35,5.3235,5.2904,5.2442,5.2409,5.2078,5.1315,5.1315,5.0817,4.9922,4.916,4.8531,4.8001,4.8001,4.8066,3.7475,3.78,3.8882,4.0034,0.0,0.0,4.285,4.3886,4.5218,4.8862,5.0551,5.2241,5.5189,5.562,5.5719,5.6316,5.7873,5.8933,5.8833,5.8469,5.774,5.6547,5.6415,5.5819,5.4229,5.4026,5.3765,5.3036,5.297,5.297,5.297,5.191,5.0949,5.022,4.9922,4.9193,4.8001,4.8431,4.8663,4.8663,4.8663,4.9425,5.0817,5.0817,5.1413,5.2409,5.2409,5.2771,5.3434,5.3827,5.4725,5.5752,5.5322,5.562,5.6282,5.6581,5.668,5.668,5.668,5.668,5.668,5.668,5.6757,5.6834,5.6949,5.6987,5.6949,5.6987,5.7243,5.7764,5.8887,5.8147,5.7363,5.8368,5.7698,5.6834,5.6834,5.6987,5.7101,5.7025,5.7063,5.7101,5.7025,5.6911,5.6796,5.6719,5.668,5.668,5.668,5.668,5.668,5.668,5.668,5.6514,5.6117,5.5747,5.5218,5.4357,5.3765,5.3235,5.2837,5.2611,5.2281,5.185,5.1921,5.1555,5.0754,4.9956,4.9193,4.8465,4.8133,4.8033,3.8857,3.8732,3.9703,4.2143,4.0221,0.0,4.3132,4.2247,4.1437,4.4655,4.5881,4.7272,5.0188,5.1315,5.2175,5.3367,5.3765,5.4328,5.5416,5.5554,5.5222,5.4494,5.4394,5.4096,5.3367,5.3301,5.3036,5.2407,5.2409,5.2409,5.2409,5.1647,5.0883,5.022,4.9425,4.8663,4.8001,4.8001,4.8001,4.8033,4.81,4.8895,5.0254,5.0321,5.1151,5.2445,5.2445,5.2774,5.3301,5.3301,5.3831,5.4589,5.4589,5.5052,5.5819,5.6448,5.668,5.668,5.668,5.6719,5.6719,5.6719,5.6872,5.7025,5.7063,5.7176,5.7285,5.7163,5.7053,5.7187,5.8019,5.774,5.7453,5.7997,5.7558,5.6987,5.6987,5.7139,5.7214,5.7063,5.7214,5.7289,5.7101,5.7025,5.6949,5.6796,5.6757,5.6719,5.6757,5.6757,5.6719,5.6719,5.6719,5.6719,5.668,5.6117,5.5719,5.5582,5.4357,5.3632,5.3533,5.3017,5.2722,5.2722,5.2832,5.2465,5.159,5.0653,4.9889,4.9227,4.8564,4.8265,4.2064,4.2321,4.2213,4.1433,4.1443,0.0,3.9103,3.9978,4.1409,4.2137,4.2866,4.4092,4.6444,4.7471,4.7901,4.7666,4.9161,5.1554,5.509,5.5235,5.4682,5.3917,5.385,5.3551,5.2853,5.2644,5.2539,5.2407,5.2409,5.2409,5.2409,5.1148,5.0353,5.022,4.8928,4.8166,4.8001,4.8001,4.8066,4.8163,4.8827,4.9659,5.0593,5.1228,5.1963,5.2799,5.2624,5.2653,5.2751,5.2644,5.3699,5.5383,5.5383,5.5852,5.6481,5.6647,5.668,5.668,5.668,5.6796,5.6949,5.6949,5.7063,5.7289,5.7439,5.7402,5.7386,5.7797,5.7453,5.7287,5.8652,5.8141,5.749,5.8189,5.7635,5.6987,5.6987,5.7025,5.7101,5.7214,5.7402,5.7514,5.7476,5.7214,5.7025,5.7176,5.7063,5.6987,5.7176,5.7025,5.6949,5.6949,5.6949,5.6872,5.6719,5.6701,5.6369,5.5653,5.5317,5.4887,5.4291,5.3781,5.349,5.349,5.31,5.2732,5.2389,5.0919,5.0189,5.0125,4.9992,4.9926,4.3538,4.3057,4.2745,4.306,4.2127,0.0,0.0,3.9043,3.9023,4.0117,3.9785,4.005,4.2601,4.3396,4.3923,4.468,4.6038,4.8032,5.0953,5.2191,5.2596,5.2091,5.2127,5.2028,5.1558,5.1858,5.2056,5.1951,5.1881,5.1713,5.1313,5.0253,4.9657,4.9657,4.8597,4.8001,4.8001,4.8066,4.813,4.8195,4.8724,4.9389,5.0191,5.0928,5.1664,5.2367,5.2527,5.2659,5.2729,5.2587,5.3415,5.4819,5.5073,5.5439,5.5837,5.6568,5.6834,5.6834,5.6834,5.6987,5.7139,5.7139,5.7289,5.7476,5.7588,5.7514,5.7506,5.7763,5.7557,5.7457,5.8227,5.801,5.7689,5.7947,5.7557,5.7139,5.7139,5.7139,5.7214,5.7402,5.7625,5.7735,5.7625,5.7439,5.7252,5.7176,5.7139,5.7139,5.7139,5.7063,5.6987,5.6987,5.6911,5.6834,5.6834,5.6834,5.6668,5.6336,5.5857,5.5416,5.5052,5.4546,5.4161,5.4008,5.3745,5.3376,5.2903,5.196,5.1358,5.0958,5.0693,5.0527,4.5771,4.4941,4.4721,4.55,4.3815,4.1777,0.0,0.0,0.0,3.893,3.7867,3.741,3.9773,4.0237,4.0768,4.2332,0.0,0.0,0.0,4.7953,0.0,4.9993,4.9892,0.0,5.0226,5.066,5.1028,5.1326,5.0956,5.0587,5.0254,4.9559,4.9161,4.9127,4.8431,4.8099,4.8099,4.8195,4.826,4.8324,4.8617,4.9115,4.9719,5.0457,5.1195,5.1933,5.2331,5.2665,5.2938,5.2729,5.3131,5.3943,5.4565,5.4925,5.5225,5.6525,5.7025,5.7063,5.7025,5.7176,5.7364,5.7364,5.7476,5.7662,5.7662,5.7625,5.7588,5.7588,5.7588,5.7551,5.7588,5.7735,5.7808,5.7698,5.7514,5.7364,5.7364,5.7364,5.7402,5.7588,5.7772,5.7845,5.7698,5.7625,5.7514,5.7214,5.7289,5.7327,5.7176,5.7139,5.7101,5.7101,5.6949,5.6872,5.7025,5.6911,5.6872,5.7063,5.634,5.5933,5.5933,5.5384,5.4907,5.456,5.439,5.402,5.3414,5.3143,5.2602,5.1828,5.1396,5.1162,5.2063,5.2773,5.2131,4.7585,4.8601,4.8608,4.0715,0.0,4.23,3.9291,0.0,3.9358,3.9568,0.0,0.0,3.9042,0.0,0.0,4.1586,4.3456,4.5835,4.8418,4.7488,0.0,0.0,4.8424,4.8492,5.0627,4.9426,4.9094,5.0325,4.9826,4.9458,4.926,4.8723,4.8452,4.8452,4.8452,4.8547,4.8738,4.9411,4.9843,5.0071,5.0815,5.1558,5.2234,5.2169,5.2539,5.3144,5.2938,5.3006,5.3413,5.458,5.5478,5.6111,5.6763,5.7101,5.7252,5.7063,5.7252,5.7551,5.7551,5.7698,5.7845,5.7845,5.7735,5.7588,5.7588,5.7476,5.7364,5.7551,5.7625,5.7662,5.7808,5.7698,5.7551,5.7551,5.7551,5.7588,5.7588,5.7772,5.7881,5.7881,5.7735,5.7662,5.7772,5.7662,5.7625,5.7772,5.7625,5.7551,5.7551,5.7364,5.7252,5.7252,5.7252,5.7252,5.7252,5.7185,5.708,5.708,5.6449,5.5895,5.5545,5.473,5.4256,5.4188,5.3686,5.3281,5.301,5.2943,5.2943,5.2739,5.3044,5.2536,4.9429,0.0,0.0,4.2454,0.0,4.1352,0.0,0.0,0.0,0.0,0.0,0.0,0.0,3.9694,0.0,0.0,0.0,4.1988,0.0,0.0,0.0,0.0,0.0,0.0,0.0,4.7124,4.7197,4.7861,4.8092,4.8389,4.8822,4.8619,4.8515,4.8515,4.8644,4.8707,4.8801,4.9167,4.9429,4.9492,5.0236,5.0744,5.1048,5.1764,5.2337,5.2674,5.2976,5.3179,5.3484,5.4426,5.5196,5.5895,5.6929,5.7402,5.7476,5.7364,5.7551,5.7772,5.7772,5.7845,5.7881,5.7881,5.7845,5.7772,5.7772,5.7698,5.7662,5.7735,5.7772,5.7808,5.7881,5.7735,5.7588,5.7588,5.7588,5.7588,5.7588,5.7772,5.8017,5.8457,5.8113,5.7772,5.7735,5.7735,5.7772,5.7735,5.7662,5.7588,5.7588,5.7439,5.7289,5.7289,5.7289,5.7289,5.7289,5.7289,5.7289,5.7289,5.6988,5.663,5.6181,5.5772,5.5402,5.5103,5.4904,5.4532,5.399,5.3585,5.3382,5.4059,0.0,0.0,0.0,0.0,0.0,0.0,0.0,0.0,0.0,0.0,0.0,0.0,0.0,3.974,3.9708,0.0,3.9608,0.0,3.8709,0.0,0.0,0.0,0.0,0.0,0.0,0.0,0.0,0.0,4.519,4.5882,4.6617,4.7414,4.8212,4.8509,4.8642,4.8642,4.8801,4.8863,4.8863,4.8956,4.9018,4.9018,4.956,4.9898,5.0168,5.1358,5.1999,5.2367,5.3011,5.3382,5.3585,5.4296,5.4869,5.537,5.6746,5.7456,5.7662,5.7625,5.7735,5.7881,5.7881,5.7881,5.7881,5.7881,5.7881,5.7881,5.7881,5.7881,5.7881,5.7881,5.7881,5.7881,5.7881,5.7772,5.7698,5.7698,5.7698,5.7698,5.7698,5.7808,5.8051,5.8626,5.8254,5.798,5.8238,5.8079,5.7913,5.8002,5.7833,5.7698,5.7698,5.7514,5.7402,5.7476,5.7402,5.7402,5.7476,5.7476,5.7476,5.7476,5.7402,5.7241,5.6886,5.6648,5.6314,5.6021,5.5818,5.5446,5.4871,5.416,5.3687,0.0,0.0,0.0,5.1555,0.0,0.0,0.0,0.0,4.5974,0.0,0.0,0.0,0.0,4.3586,4.2644,4.1003,4.0742,0.0,0.0,0.0,0.0,0.0,0.0,0.0,0.0,0.0,0.0,0.0,0.0,0.0,4.5278,4.6178,4.6952,4.7628,4.8489,4.8987,4.8987,4.9018,4.8984,4.8984,4.9018,4.9018,4.9018,4.9018,4.9424,5.0135,5.0913,5.1657,5.2367,5.3179,5.3518,5.3585,5.4296,5.46,5.4768,5.6078,5.7091,5.7845,5.7662,5.7735,5.7881,5.7881,5.7881,5.7881,5.7881,5.7881,5.7881,5.7881,5.7881,5.7881,5.7881,5.7881,5.7881,5.7881,5.7881,5.7881,5.7881,5.7881,5.7881,5.7881,5.7881,5.7881,5.7915,5.7915,5.8389,5.981,5.8795,5.8152,5.8859,5.8355,5.7881,5.7881,5.7698,5.7662,5.7845,5.7698,5.7662,5.7881,5.7881,5.7881,5.7881,5.7698,5.7698,5.7848,5.6956,5.6583,5.6765,5.6055,5.5716,5.5683,5.4905,5.416,0.0,0.0,5.9201,5.3721,0.0,0.0,0.0,0.0,0.0,0.0,0.0,0.0,0.0,4.449,4.3424,4.1774,4.154,4.0648,0.0,3.7669,0.0,0.0,3.9458,4.018,0.0,0.0,0.0,0.0,4.0875,0.0,0.0,4.4394,4.5462,4.6326,4.7601,4.8274,4.8274,4.8781,4.9018,4.9018,4.9018,4.9018,4.9018,4.9018,4.9154,4.9424,5.0135,5.0879,5.1657,5.2401,5.301,5.3518,5.3788,5.416,5.4769,5.6187,5.6896,5.7239,5.764,5.7845,5.7881,5.7881,5.7881,5.7881,5.7881,5.7881,5.7881,5.7881,5.7881,5.7881,5.7881,5.7881,5.7881,5.7881,5.7881,5.7881,5.7881,5.7881,5.7881,5.7881,5.7881,5.8186,5.9201,5.8964,5.8795,5.9302,5.8964,5.8727,5.8998,5.8795,5.8457,5.7949,5.7845,5.7772,5.7698,5.7625,5.7698,5.7881,5.7881,5.7881,5.7881,5.7698,5.7698,5.7881,5.7462,5.7327,5.7509,5.7273,5.69,5.6427,5.6156,5.5412,6.0317,6.0689,0.0,5.5784,5.4093,0.0,4.7597,0.0,4.9255,0.0,0.0,0.0,0.0,4.6401,4.4754,4.3457,4.2583,4.0983,0.0,3.7652,0.0,3.746,3.8405,3.9075,3.9146,0.0,0.0,3.9059,3.9085,3.9749,0.0,0.0,4.4047,4.5177,4.6722,4.7631,4.7906,4.8376,4.8748,4.9018,4.9018,4.9018,4.9018,4.9018,4.9018,4.9052,4.9763,5.0498,5.1162,5.1686,5.2499,5.3375,5.3178,5.3551,5.4397,5.5852,5.6731,5.7273,5.7712,5.7881,5.7881,5.7881,5.7881,5.7881,5.7881,5.8065,5.8209,5.7954,5.8065,5.828,5.828,5.828,5.828,5.828,5.8458,5.8563,5.8315,5.8458,5.8633,5.8633,5.8908,5.9389,6.0314,6.0314,6.0168,6.019,5.9742,5.9505,5.9776,5.9336,5.8829,5.8355,5.8051,5.7845,5.7735,5.7698,5.7772,5.7881,5.7881,5.7881,5.7881,5.7772,5.7907,5.8287,5.7907,5.7907,5.8287,5.8017,5.7645,5.7171,5.6664,5.5919]}]]